Wetterdaten: Donnerstag, 04.05.2017
Datum Zeit Temp. A. Pool Temp. Feuchte A. Luftdruck Regen Wind Richtung Richtung Sonnenschein ET UV Solar Taupunkt Windchill Windben Empfang
04.05.2017 00:00 10,7 C 14,4 C 90 % 1014,3 hPa 0,0 l/m 4,9 km/h (1 Bft) S-SO 155 0 min 0,000 mm 0,0 UV-I 0 W/m 9,1 C 10,7 C 8,0 km/h (2 Bft) 97,14 %
04.05.2017 00:02 10,6 C 14,4 C 90 % 1014,3 hPa 0,0 l/m 4,2 km/h (1 Bft) S 169 0 min 0,000 mm 0,0 UV-I 0 W/m 9,0 C 10,6 C 8,0 km/h (2 Bft) 100,00 %
04.05.2017 00:04 10,6 C 14,4 C 90 % 1014,3 hPa 0,0 l/m 4,1 km/h (1 Bft) S-SO 155 0 min 0,000 mm 0,0 UV-I 0 W/m 9,0 C 10,6 C 8,0 km/h (2 Bft) 97,56 %
04.05.2017 00:06 10,7 C 14,4 C 91 % 1014,3 hPa 0,0 l/m 4,6 km/h (1 Bft) S-SO 150 0 min 0,000 mm 0,0 UV-I 0 W/m 9,3 C 10,7 C 9,7 km/h (2 Bft) 98,11 %
04.05.2017 00:08 10,7 C 14,4 C 91 % 1014,3 hPa 0,0 l/m 4,9 km/h (1 Bft) S 170 0 min 0,000 mm 0,0 UV-I 0 W/m 9,3 C 10,7 C 8,0 km/h (2 Bft) 97,87 %
04.05.2017 00:10 10,7 C 14,4 C 91 % 1014,3 hPa 0,0 l/m 3,7 km/h (1 Bft) S-SO 159 0 min 0,000 mm 0,0 UV-I 0 W/m 9,3 C 10,7 C 6,4 km/h (2 Bft) 97,37 %
04.05.2017 00:12 10,7 C 14,4 C 91 % 1014,4 hPa 0,0 l/m 2,7 km/h (1 Bft) S-SO 159 0 min 0,000 mm 0,0 UV-I 0 W/m 9,3 C 10,7 C 6,4 km/h (2 Bft) 100,00 %
04.05.2017 00:14 10,7 C 14,4 C 91 % 1014,3 hPa 0,0 l/m 2,6 km/h (1 Bft) S-SO 161 0 min 0,000 mm 0,0 UV-I 0 W/m 9,3 C 10,7 C 8,0 km/h (2 Bft) 98,00 %
04.05.2017 00:16 10,7 C 14,4 C 91 % 1014,4 hPa 0,0 l/m 3,8 km/h (1 Bft) S-SO 152 0 min 0,000 mm 0,0 UV-I 0 W/m 9,3 C 10,7 C 8,0 km/h (2 Bft) 98,00 %
04.05.2017 00:18 10,7 C 14,4 C 91 % 1014,3 hPa 0,0 l/m 4,5 km/h (1 Bft) S-SO 152 0 min 0,000 mm 0,0 UV-I 0 W/m 9,3 C 10,7 C 8,0 km/h (2 Bft) 100,00 %
04.05.2017 00:20 10,7 C 14,4 C 91 % 1014,4 hPa 0,0 l/m 3,4 km/h (1 Bft) S-SO 150 0 min 0,000 mm 0,0 UV-I 0 W/m 9,3 C 10,7 C 6,4 km/h (2 Bft) 96,23 %
04.05.2017 00:22 10,8 C 14,4 C 91 % 1014,3 hPa 0,0 l/m 3,8 km/h (1 Bft) S-SO 151 0 min 0,000 mm 0,0 UV-I 0 W/m 9,4 C 10,8 C 6,4 km/h (2 Bft) 100,00 %
04.05.2017 00:24 10,7 C 14,4 C 91 % 1014,4 hPa 0,0 l/m 4,4 km/h (1 Bft) SO 127 0 min 0,000 mm 0,0 UV-I 0 W/m 9,3 C 10,7 C 8,0 km/h (2 Bft) 98,00 %
04.05.2017 00:26 10,7 C 14,4 C 91 % 1014,3 hPa 0,0 l/m 4,9 km/h (1 Bft) S-SO 148 0 min 0,000 mm 0,0 UV-I 0 W/m 9,3 C 10,7 C 8,0 km/h (2 Bft) 100,00 %
04.05.2017 00:28 10,8 C 14,4 C 91 % 1014,3 hPa 0,0 l/m 4,3 km/h (1 Bft) S-SO 147 0 min 0,000 mm 0,0 UV-I 0 W/m 9,4 C 10,8 C 8,0 km/h (2 Bft) 100,00 %
04.05.2017 00:30 10,7 C 14,4 C 91 % 1014,3 hPa 0,0 l/m 4,1 km/h (1 Bft) SO 144 0 min 0,000 mm 0,0 UV-I 0 W/m 9,3 C 10,7 C 8,0 km/h (2 Bft) 100,00 %
04.05.2017 00:32 10,8 C 14,4 C 91 % 1014,4 hPa 0,0 l/m 2,4 km/h (1 Bft) SO 144 0 min 0,000 mm 0,0 UV-I 0 W/m 9,4 C 10,8 C 3,2 km/h (1 Bft) 100,00 %
04.05.2017 00:34 10,7 C 14,4 C 91 % 1014,4 hPa 0,0 l/m 1,1 km/h (1 Bft) SO 144 0 min 0,000 mm 0,0 UV-I 0 W/m 9,3 C 10,7 C 1,6 km/h (1 Bft) 98,00 %
04.05.2017 00:36 10,7 C 14,4 C 91 % 1014,3 hPa 0,0 l/m 0,6 km/h (0 Bft) SO 144 0 min 0,000 mm 0,0 UV-I 0 W/m 9,3 C 10,7 C 1,6 km/h (1 Bft) 97,37 %
04.05.2017 00:38 10,7 C 14,4 C 91 % 1014,3 hPa 0,0 l/m 0,4 km/h (0 Bft) SO 144 0 min 0,000 mm 0,0 UV-I 0 W/m 9,3 C 10,7 C 1,6 km/h (1 Bft) 100,00 %
04.05.2017 00:40 10,6 C 14,4 C 91 % 1014,3 hPa 0,0 l/m 0,9 km/h (0 Bft) SO 144 0 min 0,000 mm 0,0 UV-I 0 W/m 9,2 C 10,6 C 3,2 km/h (1 Bft) 97,73 %
04.05.2017 00:42 10,5 C 14,4 C 91 % 1014,3 hPa 0,0 l/m 1,6 km/h (1 Bft) SO 144 0 min 0,000 mm 0,0 UV-I 0 W/m 9,1 C 10,5 C 3,2 km/h (1 Bft) 98,11 %
04.05.2017 00:44 10,4 C 14,4 C 91 % 1014,3 hPa 0,0 l/m 2,5 km/h (1 Bft) SO 144 0 min 0,000 mm 0,0 UV-I 0 W/m 9,0 C 10,4 C 4,8 km/h (1 Bft) 100,00 %
04.05.2017 00:46 10,3 C 14,4 C 91 % 1014,3 hPa 0,0 l/m 3,0 km/h (1 Bft) SO 144 0 min 0,000 mm 0,0 UV-I 0 W/m 8,9 C 10,3 C 4,8 km/h (1 Bft) 97,87 %
04.05.2017 00:48 10,2 C 14,4 C 91 % 1014,3 hPa 0,0 l/m 3,4 km/h (1 Bft) SO 132 0 min 0,000 mm 0,0 UV-I 0 W/m 8,8 C 10,2 C 4,8 km/h (1 Bft) 100,00 %
04.05.2017 00:50 10,2 C 14,4 C 92 % 1014,3 hPa 0,0 l/m 3,9 km/h (1 Bft) O 81 0 min 0,000 mm 0,0 UV-I 0 W/m 9,0 C 10,2 C 6,4 km/h (2 Bft) 97,73 %
04.05.2017 00:52 10,2 C 14,4 C 92 % 1014,2 hPa 0,0 l/m 5,2 km/h (1 Bft) O-NO 67 0 min 0,000 mm 0,0 UV-I 0 W/m 9,0 C 10,2 C 6,4 km/h (2 Bft) 97,87 %
04.05.2017 00:54 10,2 C 14,4 C 92 % 1014,2 hPa 0,0 l/m 5,8 km/h (2 Bft) O 80 0 min 0,000 mm 0,0 UV-I 0 W/m 9,0 C 10,2 C 8,0 km/h (2 Bft) 94,34 %
04.05.2017 00:56 10,2 C 14,4 C 92 % 1014,2 hPa 0,0 l/m 3,6 km/h (1 Bft) O 80 0 min 0,000 mm 0,0 UV-I 0 W/m 9,0 C 10,2 C 6,4 km/h (2 Bft) 95,74 %
04.05.2017 00:58 10,1 C 14,4 C 92 % 1014,1 hPa 0,0 l/m 2,7 km/h (1 Bft) O 80 0 min 0,000 mm 0,0 UV-I 0 W/m 8,9 C 10,1 C 4,8 km/h (1 Bft) 97,37 %
04.05.2017 01:00 10,0 C 14,4 C 92 % 1014,2 hPa 0,0 l/m 1,6 km/h (1 Bft) O 80 0 min 0,000 mm 0,0 UV-I 0 W/m 8,8 C 10,0 C 4,8 km/h (1 Bft) 96,00 %
04.05.2017 01:02 9,9 C 14,4 C 92 % 1014,2 hPa 0,0 l/m 1,9 km/h (1 Bft) O 80 0 min 0,000 mm 0,0 UV-I 0 W/m 8,7 C 9,9 C 3,2 km/h (1 Bft) 98,00 %
04.05.2017 01:04 9,8 C 14,4 C 92 % 1014,2 hPa 0,0 l/m 2,7 km/h (1 Bft) O 80 0 min 0,000 mm 0,0 UV-I 0 W/m 8,6 C 9,8 C 4,8 km/h (1 Bft) 94,87 %
04.05.2017 01:06 9,8 C 14,4 C 92 % 1014,2 hPa 0,0 l/m 6,3 km/h (2 Bft) O-NO 78 0 min 0,000 mm 0,0 UV-I 0 W/m 8,6 C 9,8 C 11,3 km/h (2 Bft) 98,08 %
04.05.2017 01:08 9,8 C 14,4 C 92 % 1014,2 hPa 0,0 l/m 8,1 km/h (2 Bft) O 80 0 min 0,000 mm 0,0 UV-I 0 W/m 8,6 C 8,6 C 12,9 km/h (3 Bft) 97,44 %
04.05.2017 01:10 9,8 C 14,4 C 93 % 1014,2 hPa 0,0 l/m 6,2 km/h (2 Bft) O-NO 71 0 min 0,000 mm 0,0 UV-I 0 W/m 8,7 C 9,8 C 8,0 km/h (2 Bft) 98,11 %
04.05.2017 01:12 9,8 C 14,4 C 93 % 1014,3 hPa 0,0 l/m 4,9 km/h (1 Bft) O 79 0 min 0,000 mm 0,0 UV-I 0 W/m 8,7 C 9,8 C 8,0 km/h (2 Bft) 96,23 %
04.05.2017 01:14 9,8 C 14,4 C 92 % 1014,2 hPa 0,0 l/m 3,2 km/h (1 Bft) O 79 0 min 0,000 mm 0,0 UV-I 0 W/m 8,6 C 9,8 C 4,8 km/h (1 Bft) 94,74 %
04.05.2017 01:16 9,7 C 14,4 C 92 % 1014,2 hPa 0,0 l/m 4,8 km/h (1 Bft) O-NO 76 0 min 0,000 mm 0,0 UV-I 0 W/m 8,5 C 9,7 C 11,3 km/h (2 Bft) 97,87 %
04.05.2017 01:18 9,8 C 14,4 C 93 % 1014,3 hPa 0,0 l/m 5,4 km/h (1 Bft) O-NO 71 0 min 0,000 mm 0,0 UV-I 0 W/m 8,7 C 9,8 C 8,0 km/h (2 Bft) 98,11 %
04.05.2017 01:20 9,8 C 14,4 C 93 % 1014,3 hPa 0,0 l/m 5,7 km/h (1 Bft) O-NO 74 0 min 0,000 mm 0,0 UV-I 0 W/m 8,7 C 9,8 C 8,0 km/h (2 Bft) 96,15 %
04.05.2017 01:22 9,8 C 14,4 C 93 % 1014,3 hPa 0,0 l/m 5,1 km/h (1 Bft) O-NO 74 0 min 0,000 mm 0,0 UV-I 0 W/m 8,7 C 9,8 C 8,0 km/h (2 Bft) 95,38 %
04.05.2017 01:24 9,8 C 14,4 C 93 % 1014,3 hPa 0,0 l/m 5,4 km/h (1 Bft) O-NO 74 0 min 0,000 mm 0,0 UV-I 0 W/m 8,7 C 9,8 C 6,4 km/h (2 Bft) 97,87 %
04.05.2017 01:26 9,8 C 14,4 C 92 % 1014,3 hPa 0,0 l/m 4,2 km/h (1 Bft) O-NO 74 0 min 0,000 mm 0,0 UV-I 0 W/m 8,6 C 9,8 C 4,8 km/h (1 Bft) 96,00 %
04.05.2017 01:28 9,8 C 14,4 C 92 % 1014,3 hPa 0,0 l/m 1,8 km/h (1 Bft) O-NO 74 0 min 0,000 mm 0,0 UV-I 0 W/m 8,6 C 9,8 C 3,2 km/h (1 Bft) 100,00 %
04.05.2017 01:30 9,7 C 14,4 C 92 % 1014,2 hPa 0,0 l/m 0,9 km/h (0 Bft) O-NO 74 0 min 0,000 mm 0,0 UV-I 0 W/m 8,5 C 9,7 C 1,6 km/h (1 Bft) 100,00 %
04.05.2017 01:32 9,5 C 14,4 C 92 % 1014,2 hPa 0,0 l/m 2,6 km/h (1 Bft) O-NO 74 0 min 0,000 mm 0,0 UV-I 0 W/m 8,3 C 9,5 C 4,8 km/h (1 Bft) 100,00 %
04.05.2017 01:34 9,4 C 14,4 C 92 % 1014,2 hPa 0,0 l/m 3,0 km/h (1 Bft) O-NO 74 0 min 0,000 mm 0,0 UV-I 0 W/m 8,2 C 9,4 C 4,8 km/h (1 Bft) 100,00 %
04.05.2017 01:36 9,3 C 14,4 C 92 % 1014,1 hPa 0,0 l/m 2,9 km/h (1 Bft) O-NO 74 0 min 0,000 mm 0,0 UV-I 0 W/m 8,1 C 9,3 C 4,8 km/h (1 Bft) 98,00 %
04.05.2017 01:38 9,2 C 14,4 C 92 % 1014,1 hPa 0,0 l/m 2,0 km/h (1 Bft) O-NO 74 0 min 0,000 mm 0,0 UV-I 0 W/m 8,0 C 9,2 C 3,2 km/h (1 Bft) 100,00 %
04.05.2017 01:40 9,1 C 14,4 C 92 % 1014,1 hPa 0,0 l/m 2,6 km/h (1 Bft) O-SO 123 0 min 0,000 mm 0,0 UV-I 0 W/m 7,9 C 9,1 C 4,8 km/h (1 Bft) 97,37 %
04.05.2017 01:42 9,0 C 14,4 C 93 % 1014,1 hPa 0,0 l/m 0,4 km/h (0 Bft) O-SO 123 0 min 0,000 mm 0,0 UV-I 0 W/m 7,9 C 9,0 C 1,6 km/h (1 Bft) 100,00 %
04.05.2017 01:44 8,9 C 14,4 C 93 % 1014,1 hPa 0,0 l/m 0,2 km/h (0 Bft) O-SO 123 0 min 0,000 mm 0,0 UV-I 0 W/m 7,8 C 8,9 C 1,6 km/h (1 Bft) 98,11 %
04.05.2017 01:46 8,9 C 14,4 C 93 % 1014,1 hPa 0,0 l/m 0,9 km/h (0 Bft) O-SO 123 0 min 0,000 mm 0,0 UV-I 0 W/m 7,8 C 8,9 C 3,2 km/h (1 Bft) 100,00 %
04.05.2017 01:48 8,9 C 14,4 C 93 % 1014,1 hPa 0,0 l/m 2,5 km/h (1 Bft) SO 134 0 min 0,000 mm 0,0 UV-I 0 W/m 7,8 C 8,9 C 4,8 km/h (1 Bft) 96,00 %
04.05.2017 01:50 8,8 C 14,4 C 93 % 1014,1 hPa 0,0 l/m 2,2 km/h (1 Bft) SO 146 0 min 0,000 mm 0,0 UV-I 0 W/m 7,7 C 8,8 C 3,2 km/h (1 Bft) 100,00 %
04.05.2017 01:52 8,7 C 14,4 C 93 % 1014,1 hPa 0,0 l/m 2,4 km/h (1 Bft) S 169 0 min 0,000 mm 0,0 UV-I 0 W/m 7,6 C 8,7 C 6,4 km/h (2 Bft) 97,87 %
04.05.2017 01:54 8,7 C 14,4 C 94 % 1014,1 hPa 0,0 l/m 1,5 km/h (1 Bft) S 169 0 min 0,000 mm 0,0 UV-I 0 W/m 7,8 C 8,7 C 3,2 km/h (1 Bft) 97,56 %
04.05.2017 01:56 8,7 C 14,4 C 94 % 1014,1 hPa 0,0 l/m 1,8 km/h (1 Bft) S 169 0 min 0,000 mm 0,0 UV-I 0 W/m 7,8 C 8,7 C 3,2 km/h (1 Bft) 97,87 %
04.05.2017 01:58 8,7 C 14,4 C 94 % 1014,1 hPa 0,0 l/m 2,9 km/h (1 Bft) S 169 0 min 0,000 mm 0,0 UV-I 0 W/m 7,8 C 8,7 C 6,4 km/h (2 Bft) 98,00 %
04.05.2017 02:00 8,7 C 14,4 C 94 % 1014,1 hPa 0,0 l/m 2,7 km/h (1 Bft) S 169 0 min 0,000 mm 0,0 UV-I 0 W/m 7,8 C 8,7 C 3,2 km/h (1 Bft) 100,00 %
04.05.2017 02:02 8,7 C 14,4 C 94 % 1014,0 hPa 0,0 l/m 2,3 km/h (1 Bft) S 169 0 min 0,000 mm 0,0 UV-I 0 W/m 7,8 C 8,7 C 3,2 km/h (1 Bft) 96,00 %
04.05.2017 02:04 8,7 C 14,4 C 94 % 1014,0 hPa 0,0 l/m 1,6 km/h (1 Bft) S 169 0 min 0,000 mm 0,0 UV-I 0 W/m 7,8 C 8,7 C 3,2 km/h (1 Bft) 97,87 %
04.05.2017 02:06 8,7 C 14,4 C 94 % 1014,0 hPa 0,0 l/m 1,9 km/h (1 Bft) S 169 0 min 0,000 mm 0,0 UV-I 0 W/m 7,8 C 8,7 C 3,2 km/h (1 Bft) 97,37 %
04.05.2017 02:08 8,7 C 14,4 C 95 % 1014,0 hPa 0,0 l/m 1,7 km/h (1 Bft) S 169 0 min 0,000 mm 0,0 UV-I 0 W/m 7,9 C 8,7 C 3,2 km/h (1 Bft) 96,23 %
04.05.2017 02:10 8,7 C 14,4 C 95 % 1014,0 hPa 0,0 l/m 1,7 km/h (1 Bft) S 169 0 min 0,000 mm 0,0 UV-I 0 W/m 7,9 C 8,7 C 3,2 km/h (1 Bft) 96,00 %
04.05.2017 02:12 8,7 C 14,4 C 95 % 1014,0 hPa 0,0 l/m 1,0 km/h (0 Bft) S 169 0 min 0,000 mm 0,0 UV-I 0 W/m 7,9 C 8,7 C 3,2 km/h (1 Bft) 97,37 %
04.05.2017 02:14 8,7 C 14,4 C 95 % 1014,0 hPa 0,0 l/m 2,1 km/h (1 Bft) S 169 0 min 0,000 mm 0,0 UV-I 0 W/m 7,9 C 8,7 C 3,2 km/h (1 Bft) 98,11 %
04.05.2017 02:16 8,6 C 14,4 C 95 % 1014,1 hPa 0,0 l/m 2,0 km/h (1 Bft) S 169 0 min 0,000 mm 0,0 UV-I 0 W/m 7,8 C 8,6 C 3,2 km/h (1 Bft) 96,00 %
04.05.2017 02:18 8,3 C 14,4 C 94 % 1014,1 hPa 0,0 l/m 0,1 km/h (0 Bft) S 169 0 min 0,000 mm 0,0 UV-I 0 W/m 7,4 C 8,3 C 1,6 km/h (1 Bft) 97,14 %
04.05.2017 02:20 8,1 C 14,4 C 94 % 1014,1 hPa 0,0 l/m 0,0 km/h (0 Bft) S 169 0 min 0,000 mm 0,0 UV-I 0 W/m 7,2 C 8,1 C 0,0 km/h (0 Bft) 97,22 %
04.05.2017 02:22 7,8 C 14,4 C 93 % 1014,2 hPa 0,0 l/m 0,1 km/h (0 Bft) S 169 0 min 0,000 mm 0,0 UV-I 0 W/m 6,7 C 7,8 C 1,6 km/h (1 Bft) 97,01 %
04.05.2017 02:24 7,8 C 14,4 C 94 % 1014,1 hPa 0,0 l/m 2,1 km/h (1 Bft) S 169 0 min 0,000 mm 0,0 UV-I 0 W/m 6,9 C 7,8 C 3,2 km/h (1 Bft) 97,87 %
04.05.2017 02:26 7,9 C 14,4 C 95 % 1014,2 hPa 0,0 l/m 4,7 km/h (1 Bft) S 169 0 min 0,000 mm 0,0 UV-I 0 W/m 7,1 C 7,9 C 6,4 km/h (2 Bft) 97,44 %
04.05.2017 02:28 8,0 C 14,4 C 95 % 1014,2 hPa 0,0 l/m 5,3 km/h (1 Bft) S 169 0 min 0,000 mm 0,0 UV-I 0 W/m 7,2 C 8,0 C 6,4 km/h (2 Bft) 97,87 %
04.05.2017 02:30 8,1 C 14,4 C 95 % 1014,1 hPa 0,0 l/m 5,6 km/h (1 Bft) S 169 0 min 0,000 mm 0,0 UV-I 0 W/m 7,3 C 8,1 C 6,4 km/h (2 Bft) 94,34 %
04.05.2017 02:32 8,1 C 14,4 C 95 % 1014,1 hPa 0,0 l/m 3,4 km/h (1 Bft) S 169 0 min 0,000 mm 0,0 UV-I 0 W/m 7,3 C 8,1 C 6,4 km/h (2 Bft) 97,87 %
04.05.2017 02:34 8,2 C 14,4 C 95 % 1014,2 hPa 0,0 l/m 2,5 km/h (1 Bft) S 169 0 min 0,000 mm 0,0 UV-I 0 W/m 7,4 C 8,2 C 6,4 km/h (2 Bft) 92,00 %
04.05.2017 02:36 8,2 C 14,4 C 95 % 1014,2 hPa 0,0 l/m 2,8 km/h (1 Bft) S 169 0 min 0,000 mm 0,0 UV-I 0 W/m 7,4 C 8,2 C 6,4 km/h (2 Bft) 95,12 %
04.05.2017 02:38 8,2 C 14,4 C 95 % 1014,2 hPa 0,0 l/m 3,3 km/h (1 Bft) S 169 0 min 0,000 mm 0,0 UV-I 0 W/m 7,4 C 8,2 C 6,4 km/h (2 Bft) 98,00 %
04.05.2017 02:40 8,2 C 14,4 C 95 % 1014,2 hPa 0,0 l/m 2,9 km/h (1 Bft) S 169 0 min 0,000 mm 0,0 UV-I 0 W/m 7,4 C 8,2 C 3,2 km/h (1 Bft) 94,00 %
04.05.2017 02:42 8,2 C 14,4 C 95 % 1014,2 hPa 0,0 l/m 1,8 km/h (1 Bft) S 169 0 min 0,000 mm 0,0 UV-I 0 W/m 7,4 C 8,2 C 6,4 km/h (2 Bft) 100,00 %
04.05.2017 02:44 8,2 C 14,4 C 95 % 1014,2 hPa 0,0 l/m 3,3 km/h (1 Bft) S 169 0 min 0,000 mm 0,0 UV-I 0 W/m 7,4 C 8,2 C 6,4 km/h (2 Bft) 93,62 %
04.05.2017 02:46 8,2 C 14,4 C 95 % 1014,2 hPa 0,0 l/m 5,2 km/h (1 Bft) S 169 0 min 0,000 mm 0,0 UV-I 0 W/m 7,4 C 8,2 C 8,0 km/h (2 Bft) 97,87 %
04.05.2017 02:48 8,2 C 14,4 C 95 % 1014,2 hPa 0,0 l/m 3,4 km/h (1 Bft) S 169 0 min 0,000 mm 0,0 UV-I 0 W/m 7,4 C 8,2 C 6,4 km/h (2 Bft) 95,12 %
04.05.2017 02:50 8,2 C 14,4 C 95 % 1014,2 hPa 0,0 l/m 2,9 km/h (1 Bft) S 169 0 min 0,000 mm 0,0 UV-I 0 W/m 7,4 C 8,2 C 6,4 km/h (2 Bft) 98,21 %
04.05.2017 02:52 8,1 C 14,4 C 95 % 1014,2 hPa 0,0 l/m 2,1 km/h (1 Bft) S 169 0 min 0,000 mm 0,0 UV-I 0 W/m 7,3 C 8,1 C 6,4 km/h (2 Bft) 97,37 %
04.05.2017 02:54 8,1 C 14,4 C 95 % 1014,2 hPa 0,0 l/m 2,4 km/h (1 Bft) S 169 0 min 0,000 mm 0,0 UV-I 0 W/m 7,3 C 8,1 C 3,2 km/h (1 Bft) 96,43 %
04.05.2017 02:56 8,1 C 14,4 C 95 % 1014,2 hPa 0,0 l/m 2,9 km/h (1 Bft) S 169 0 min 0,000 mm 0,0 UV-I 0 W/m 7,3 C 8,1 C 6,4 km/h (2 Bft) 95,12 %
04.05.2017 02:58 8,1 C 14,4 C 95 % 1014,2 hPa 0,0 l/m 1,7 km/h (1 Bft) S 169 0 min 0,000 mm 0,0 UV-I 0 W/m 7,3 C 8,1 C 3,2 km/h (1 Bft) 93,62 %
04.05.2017 03:00 8,1 C 14,4 C 95 % 1014,2 hPa 0,0 l/m 0,6 km/h (0 Bft) S 169 0 min 0,000 mm 0,0 UV-I 0 W/m 7,3 C 8,1 C 1,6 km/h (1 Bft) 96,43 %
04.05.2017 03:02 7,9 C 14,4 C 95 % 1014,2 hPa 0,0 l/m 0,1 km/h (0 Bft) S 169 0 min 0,000 mm 0,0 UV-I 0 W/m 7,1 C 7,9 C 1,6 km/h (1 Bft) 95,74 %
04.05.2017 03:04 7,8 C 14,4 C 95 % 1014,2 hPa 0,0 l/m 0,0 km/h (0 Bft) S 169 0 min 0,000 mm 0,0 UV-I 0 W/m 7,0 C 7,8 C 0,0 km/h (0 Bft) 97,44 %
04.05.2017 03:06 7,7 C 14,4 C 95 % 1014,2 hPa 0,0 l/m 0,0 km/h (0 Bft) S 169 0 min 0,000 mm 0,0 UV-I 0 W/m 7,0 C 7,7 C 0,0 km/h (0 Bft) 97,87 %
04.05.2017 03:08 7,6 C 14,4 C 95 % 1014,2 hPa 0,0 l/m 0,0 km/h (0 Bft) S 169 0 min 0,000 mm 0,0 UV-I 0 W/m 6,9 C 7,6 C 0,0 km/h (0 Bft) 97,56 %
04.05.2017 03:10 7,5 C 14,4 C 95 % 1014,2 hPa 0,0 l/m 0,0 km/h (0 Bft) S 169 0 min 0,000 mm 0,0 UV-I 0 W/m 6,8 C 7,5 C 0,0 km/h (0 Bft) 98,04 %
04.05.2017 03:12 7,5 C 13,9 C 95 % 1014,2 hPa 0,0 l/m 0,0 km/h (0 Bft) S 169 0 min 0,000 mm 0,0 UV-I 0 W/m 6,8 C 7,5 C 0,0 km/h (0 Bft) 97,87 %
04.05.2017 03:14 7,5 C 13,9 C 95 % 1014,1 hPa 0,0 l/m 0,0 km/h (0 Bft) S 169 0 min 0,000 mm 0,0 UV-I 0 W/m 6,8 C 7,5 C 0,0 km/h (0 Bft) 96,00 %
04.05.2017 03:16 7,6 C 13,9 C 95 % 1014,1 hPa 0,0 l/m 2,6 km/h (1 Bft) O-SO 109 0 min 0,000 mm 0,0 UV-I 0 W/m 6,9 C 7,6 C 3,2 km/h (1 Bft) 95,45 %
04.05.2017 03:18 7,7 C 14,4 C 96 % 1014,1 hPa 0,0 l/m 2,2 km/h (1 Bft) O-SO 109 0 min 0,000 mm 0,0 UV-I 0 W/m 7,1 C 7,7 C 4,8 km/h (1 Bft) 95,74 %
04.05.2017 03:20 7,8 C 13,9 C 95 % 1014,1 hPa 0,0 l/m 0,0 km/h (0 Bft) O-SO 109 0 min 0,000 mm 0,0 UV-I 0 W/m 7,0 C 7,8 C 0,0 km/h (0 Bft) 95,74 %
04.05.2017 03:22 7,8 C 14,4 C 96 % 1014,1 hPa 0,0 l/m 1,6 km/h (1 Bft) O-SO 109 0 min 0,000 mm 0,0 UV-I 0 W/m 7,2 C 7,8 C 3,2 km/h (1 Bft) 98,11 %
04.05.2017 03:24 7,7 C 14,4 C 95 % 1014,1 hPa 0,0 l/m 1,3 km/h (1 Bft) O-SO 109 0 min 0,000 mm 0,0 UV-I 0 W/m 7,0 C 7,7 C 3,2 km/h (1 Bft) 93,62 %
04.05.2017 03:26 7,6 C 13,9 C 95 % 1014,1 hPa 0,0 l/m 0,2 km/h (0 Bft) O-SO 109 0 min 0,000 mm 0,0 UV-I 0 W/m 6,9 C 7,6 C 1,6 km/h (1 Bft) 97,56 %
04.05.2017 03:28 7,4 C 13,9 C 95 % 1014,1 hPa 0,0 l/m 2,9 km/h (1 Bft) O-SO 109 0 min 0,000 mm 0,0 UV-I 0 W/m 6,7 C 7,4 C 4,8 km/h (1 Bft) 98,00 %
04.05.2017 03:30 7,3 C 14,4 C 95 % 1014,1 hPa 0,0 l/m 3,1 km/h (1 Bft) O-SO 109 0 min 0,000 mm 0,0 UV-I 0 W/m 6,6 C 7,3 C 4,8 km/h (1 Bft) 95,45 %
04.05.2017 03:32 7,4 C 13,9 C 95 % 1014,1 hPa 0,0 l/m 4,1 km/h (1 Bft) O-SO 107 0 min 0,000 mm 0,0 UV-I 0 W/m 6,7 C 7,4 C 4,8 km/h (1 Bft) 100,00 %
04.05.2017 03:34 7,5 C 13,9 C 95 % 1014,1 hPa 0,0 l/m 3,4 km/h (1 Bft) O-SO 107 0 min 0,000 mm 0,0 UV-I 0 W/m 6,8 C 7,5 C 4,8 km/h (1 Bft) 97,56 %
04.05.2017 03:36 7,7 C 13,9 C 96 % 1014,1 hPa 0,0 l/m 2,7 km/h (1 Bft) O-SO 107 0 min 0,000 mm 0,0 UV-I 0 W/m 7,1 C 7,7 C 4,8 km/h (1 Bft) 100,00 %
04.05.2017 03:38 7,7 C 13,9 C 95 % 1014,0 hPa 0,0 l/m 2,6 km/h (1 Bft) O-SO 107 0 min 0,000 mm 0,0 UV-I 0 W/m 7,0 C 7,7 C 4,8 km/h (1 Bft) 97,87 %
04.05.2017 03:40 7,4 C 13,9 C 95 % 1014,0 hPa 0,0 l/m 4,0 km/h (1 Bft) O-SO 107 0 min 0,000 mm 0,0 UV-I 0 W/m 6,7 C 7,4 C 4,8 km/h (1 Bft) 100,00 %
04.05.2017 03:42 7,2 C 13,9 C 95 % 1014,0 hPa 0,0 l/m 3,7 km/h (1 Bft) O-SO 107 0 min 0,000 mm 0,0 UV-I 0 W/m 6,5 C 7,2 C 4,8 km/h (1 Bft) 100,00 %
04.05.2017 03:44 7,1 C 13,9 C 95 % 1013,9 hPa 0,0 l/m 3,7 km/h (1 Bft) O-SO 107 0 min 0,000 mm 0,0 UV-I 0 W/m 6,4 C 7,1 C 4,8 km/h (1 Bft) 96,15 %
04.05.2017 03:46 7,0 C 13,9 C 95 % 1013,9 hPa 0,0 l/m 3,1 km/h (1 Bft) O-SO 107 0 min 0,000 mm 0,0 UV-I 0 W/m 6,3 C 7,0 C 3,2 km/h (1 Bft) 98,00 %
04.05.2017 03:48 7,0 C 13,9 C 95 % 1013,9 hPa 0,0 l/m 2,7 km/h (1 Bft) O-SO 107 0 min 0,000 mm 0,0 UV-I 0 W/m 6,3 C 7,0 C 3,2 km/h (1 Bft) 100,00 %
04.05.2017 03:50 7,1 C 13,9 C 95 % 1013,9 hPa 0,0 l/m 1,8 km/h (1 Bft) O-SO 107 0 min 0,000 mm 0,0 UV-I 0 W/m 6,4 C 7,1 C 3,2 km/h (1 Bft) 96,23 %
04.05.2017 03:52 7,1 C 13,9 C 95 % 1013,9 hPa 0,0 l/m 0,9 km/h (0 Bft) O-SO 107 0 min 0,000 mm 0,0 UV-I 0 W/m 6,4 C 7,1 C 3,2 km/h (1 Bft) 100,00 %
04.05.2017 03:54 7,2 C 13,9 C 96 % 1013,9 hPa 0,0 l/m 0,1 km/h (0 Bft) O-SO 107 0 min 0,000 mm 0,0 UV-I 0 W/m 6,6 C 7,2 C 1,6 km/h (1 Bft) 98,46 %
04.05.2017 03:56 7,2 C 13,9 C 96 % 1013,9 hPa 0,0 l/m 2,1 km/h (1 Bft) O-SO 107 0 min 0,000 mm 0,0 UV-I 0 W/m 6,6 C 7,2 C 3,2 km/h (1 Bft) 100,00 %
04.05.2017 03:58 7,2 C 13,9 C 95 % 1013,9 hPa 0,0 l/m 1,6 km/h (1 Bft) O-SO 107 0 min 0,000 mm 0,0 UV-I 0 W/m 6,5 C 7,2 C 3,2 km/h (1 Bft) 100,00 %
04.05.2017 04:00 7,2 C 13,9 C 95 % 1013,9 hPa 0,0 l/m 0,3 km/h (0 Bft) O-SO 107 0 min 0,000 mm 0,0 UV-I 0 W/m 6,5 C 7,2 C 1,6 km/h (1 Bft) 100,00 %
04.05.2017 04:04 7,0 C 13,9 C 95 % 1013,9 hPa 0,0 l/m 0,1 km/h (0 Bft) O-SO 107 0 min 0,000 mm 0,0 UV-I 0 W/m 6,3 C 7,0 C 1,6 km/h (1 Bft) 100,00 %
04.05.2017 04:06 6,9 C 13,9 C 95 % 1013,9 hPa 0,0 l/m 2,3 km/h (1 Bft) O-SO 107 0 min 0,000 mm 0,0 UV-I 0 W/m 6,2 C 6,9 C 3,2 km/h (1 Bft) 97,37 %
04.05.2017 04:08 6,9 C 13,9 C 95 % 1013,9 hPa 0,0 l/m 2,7 km/h (1 Bft) O-SO 107 0 min 0,000 mm 0,0 UV-I 0 W/m 6,2 C 6,9 C 4,8 km/h (1 Bft) 97,87 %
04.05.2017 04:10 6,9 C 13,9 C 95 % 1013,9 hPa 0,0 l/m 1,9 km/h (1 Bft) O-SO 107 0 min 0,000 mm 0,0 UV-I 0 W/m 6,2 C 6,9 C 3,2 km/h (1 Bft) 96,23 %
04.05.2017 04:12 6,9 C 13,9 C 95 % 1013,9 hPa 0,0 l/m 0,9 km/h (0 Bft) O-SO 107 0 min 0,000 mm 0,0 UV-I 0 W/m 6,2 C 6,9 C 1,6 km/h (1 Bft) 95,74 %
04.05.2017 04:14 7,0 C 13,9 C 95 % 1013,9 hPa 0,0 l/m 0,0 km/h (0 Bft) O-SO 107 0 min 0,000 mm 0,0 UV-I 0 W/m 6,3 C 7,0 C 0,0 km/h (0 Bft) 100,00 %
04.05.2017 04:16 6,9 C 13,9 C 95 % 1013,9 hPa 0,0 l/m 0,0 km/h (0 Bft) O-SO 107 0 min 0,000 mm 0,0 UV-I 0 W/m 6,2 C 6,9 C 0,0 km/h (0 Bft) 97,14 %
04.05.2017 04:18 6,9 C 13,9 C 95 % 1013,9 hPa 0,0 l/m 0,0 km/h (0 Bft) O-SO 107 0 min 0,000 mm 0,0 UV-I 0 W/m 6,2 C 6,9 C 0,0 km/h (0 Bft) 100,00 %
04.05.2017 04:20 6,8 C 13,9 C 95 % 1013,9 hPa 0,0 l/m 1,7 km/h (1 Bft) O-SO 107 0 min 0,000 mm 0,0 UV-I 0 W/m 6,1 C 6,8 C 3,2 km/h (1 Bft) 100,00 %
04.05.2017 04:22 6,8 C 13,9 C 95 % 1013,9 hPa 0,0 l/m 2,8 km/h (1 Bft) O-SO 107 0 min 0,000 mm 0,0 UV-I 0 W/m 6,1 C 6,8 C 4,8 km/h (1 Bft) 100,00 %
04.05.2017 04:24 6,8 C 13,9 C 95 % 1013,9 hPa 0,0 l/m 0,7 km/h (0 Bft) O-SO 107 0 min 0,000 mm 0,0 UV-I 0 W/m 6,1 C 6,8 C 3,2 km/h (1 Bft) 97,87 %
04.05.2017 04:26 6,7 C 13,9 C 95 % 1014,0 hPa 0,0 l/m 0,0 km/h (0 Bft) O-SO 107 0 min 0,000 mm 0,0 UV-I 0 W/m 6,0 C 6,7 C 0,0 km/h (0 Bft) 97,22 %
04.05.2017 04:28 6,6 C 13,9 C 95 % 1013,9 hPa 0,0 l/m 0,4 km/h (0 Bft) O-SO 107 0 min 0,000 mm 0,0 UV-I 0 W/m 5,9 C 6,6 C 1,6 km/h (1 Bft) 98,36 %
04.05.2017 04:30 6,4 C 13,9 C 95 % 1013,9 hPa 0,0 l/m 0,0 km/h (0 Bft) O-SO 107 0 min 0,000 mm 0,0 UV-I 0 W/m 5,7 C 6,4 C 0,0 km/h (0 Bft) 100,00 %
04.05.2017 04:32 6,3 C 13,9 C 95 % 1013,9 hPa 0,0 l/m 0,0 km/h (0 Bft) O-SO 107 0 min 0,000 mm 0,0 UV-I 0 W/m 5,6 C 6,3 C 0,0 km/h (0 Bft) 98,00 %
04.05.2017 04:34 6,3 C 13,9 C 95 % 1013,9 hPa 0,0 l/m 0,0 km/h (0 Bft) O-SO 107 0 min 0,000 mm 0,0 UV-I 0 W/m 5,6 C 6,3 C 0,0 km/h (0 Bft) 95,74 %
04.05.2017 04:36 6,4 C 13,9 C 95 % 1013,9 hPa 0,0 l/m 0,9 km/h (0 Bft) O-SO 107 0 min 0,000 mm 0,0 UV-I 0 W/m 5,7 C 6,4 C 1,6 km/h (1 Bft) 100,00 %
04.05.2017 04:38 6,3 C 13,9 C 95 % 1013,9 hPa 0,0 l/m 1,0 km/h (0 Bft) O-SO 107 0 min 0,000 mm 0,0 UV-I 0 W/m 5,6 C 6,3 C 1,6 km/h (1 Bft) 100,00 %
04.05.2017 04:40 6,3 C 13,9 C 95 % 1014,0 hPa 0,0 l/m 0,1 km/h (0 Bft) O-SO 107 0 min 0,000 mm 0,0 UV-I 0 W/m 5,6 C 6,3 C 1,6 km/h (1 Bft) 100,00 %
04.05.2017 04:42 6,3 C 13,9 C 96 % 1013,9 hPa 0,0 l/m 0,0 km/h (0 Bft) O-SO 107 0 min 0,000 mm 0,0 UV-I 0 W/m 5,7 C 6,3 C 0,0 km/h (0 Bft) 98,11 %
04.05.2017 04:44 6,5 C 13,9 C 96 % 1014,0 hPa 0,0 l/m 0,0 km/h (0 Bft) O-SO 107 0 min 0,000 mm 0,0 UV-I 0 W/m 5,9 C 6,5 C 0,0 km/h (0 Bft) 100,00 %
04.05.2017 04:46 6,6 C 13,9 C 96 % 1014,1 hPa 0,0 l/m 0,0 km/h (0 Bft) O-SO 107 0 min 0,000 mm 0,0 UV-I 0 W/m 6,0 C 6,6 C 0,0 km/h (0 Bft) 98,00 %
04.05.2017 04:48 6,8 C 13,9 C 96 % 1014,0 hPa 0,0 l/m 1,7 km/h (1 Bft) O-SO 107 0 min 0,000 mm 0,0 UV-I 0 W/m 6,2 C 6,8 C 3,2 km/h (1 Bft) 100,00 %
04.05.2017 04:50 6,9 C 13,9 C 96 % 1014,0 hPa 0,0 l/m 1,7 km/h (1 Bft) O-SO 107 0 min 0,000 mm 0,0 UV-I 0 W/m 6,3 C 6,9 C 3,2 km/h (1 Bft) 100,00 %
04.05.2017 04:53 7,0 C 13,9 C 96 % 1014,0 hPa 0,0 l/m 1,8 km/h (1 Bft) O-SO 107 0 min 0,000 mm 0,0 UV-I 0 W/m 6,4 C 7,0 C 3,2 km/h (1 Bft) 97,50 %
04.05.2017 04:54 7,1 C 13,9 C 96 % 1014,1 hPa 0,0 l/m 1,6 km/h (1 Bft) O-SO 107 0 min 0,000 mm 0,0 UV-I 0 W/m 6,5 C 7,1 C 3,2 km/h (1 Bft) 100,00 %
04.05.2017 04:56 7,1 C 13,9 C 96 % 1014,1 hPa 0,0 l/m 2,1 km/h (1 Bft) O-SO 107 0 min 0,000 mm 0,0 UV-I 0 W/m 6,5 C 7,1 C 3,2 km/h (1 Bft) 100,00 %
04.05.2017 04:58 7,0 C 13,9 C 96 % 1014,1 hPa 0,0 l/m 1,7 km/h (1 Bft) O-SO 107 0 min 0,000 mm 0,0 UV-I 0 W/m 6,4 C 7,0 C 3,2 km/h (1 Bft) 98,00 %
04.05.2017 05:00 7,1 C 13,9 C 96 % 1014,1 hPa 0,0 l/m 1,1 km/h (1 Bft) O-SO 107 0 min 0,000 mm 0,0 UV-I 0 W/m 6,5 C 7,1 C 1,6 km/h (1 Bft) 96,00 %
04.05.2017 05:02 7,1 C 13,9 C 96 % 1014,1 hPa 0,0 l/m 0,9 km/h (0 Bft) O-SO 107 0 min 0,000 mm 0,0 UV-I 0 W/m 6,5 C 7,1 C 4,8 km/h (1 Bft) 95,83 %
04.05.2017 05:04 7,2 C 13,9 C 96 % 1014,1 hPa 0,0 l/m 3,8 km/h (1 Bft) O-SO 105 0 min 0,000 mm 0,0 UV-I 0 W/m 6,6 C 7,2 C 6,4 km/h (2 Bft) 93,62 %
04.05.2017 05:06 7,3 C 13,9 C 96 % 1014,2 hPa 0,0 l/m 4,1 km/h (1 Bft) O 97 0 min 0,000 mm 0,0 UV-I 0 W/m 6,7 C 7,3 C 6,4 km/h (2 Bft) 97,44 %
04.05.2017 05:08 7,2 C 13,9 C 96 % 1014,1 hPa 0,0 l/m 2,1 km/h (1 Bft) O 94 0 min 0,000 mm 0,0 UV-I 0 W/m 6,6 C 7,2 C 4,8 km/h (1 Bft) 98,00 %
04.05.2017 05:10 7,1 C 13,9 C 96 % 1014,1 hPa 0,0 l/m 0,5 km/h (0 Bft) O 94 0 min 0,000 mm 0,0 UV-I 0 W/m 6,5 C 7,1 C 3,2 km/h (1 Bft) 95,74 %
04.05.2017 05:12 7,0 C 13,9 C 96 % 1014,1 hPa 0,0 l/m 0,3 km/h (0 Bft) O 94 0 min 0,000 mm 0,0 UV-I 0 W/m 6,4 C 7,0 C 1,6 km/h (1 Bft) 97,62 %
04.05.2017 05:14 7,0 C 13,9 C 96 % 1014,1 hPa 0,0 l/m 0,0 km/h (0 Bft) O 94 0 min 0,000 mm 0,0 UV-I 0 W/m 6,4 C 7,0 C 0,0 km/h (0 Bft) 95,74 %
04.05.2017 05:16 7,0 C 13,9 C 96 % 1014,1 hPa 0,0 l/m 0,0 km/h (0 Bft) O 94 0 min 0,000 mm 0,0 UV-I 0 W/m 6,4 C 7,0 C 0,0 km/h (0 Bft) 94,00 %
04.05.2017 05:18 6,9 C 13,9 C 96 % 1014,2 hPa 0,0 l/m 0,0 km/h (0 Bft) O 94 0 min 0,000 mm 0,0 UV-I 0 W/m 6,3 C 6,9 C 0,0 km/h (0 Bft) 95,74 %
04.05.2017 05:20 6,8 C 13,9 C 96 % 1014,1 hPa 0,0 l/m 0,0 km/h (0 Bft) O 94 0 min 0,000 mm 0,0 UV-I 0 W/m 6,2 C 6,8 C 0,0 km/h (0 Bft) 97,73 %
04.05.2017 05:22 6,9 C 13,9 C 96 % 1014,1 hPa 0,0 l/m 0,8 km/h (0 Bft) O 94 0 min 0,000 mm 0,0 UV-I 0 W/m 6,3 C 6,9 C 3,2 km/h (1 Bft) 98,11 %
04.05.2017 05:24 6,9 C 13,9 C 96 % 1014,1 hPa 0,0 l/m 0,7 km/h (0 Bft) O 94 0 min 0,000 mm 0,0 UV-I 0 W/m 6,3 C 6,9 C 1,6 km/h (1 Bft) 95,74 %
04.05.2017 05:26 6,9 C 13,9 C 96 % 1014,1 hPa 0,0 l/m 0,0 km/h (0 Bft) O 94 0 min 0,000 mm 0,0 UV-I 0 W/m 6,3 C 6,9 C 0,0 km/h (0 Bft) 97,37 %
04.05.2017 05:28 6,9 C 13,9 C 96 % 1014,1 hPa 0,0 l/m 0,0 km/h (0 Bft) O 94 0 min 0,000 mm 0,0 UV-I 0 W/m 6,3 C 6,9 C 0,0 km/h (0 Bft) 96,43 %
04.05.2017 05:30 6,9 C 13,9 C 96 % 1014,1 hPa 0,0 l/m 0,0 km/h (0 Bft) O 94 0 min 0,000 mm 0,0 UV-I 0 W/m 6,3 C 6,9 C 0,0 km/h (0 Bft) 91,49 %
04.05.2017 05:32 6,9 C 13,9 C 96 % 1014,0 hPa 0,0 l/m 0,0 km/h (0 Bft) O 94 0 min 0,000 mm 0,0 UV-I 0 W/m 6,3 C 6,9 C 0,0 km/h (0 Bft) 92,00 %
04.05.2017 05:34 6,9 C 13,9 C 96 % 1014,0 hPa 0,0 l/m 0,0 km/h (0 Bft) O 94 0 min 0,000 mm 0,0 UV-I 4 W/m 6,3 C 6,9 C 0,0 km/h (0 Bft) 95,12 %
04.05.2017 05:36 7,0 C 13,9 C 96 % 1014,0 hPa 0,0 l/m 0,0 km/h (0 Bft) O 94 0 min 0,000 mm 0,0 UV-I 5 W/m 6,4 C 7,0 C 0,0 km/h (0 Bft) 95,74 %
04.05.2017 05:38 7,0 C 13,9 C 96 % 1014,1 hPa 0,0 l/m 0,0 km/h (0 Bft) O 94 0 min 0,000 mm 0,0 UV-I 5 W/m 6,4 C 7,0 C 0,0 km/h (0 Bft) 98,00 %
04.05.2017 05:40 7,0 C 13,9 C 96 % 1014,0 hPa 0,0 l/m 0,0 km/h (0 Bft) O 94 0 min 0,000 mm 0,0 UV-I 5 W/m 6,4 C 7,0 C 0,0 km/h (0 Bft) 97,44 %
04.05.2017 05:42 6,9 C 13,9 C 96 % 1014,0 hPa 0,0 l/m 0,0 km/h (0 Bft) O 94 0 min 0,000 mm 0,0 UV-I 5 W/m 6,3 C 6,9 C 0,0 km/h (0 Bft) 98,00 %
04.05.2017 05:44 6,8 C 13,9 C 96 % 1014,0 hPa 0,0 l/m 0,0 km/h (0 Bft) O 94 0 min 0,000 mm 0,0 UV-I 5 W/m 6,2 C 6,8 C 0,0 km/h (0 Bft) 97,87 %
04.05.2017 05:46 6,8 C 13,9 C 96 % 1014,1 hPa 0,0 l/m 0,0 km/h (0 Bft) O 94 0 min 0,000 mm 0,0 UV-I 7 W/m 6,2 C 6,8 C 0,0 km/h (0 Bft) 98,00 %
04.05.2017 05:48 6,7 C 13,9 C 96 % 1014,1 hPa 0,0 l/m 0,0 km/h (0 Bft) O 94 0 min 0,000 mm 0,0 UV-I 7 W/m 6,1 C 6,7 C 0,0 km/h (0 Bft) 97,87 %
04.05.2017 05:50 6,7 C 13,9 C 96 % 1014,0 hPa 0,0 l/m 0,0 km/h (0 Bft) O 94 0 min 0,000 mm 0,0 UV-I 7 W/m 6,1 C 6,7 C 0,0 km/h (0 Bft) 97,56 %
04.05.2017 05:52 6,6 C 13,9 C 96 % 1014,0 hPa 0,0 l/m 0,0 km/h (0 Bft) O 94 0 min 0,000 mm 0,0 UV-I 7 W/m 6,0 C 6,6 C 0,0 km/h (0 Bft) 97,87 %
04.05.2017 05:54 6,6 C 13,9 C 96 % 1014,1 hPa 0,0 l/m 0,0 km/h (0 Bft) O 94 0 min 0,000 mm 0,0 UV-I 9 W/m 6,0 C 6,6 C 0,0 km/h (0 Bft) 96,23 %
04.05.2017 05:56 6,6 C 13,9 C 96 % 1014,1 hPa 0,0 l/m 0,0 km/h (0 Bft) O 94 0 min 0,000 mm 0,0 UV-I 9 W/m 6,0 C 6,6 C 0,0 km/h (0 Bft) 97,87 %
04.05.2017 05:58 6,6 C 13,9 C 96 % 1014,1 hPa 0,0 l/m 0,0 km/h (0 Bft) O 94 0 min 0,000 mm 0,0 UV-I 10 W/m 6,0 C 6,6 C 0,0 km/h (0 Bft) 97,87 %
04.05.2017 06:00 6,5 C 13,9 C 96 % 1014,1 hPa 0,0 l/m 0,0 km/h (0 Bft) O 94 0 min 0,000 mm 0,0 UV-I 11 W/m 5,9 C 6,5 C 0,0 km/h (0 Bft) 98,00 %
04.05.2017 06:02 6,5 C 13,9 C 96 % 1014,0 hPa 0,0 l/m 0,0 km/h (0 Bft) O 94 0 min 0,000 mm 0,0 UV-I 11 W/m 5,9 C 6,5 C 0,0 km/h (0 Bft) 97,37 %
04.05.2017 06:04 6,5 C 13,9 C 96 % 1014,1 hPa 0,0 l/m 0,0 km/h (0 Bft) O 94 0 min 0,000 mm 0,0 UV-I 11 W/m 5,9 C 6,5 C 0,0 km/h (0 Bft) 95,74 %
04.05.2017 06:06 6,4 C 13,9 C 96 % 1014,1 hPa 0,0 l/m 0,0 km/h (0 Bft) O 94 0 min 0,000 mm 0,0 UV-I 12 W/m 5,8 C 6,4 C 0,0 km/h (0 Bft) 96,00 %
04.05.2017 06:08 6,4 C 13,9 C 96 % 1014,0 hPa 0,0 l/m 0,0 km/h (0 Bft) O 94 0 min 0,000 mm 0,0 UV-I 14 W/m 5,8 C 6,4 C 0,0 km/h (0 Bft) 98,00 %
04.05.2017 06:10 6,4 C 13,9 C 96 % 1014,0 hPa 0,0 l/m 0,0 km/h (0 Bft) O 94 0 min 0,000 mm 0,0 UV-I 17 W/m 5,8 C 6,4 C 0,0 km/h (0 Bft) 97,56 %
04.05.2017 06:12 6,5 C 13,9 C 96 % 1014,0 hPa 0,0 l/m 0,0 km/h (0 Bft) O 94 0 min 0,000 mm 0,0 UV-I 19 W/m 5,9 C 6,5 C 0,0 km/h (0 Bft) 93,62 %
04.05.2017 06:14 6,5 C 13,9 C 96 % 1014,0 hPa 0,0 l/m 1,2 km/h (1 Bft) O 94 0 min 0,000 mm 0,0 UV-I 25 W/m 5,9 C 6,5 C 3,2 km/h (1 Bft) 97,73 %
04.05.2017 06:16 6,6 C 13,9 C 96 % 1014,0 hPa 0,0 l/m 1,6 km/h (1 Bft) O 94 0 min 0,000 mm 0,0 UV-I 25 W/m 6,0 C 6,6 C 3,2 km/h (1 Bft) 97,87 %
04.05.2017 06:18 6,6 C 13,9 C 96 % 1014,1 hPa 0,0 l/m 0,1 km/h (0 Bft) O 94 0 min 0,000 mm 0,0 UV-I 29 W/m 6,0 C 6,6 C 1,6 km/h (1 Bft) 94,34 %
04.05.2017 06:20 6,6 C 13,9 C 96 % 1014,1 hPa 0,0 l/m 0,0 km/h (0 Bft) O 94 0 min 0,000 mm 0,0 UV-I 35 W/m 6,0 C 6,6 C 0,0 km/h (0 Bft) 98,00 %
04.05.2017 06:22 6,5 C 13,9 C 96 % 1014,1 hPa 0,0 l/m 0,0 km/h (0 Bft) O 94 0 min 0,000 mm 0,0 UV-I 36 W/m 5,9 C 6,5 C 0,0 km/h (0 Bft) 95,74 %
04.05.2017 06:24 6,4 C 13,9 C 96 % 1014,1 hPa 0,0 l/m 0,0 km/h (0 Bft) O 94 0 min 0,000 mm 0,0 UV-I 33 W/m 5,8 C 6,4 C 0,0 km/h (0 Bft) 93,62 %
04.05.2017 06:26 6,4 C 13,9 C 96 % 1014,1 hPa 0,0 l/m 0,0 km/h (0 Bft) O 94 0 min 0,000 mm 0,0 UV-I 30 W/m 5,8 C 6,4 C 0,0 km/h (0 Bft) 95,74 %
04.05.2017 06:28 6,4 C 13,9 C 96 % 1014,1 hPa 0,0 l/m 0,0 km/h (0 Bft) O 94 0 min 0,000 mm 0,0 UV-I 30 W/m 5,8 C 6,4 C 0,0 km/h (0 Bft) 97,62 %
04.05.2017 06:30 6,4 C 13,9 C 96 % 1014,1 hPa 0,0 l/m 0,0 km/h (0 Bft) O 94 0 min 0,000 mm 0,0 UV-I 32 W/m 5,8 C 6,4 C 0,0 km/h (0 Bft) 98,00 %
04.05.2017 06:32 6,5 C 13,9 C 96 % 1014,1 hPa 0,0 l/m 0,0 km/h (0 Bft) O 94 0 min 0,000 mm 0,0 UV-I 33 W/m 5,9 C 6,5 C 0,0 km/h (0 Bft) 97,37 %
04.05.2017 06:34 6,5 C 13,9 C 96 % 1014,1 hPa 0,0 l/m 0,0 km/h (0 Bft) O 94 0 min 0,000 mm 0,0 UV-I 36 W/m 5,9 C 6,5 C 0,0 km/h (0 Bft) 100,00 %
04.05.2017 06:36 6,6 C 13,9 C 96 % 1014,1 hPa 0,0 l/m 0,0 km/h (0 Bft) O 94 0 min 0,000 mm 0,0 UV-I 47 W/m 6,0 C 6,6 C 0,0 km/h (0 Bft) 96,00 %
04.05.2017 06:38 6,6 C 13,9 C 96 % 1014,1 hPa 0,0 l/m 0,0 km/h (0 Bft) O 94 0 min 0,000 mm 0,0 UV-I 68 W/m 6,0 C 6,6 C 0,0 km/h (0 Bft) 100,00 %
04.05.2017 06:40 6,6 C 13,9 C 96 % 1014,1 hPa 0,0 l/m 0,0 km/h (0 Bft) O 94 0 min 0,000 mm 0,0 UV-I 78 W/m 6,0 C 6,6 C 0,0 km/h (0 Bft) 100,00 %
04.05.2017 06:42 6,6 C 13,9 C 96 % 1014,2 hPa 0,0 l/m 0,0 km/h (0 Bft) O 94 2 min 0,000 mm 0,0 UV-I 89 W/m 6,0 C 6,6 C 0,0 km/h (0 Bft) 100,00 %
04.05.2017 06:44 6,6 C 13,9 C 96 % 1014,2 hPa 0,0 l/m 0,0 km/h (0 Bft) O 94 2 min 0,000 mm 0,0 UV-I 99 W/m 6,0 C 6,6 C 0,0 km/h (0 Bft) 98,00 %
04.05.2017 06:46 6,6 C 13,9 C 96 % 1014,1 hPa 0,0 l/m 0,0 km/h (0 Bft) O 94 2 min 0,000 mm 0,0 UV-I 110 W/m 6,0 C 6,6 C 0,0 km/h (0 Bft) 95,74 %
04.05.2017 06:48 6,7 C 13,9 C 96 % 1014,1 hPa 0,0 l/m 0,0 km/h (0 Bft) O 94 2 min 0,000 mm 0,0 UV-I 118 W/m 6,1 C 6,7 C 0,0 km/h (0 Bft) 100,00 %
04.05.2017 06:50 6,8 C 13,9 C 96 % 1014,1 hPa 0,0 l/m 0,0 km/h (0 Bft) O 94 2 min 0,000 mm 0,0 UV-I 127 W/m 6,2 C 6,8 C 0,0 km/h (0 Bft) 96,00 %
04.05.2017 06:52 6,9 C 13,9 C 96 % 1014,1 hPa 0,0 l/m 0,0 km/h (0 Bft) O 94 2 min 0,000 mm 0,0 UV-I 124 W/m 6,3 C 6,9 C 0,0 km/h (0 Bft) 96,23 %
04.05.2017 06:54 7,0 C 13,9 C 96 % 1014,0 hPa 0,0 l/m 0,0 km/h (0 Bft) O 94 2 min 0,000 mm 0,0 UV-I 127 W/m 6,4 C 7,0 C 0,0 km/h (0 Bft) 95,74 %
04.05.2017 06:56 7,1 C 13,9 C 96 % 1014,0 hPa 0,0 l/m 0,0 km/h (0 Bft) O 94 2 min 0,000 mm 0,0 UV-I 118 W/m 6,5 C 7,1 C 0,0 km/h (0 Bft) 100,00 %
04.05.2017 06:58 7,3 C 13,9 C 96 % 1014,0 hPa 0,0 l/m 0,0 km/h (0 Bft) O 94 2 min 0,000 mm 0,0 UV-I 128 W/m 6,7 C 7,3 C 0,0 km/h (0 Bft) 100,00 %
04.05.2017 07:00 7,3 C 13,9 C 96 % 1014,0 hPa 0,0 l/m 0,0 km/h (0 Bft) O 94 2 min 0,025 mm 0,0 UV-I 136 W/m 6,7 C 7,3 C 0,0 km/h (0 Bft) 97,22 %
04.05.2017 07:02 7,4 C 13,9 C 96 % 1014,0 hPa 0,0 l/m 0,0 km/h (0 Bft) O 94 2 min 0,000 mm 0,0 UV-I 138 W/m 6,8 C 7,4 C 1,6 km/h (1 Bft) 100,00 %
04.05.2017 07:04 7,4 C 13,9 C 96 % 1014,0 hPa 0,0 l/m 0,0 km/h (0 Bft) O 94 2 min 0,000 mm 0,0 UV-I 144 W/m 6,8 C 7,4 C 0,0 km/h (0 Bft) 96,00 %
04.05.2017 07:06 7,4 C 13,9 C 96 % 1014,0 hPa 0,0 l/m 0,0 km/h (0 Bft) O 94 2 min 0,000 mm 0,0 UV-I 134 W/m 6,8 C 7,4 C 1,6 km/h (1 Bft) 97,87 %
04.05.2017 07:08 7,4 C 13,9 C 96 % 1013,9 hPa 0,0 l/m 0,2 km/h (0 Bft) O 94 0 min 0,000 mm 0,0 UV-I 118 W/m 6,8 C 7,4 C 1,6 km/h (1 Bft) 95,00 %
04.05.2017 07:10 7,4 C 13,9 C 96 % 1013,9 hPa 0,0 l/m 0,0 km/h (0 Bft) O 94 0 min 0,000 mm 0,0 UV-I 123 W/m 6,8 C 7,4 C 0,0 km/h (0 Bft) 97,87 %
04.05.2017 07:12 7,4 C 13,9 C 96 % 1013,9 hPa 0,0 l/m 0,0 km/h (0 Bft) O 94 2 min 0,000 mm 0,0 UV-I 140 W/m 6,8 C 7,4 C 0,0 km/h (0 Bft) 98,00 %
04.05.2017 07:14 7,4 C 13,9 C 96 % 1014,0 hPa 0,0 l/m 0,0 km/h (0 Bft) O 94 2 min 0,000 mm 0,0 UV-I 152 W/m 6,8 C 7,4 C 0,0 km/h (0 Bft) 92,45 %
04.05.2017 07:16 7,5 C 13,9 C 96 % 1014,0 hPa 0,0 l/m 0,0 km/h (0 Bft) O 94 2 min 0,000 mm 0,0 UV-I 155 W/m 6,9 C 7,5 C 0,0 km/h (0 Bft) 97,56 %
04.05.2017 07:18 7,6 C 13,9 C 96 % 1014,0 hPa 0,0 l/m 0,0 km/h (0 Bft) O 94 2 min 0,000 mm 0,0 UV-I 174 W/m 7,0 C 7,6 C 0,0 km/h (0 Bft) 97,87 %
04.05.2017 07:20 7,7 C 13,9 C 96 % 1014,0 hPa 0,0 l/m 0,0 km/h (0 Bft) O 94 2 min 0,000 mm 0,0 UV-I 172 W/m 7,1 C 7,7 C 0,0 km/h (0 Bft) 98,00 %
04.05.2017 07:22 7,8 C 13,9 C 96 % 1014,0 hPa 0,0 l/m 0,0 km/h (0 Bft) O 94 2 min 0,000 mm 0,0 UV-I 168 W/m 7,2 C 7,8 C 0,0 km/h (0 Bft) 97,87 %
04.05.2017 07:24 8,0 C 13,9 C 97 % 1013,9 hPa 0,0 l/m 0,0 km/h (0 Bft) O 94 2 min 0,000 mm 0,0 UV-I 164 W/m 7,6 C 8,0 C 0,0 km/h (0 Bft) 97,87 %
04.05.2017 07:26 8,1 C 13,9 C 96 % 1013,9 hPa 0,0 l/m 0,3 km/h (0 Bft) O 94 2 min 0,000 mm 0,0 UV-I 169 W/m 7,5 C 8,1 C 1,6 km/h (1 Bft) 94,00 %
04.05.2017 07:28 8,3 C 13,9 C 96 % 1013,9 hPa 0,0 l/m 2,2 km/h (1 Bft) O 94 2 min 0,000 mm 0,0 UV-I 189 W/m 7,7 C 8,3 C 4,8 km/h (1 Bft) 96,15 %
04.05.2017 07:30 8,4 C 13,9 C 96 % 1013,9 hPa 0,0 l/m 1,4 km/h (1 Bft) O 94 2 min 0,000 mm 0,0 UV-I 193 W/m 7,8 C 8,4 C 3,2 km/h (1 Bft) 95,16 %
04.05.2017 07:32 8,6 C 13,9 C 96 % 1013,9 hPa 0,0 l/m 0,9 km/h (0 Bft) O 94 2 min 0,000 mm 0,0 UV-I 192 W/m 8,0 C 8,6 C 3,2 km/h (1 Bft) 91,49 %
04.05.2017 07:34 8,6 C 13,9 C 96 % 1013,9 hPa 0,0 l/m 0,5 km/h (0 Bft) O 94 2 min 0,000 mm 0,0 UV-I 188 W/m 8,0 C 8,6 C 3,2 km/h (1 Bft) 97,87 %
04.05.2017 07:36 8,6 C 13,9 C 96 % 1013,9 hPa 0,0 l/m 1,9 km/h (1 Bft) O 94 2 min 0,000 mm 0,0 UV-I 168 W/m 8,0 C 8,6 C 3,2 km/h (1 Bft) 97,87 %
04.05.2017 07:38 8,6 C 13,9 C 95 % 1013,9 hPa 0,0 l/m 3,5 km/h (1 Bft) O 94 0 min 0,000 mm 0,0 UV-I 168 W/m 7,8 C 8,6 C 6,4 km/h (2 Bft) 97,44 %
04.05.2017 07:40 8,6 C 13,9 C 95 % 1013,9 hPa 0,0 l/m 2,4 km/h (1 Bft) O 94 2 min 0,000 mm 0,0 UV-I 186 W/m 7,8 C 8,6 C 4,8 km/h (1 Bft) 97,37 %
04.05.2017 07:42 8,6 C 13,9 C 95 % 1013,9 hPa 0,0 l/m 3,1 km/h (1 Bft) O-NO 75 2 min 0,000 mm 0,0 UV-I 204 W/m 7,8 C 8,6 C 6,4 km/h (2 Bft) 98,31 %
04.05.2017 07:44 8,7 C 13,9 C 95 % 1013,9 hPa 0,0 l/m 4,4 km/h (1 Bft) O-NO 65 2 min 0,000 mm 0,0 UV-I 217 W/m 7,9 C 8,7 C 6,4 km/h (2 Bft) 98,11 %
04.05.2017 07:46 8,7 C 13,9 C 95 % 1013,9 hPa 0,0 l/m 4,5 km/h (1 Bft) O-NO 64 2 min 0,000 mm 0,0 UV-I 231 W/m 7,9 C 8,7 C 6,4 km/h (2 Bft) 92,68 %
04.05.2017 07:48 8,8 C 13,9 C 94 % 1013,8 hPa 0,0 l/m 3,9 km/h (1 Bft) O-NO 69 2 min 0,000 mm 0,0 UV-I 242 W/m 7,9 C 8,8 C 6,4 km/h (2 Bft) 98,11 %
04.05.2017 07:50 8,9 C 13,9 C 95 % 1013,8 hPa 0,0 l/m 4,3 km/h (1 Bft) O-NO 68 2 min 0,000 mm 0,0 UV-I 250 W/m 8,1 C 8,9 C 6,4 km/h (2 Bft) 100,00 %
04.05.2017 07:52 9,1 C 13,9 C 94 % 1013,8 hPa 0,0 l/m 4,9 km/h (1 Bft) O-NO 65 2 min 0,000 mm 0,1 UV-I 252 W/m 8,2 C 9,1 C 6,4 km/h (2 Bft) 100,00 %
04.05.2017 07:54 9,1 C 13,9 C 94 % 1013,8 hPa 0,0 l/m 4,5 km/h (1 Bft) O-NO 61 2 min 0,000 mm 0,5 UV-I 259 W/m 8,2 C 9,1 C 6,4 km/h (2 Bft) 100,00 %
04.05.2017 07:56 9,2 C 13,9 C 94 % 1013,8 hPa 0,0 l/m 4,5 km/h (1 Bft) O-NO 57 2 min 0,000 mm 0,5 UV-I 267 W/m 8,3 C 9,2 C 6,4 km/h (2 Bft) 100,00 %
04.05.2017 07:58 9,2 C 13,9 C 94 % 1013,8 hPa 0,0 l/m 4,2 km/h (1 Bft) NO 51 2 min 0,000 mm 0,5 UV-I 273 W/m 8,3 C 9,2 C 8,0 km/h (2 Bft) 100,00 %
04.05.2017 08:00 9,2 C 13,9 C 93 % 1013,8 hPa 0,0 l/m 5,3 km/h (1 Bft) NO 55 2 min 0,077 mm 0,5 UV-I 282 W/m 8,1 C 9,2 C 6,4 km/h (2 Bft) 100,00 %
04.05.2017 08:02 9,2 C 13,9 C 93 % 1013,8 hPa 0,0 l/m 4,4 km/h (1 Bft) NO 56 2 min 0,000 mm 0,5 UV-I 277 W/m 8,1 C 9,2 C 6,4 km/h (2 Bft) 97,87 %
04.05.2017 08:04 9,3 C 13,9 C 93 % 1013,8 hPa 0,0 l/m 4,7 km/h (1 Bft) NO 56 2 min 0,000 mm 0,5 UV-I 271 W/m 8,2 C 9,3 C 6,4 km/h (2 Bft) 96,00 %
04.05.2017 08:06 9,3 C 13,9 C 93 % 1013,9 hPa 0,0 l/m 5,4 km/h (1 Bft) NO 56 2 min 0,000 mm 0,5 UV-I 267 W/m 8,2 C 9,3 C 6,4 km/h (2 Bft) 97,56 %
04.05.2017 08:08 9,4 C 13,9 C 93 % 1013,8 hPa 0,0 l/m 4,4 km/h (1 Bft) NO 56 2 min 0,000 mm 0,6 UV-I 257 W/m 8,3 C 9,4 C 6,4 km/h (2 Bft) 95,74 %
04.05.2017 08:10 9,3 C 13,9 C 92 % 1013,8 hPa 0,0 l/m 5,8 km/h (2 Bft) O-NO 58 0 min 0,000 mm 0,6 UV-I 210 W/m 8,1 C 9,3 C 8,0 km/h (2 Bft) 98,00 %
04.05.2017 08:12 9,3 C 13,9 C 92 % 1013,7 hPa 0,0 l/m 5,5 km/h (1 Bft) O-NO 58 0 min 0,000 mm 0,6 UV-I 213 W/m 8,1 C 9,3 C 6,4 km/h (2 Bft) 100,00 %
04.05.2017 08:14 9,4 C 13,9 C 93 % 1013,7 hPa 0,0 l/m 4,4 km/h (1 Bft) O-NO 58 2 min 0,000 mm 0,6 UV-I 296 W/m 8,3 C 9,4 C 6,4 km/h (2 Bft) 100,00 %
04.05.2017 08:16 9,6 C 13,9 C 93 % 1013,8 hPa 0,0 l/m 4,4 km/h (1 Bft) O-NO 58 2 min 0,000 mm 0,7 UV-I 314 W/m 8,5 C 9,6 C 6,4 km/h (2 Bft) 96,23 %
04.05.2017 08:18 9,6 C 13,9 C 92 % 1013,7 hPa 0,0 l/m 5,8 km/h (2 Bft) O-NO 68 2 min 0,000 mm 0,7 UV-I 335 W/m 8,4 C 9,6 C 8,0 km/h (2 Bft) 96,30 %
04.05.2017 08:20 9,6 C 13,9 C 92 % 1013,7 hPa 0,0 l/m 5,7 km/h (1 Bft) O-NO 65 2 min 0,000 mm 0,7 UV-I 345 W/m 8,4 C 9,6 C 8,0 km/h (2 Bft) 98,44 %
04.05.2017 08:22 9,6 C 13,9 C 91 % 1013,7 hPa 0,0 l/m 4,8 km/h (1 Bft) O-NO 65 2 min 0,000 mm 0,7 UV-I 341 W/m 8,2 C 9,6 C 6,4 km/h (2 Bft) 100,00 %
04.05.2017 08:24 9,6 C 13,9 C 91 % 1013,7 hPa 0,0 l/m 3,0 km/h (1 Bft) O-NO 65 2 min 0,000 mm 0,8 UV-I 355 W/m 8,2 C 9,6 C 4,8 km/h (1 Bft) 92,86 %
04.05.2017 08:26 9,7 C 13,9 C 91 % 1013,7 hPa 0,0 l/m 3,6 km/h (1 Bft) O-NO 65 2 min 0,000 mm 0,8 UV-I 373 W/m 8,3 C 9,7 C 6,4 km/h (2 Bft) 98,00 %
04.05.2017 08:28 9,9 C 13,9 C 91 % 1013,7 hPa 0,0 l/m 3,0 km/h (1 Bft) O-NO 65 2 min 0,000 mm 0,8 UV-I 383 W/m 8,5 C 9,9 C 4,8 km/h (1 Bft) 100,00 %
04.05.2017 08:30 10,2 C 13,9 C 91 % 1013,7 hPa 0,0 l/m 2,3 km/h (1 Bft) O-NO 65 2 min 0,000 mm 0,8 UV-I 389 W/m 8,8 C 10,2 C 4,8 km/h (1 Bft) 100,00 %
04.05.2017 08:32 10,2 C 13,9 C 90 % 1013,7 hPa 0,0 l/m 3,4 km/h (1 Bft) O-NO 65 2 min 0,000 mm 0,9 UV-I 397 W/m 8,6 C 10,2 C 6,4 km/h (2 Bft) 98,21 %
04.05.2017 08:34 10,3 C 13,9 C 89 % 1013,7 hPa 0,0 l/m 4,7 km/h (1 Bft) O-NO 65 2 min 0,000 mm 0,9 UV-I 403 W/m 8,6 C 10,3 C 6,4 km/h (2 Bft) 95,74 %
04.05.2017 08:36 10,3 C 13,9 C 88 % 1013,6 hPa 0,0 l/m 5,2 km/h (1 Bft) NO 55 2 min 0,000 mm 0,9 UV-I 404 W/m 8,4 C 10,3 C 8,0 km/h (2 Bft) 98,00 %
04.05.2017 08:38 10,4 C 13,9 C 89 % 1013,6 hPa 0,0 l/m 1,1 km/h (1 Bft) NO 53 2 min 0,000 mm 0,9 UV-I 410 W/m 8,7 C 10,4 C 3,2 km/h (1 Bft) 100,00 %
04.05.2017 08:40 10,4 C 13,9 C 88 % 1013,7 hPa 0,0 l/m 1,8 km/h (1 Bft) NO 53 2 min 0,000 mm 1,0 UV-I 424 W/m 8,5 C 10,4 C 6,4 km/h (2 Bft) 98,11 %
04.05.2017 08:42 10,6 C 13,9 C 89 % 1013,6 hPa 0,0 l/m 5,7 km/h (1 Bft) NO 53 2 min 0,000 mm 1,0 UV-I 431 W/m 8,9 C 10,6 C 8,0 km/h (2 Bft) 89,36 %
04.05.2017 08:44 10,7 C 13,9 C 89 % 1013,6 hPa 0,0 l/m 6,4 km/h (2 Bft) NO 53 2 min 0,000 mm 1,0 UV-I 434 W/m 9,0 C 10,7 C 8,0 km/h (2 Bft) 95,45 %
04.05.2017 08:46 10,8 C 13,9 C 88 % 1013,7 hPa 0,0 l/m 5,9 km/h (2 Bft) NO 52 2 min 0,000 mm 1,0 UV-I 432 W/m 8,9 C 10,8 C 8,0 km/h (2 Bft) 92,45 %
04.05.2017 08:48 10,8 C 13,9 C 87 % 1013,6 hPa 0,0 l/m 5,2 km/h (1 Bft) NO 51 2 min 0,000 mm 1,0 UV-I 440 W/m 8,7 C 10,8 C 8,0 km/h (2 Bft) 95,74 %
04.05.2017 08:50 10,9 C 13,9 C 88 % 1013,6 hPa 0,0 l/m 4,6 km/h (1 Bft) NO 51 2 min 0,000 mm 1,1 UV-I 459 W/m 9,0 C 10,9 C 8,0 km/h (2 Bft) 94,74 %
04.05.2017 08:52 11,1 C 13,9 C 88 % 1013,5 hPa 0,0 l/m 5,8 km/h (2 Bft) NO 49 2 min 0,000 mm 1,1 UV-I 469 W/m 9,2 C 11,1 C 8,0 km/h (2 Bft) 95,83 %
04.05.2017 08:54 11,1 C 13,9 C 88 % 1013,4 hPa 0,0 l/m 5,3 km/h (1 Bft) O-NO 62 2 min 0,000 mm 1,1 UV-I 478 W/m 9,2 C 11,1 C 8,0 km/h (2 Bft) 91,30 %
04.05.2017 08:56 11,1 C 13,9 C 87 % 1013,4 hPa 0,0 l/m 4,2 km/h (1 Bft) O-NO 61 2 min 0,000 mm 1,2 UV-I 489 W/m 9,0 C 11,1 C 6,4 km/h (2 Bft) 97,87 %
04.05.2017 08:58 11,2 C 13,9 C 88 % 1013,4 hPa 0,0 l/m 3,7 km/h (1 Bft) NO 55 2 min 0,000 mm 1,2 UV-I 495 W/m 9,3 C 11,2 C 8,0 km/h (2 Bft) 96,43 %
04.05.2017 09:00 11,3 C 14,4 C 87 % 1013,4 hPa 0,0 l/m 6,1 km/h (2 Bft) NO 55 2 min 0,177 mm 1,2 UV-I 499 W/m 9,2 C 11,3 C 9,7 km/h (2 Bft) 96,30 %
04.05.2017 09:02 11,3 C 14,4 C 87 % 1013,4 hPa 0,0 l/m 5,4 km/h (1 Bft) O-NO 68 2 min 0,000 mm 1,3 UV-I 506 W/m 9,2 C 11,3 C 8,0 km/h (2 Bft) 96,77 %
04.05.2017 09:04 11,4 C 14,4 C 86 % 1013,4 hPa 0,0 l/m 7,4 km/h (2 Bft) NO 39 2 min 0,000 mm 1,3 UV-I 507 W/m 9,1 C 10,7 C 9,7 km/h (2 Bft) 88,00 %
04.05.2017 09:06 11,3 C 14,4 C 85 % 1013,4 hPa 0,0 l/m 9,1 km/h (2 Bft) O-NO 64 2 min 0,000 mm 1,3 UV-I 511 W/m 8,9 C 9,5 C 12,9 km/h (3 Bft) 94,29 %
04.05.2017 09:08 11,3 C 13,9 C 86 % 1013,4 hPa 0,0 l/m 8,4 km/h (2 Bft) O-NO 61 2 min 0,000 mm 1,3 UV-I 524 W/m 9,0 C 10,0 C 11,3 km/h (2 Bft) 93,22 %
04.05.2017 09:10 11,3 C 13,9 C 86 % 1013,3 hPa 0,0 l/m 7,5 km/h (2 Bft) NO 53 2 min 0,000 mm 1,3 UV-I 520 W/m 9,0 C 10,5 C 11,3 km/h (2 Bft) 89,47 %
04.05.2017 09:12 11,3 C 13,9 C 86 % 1013,3 hPa 0,0 l/m 7,2 km/h (2 Bft) O-NO 58 2 min 0,000 mm 1,3 UV-I 528 W/m 9,0 C 10,8 C 11,3 km/h (2 Bft) 90,00 %
04.05.2017 09:14 11,3 C 13,9 C 85 % 1013,3 hPa 0,0 l/m 5,1 km/h (1 Bft) NO 40 2 min 0,000 mm 1,4 UV-I 528 W/m 8,9 C 11,3 C 8,0 km/h (2 Bft) 92,45 %
04.05.2017 09:16 11,4 C 13,9 C 87 % 1013,3 hPa 0,0 l/m 6,6 km/h (2 Bft) NO 41 2 min 0,000 mm 1,4 UV-I 551 W/m 9,3 C 11,3 C 11,3 km/h (2 Bft) 95,12 %
04.05.2017 09:18 11,6 C 14,4 C 86 % 1013,2 hPa 0,0 l/m 5,7 km/h (1 Bft) NO 54 2 min 0,000 mm 1,4 UV-I 536 W/m 9,3 C 11,6 C 8,0 km/h (2 Bft) 95,74 %
04.05.2017 09:20 11,6 C 14,4 C 86 % 1013,2 hPa 0,0 l/m 2,5 km/h (1 Bft) NO 46 2 min 0,000 mm 1,5 UV-I 550 W/m 9,3 C 11,6 C 4,8 km/h (1 Bft) 92,45 %
04.05.2017 09:22 11,6 C 14,4 C 86 % 1013,2 hPa 0,0 l/m 4,8 km/h (1 Bft) NO 36 2 min 0,000 mm 1,5 UV-I 564 W/m 9,3 C 11,6 C 8,0 km/h (2 Bft) 95,74 %
04.05.2017 09:24 11,7 C 14,4 C 86 % 1013,2 hPa 0,0 l/m 6,3 km/h (2 Bft) O-NO 61 2 min 0,000 mm 1,5 UV-I 573 W/m 9,4 C 11,7 C 8,0 km/h (2 Bft) 92,11 %
04.05.2017 09:26 11,8 C 14,4 C 85 % 1013,1 hPa 0,0 l/m 6,7 km/h (2 Bft) NO 42 2 min 0,000 mm 1,6 UV-I 578 W/m 9,4 C 11,6 C 9,7 km/h (2 Bft) 96,00 %
04.05.2017 09:28 11,9 C 14,4 C 83 % 1013,1 hPa 0,0 l/m 5,0 km/h (1 Bft) O-NO 76 2 min 0,000 mm 1,6 UV-I 587 W/m 9,1 C 11,9 C 6,4 km/h (2 Bft) 94,00 %
04.05.2017 09:30 11,8 C 14,4 C 83 % 1013,1 hPa 0,0 l/m 3,4 km/h (1 Bft) NO 56 2 min 0,000 mm 1,6 UV-I 575 W/m 9,0 C 11,8 C 6,4 km/h (2 Bft) 96,00 %
04.05.2017 09:32 11,9 C 14,4 C 84 % 1013,1 hPa 0,0 l/m 4,2 km/h (1 Bft) O-NO 63 2 min 0,000 mm 1,6 UV-I 559 W/m 9,3 C 11,9 C 6,4 km/h (2 Bft) 91,43 %
04.05.2017 09:34 11,9 C 14,4 C 82 % 1013,0 hPa 0,0 l/m 2,2 km/h (1 Bft) O-NO 63 2 min 0,000 mm 1,7 UV-I 585 W/m 8,9 C 11,9 C 4,8 km/h (1 Bft) 95,74 %
04.05.2017 09:36 11,9 C 14,4 C 82 % 1013,0 hPa 0,0 l/m 4,2 km/h (1 Bft) NO 41 2 min 0,000 mm 1,7 UV-I 548 W/m 8,9 C 11,9 C 6,4 km/h (2 Bft) 96,23 %
04.05.2017 09:38 12,1 C 14,4 C 83 % 1013,0 hPa 0,0 l/m 4,5 km/h (1 Bft) NO 40 2 min 0,000 mm 1,8 UV-I 610 W/m 9,3 C 12,1 C 8,0 km/h (2 Bft) 98,00 %
04.05.2017 09:40 12,2 C 14,4 C 82 % 1013,0 hPa 0,0 l/m 2,4 km/h (1 Bft) NO 49 2 min 0,000 mm 1,8 UV-I 604 W/m 9,2 C 12,2 C 4,8 km/h (1 Bft) 97,62 %
04.05.2017 09:42 12,1 C 14,4 C 81 % 1013,0 hPa 0,0 l/m 3,6 km/h (1 Bft) NO 46 2 min 0,000 mm 1,8 UV-I 616 W/m 8,9 C 12,1 C 6,4 km/h (2 Bft) 97,87 %
04.05.2017 09:44 12,2 C 14,4 C 84 % 1013,0 hPa 0,0 l/m 3,7 km/h (1 Bft) NO 44 2 min 0,000 mm 1,9 UV-I 614 W/m 9,6 C 12,2 C 6,4 km/h (2 Bft) 98,11 %
04.05.2017 09:46 12,4 C 14,4 C 81 % 1012,9 hPa 0,0 l/m 1,0 km/h (0 Bft) NO 44 2 min 0,000 mm 1,9 UV-I 628 W/m 9,2 C 12,4 C 8,0 km/h (2 Bft) 100,00 %
04.05.2017 09:48 12,7 C 14,4 C 83 % 1012,9 hPa 0,0 l/m 4,2 km/h (1 Bft) NO 45 2 min 0,000 mm 2,0 UV-I 635 W/m 9,9 C 12,7 C 6,4 km/h (2 Bft) 100,00 %
04.05.2017 09:50 12,8 C 14,4 C 80 % 1012,9 hPa 0,0 l/m 2,2 km/h (1 Bft) NO 44 2 min 0,000 mm 2,0 UV-I 638 W/m 9,4 C 12,8 C 4,8 km/h (1 Bft) 96,00 %
04.05.2017 09:52 12,7 C 14,4 C 78 % 1012,9 hPa 0,0 l/m 0,8 km/h (0 Bft) NO 44 2 min 0,000 mm 2,0 UV-I 645 W/m 9,0 C 12,7 C 4,8 km/h (1 Bft) 97,56 %
04.05.2017 09:54 12,7 C 14,4 C 81 % 1012,9 hPa 0,0 l/m 0,5 km/h (0 Bft) NO 43 2 min 0,000 mm 2,1 UV-I 654 W/m 9,5 C 12,7 C 3,2 km/h (1 Bft) 100,00 %
04.05.2017 09:56 12,6 C 14,4 C 79 % 1013,0 hPa 0,0 l/m 0,0 km/h (0 Bft) NO 43 2 min 0,000 mm 2,1 UV-I 657 W/m 9,1 C 12,6 C 1,6 km/h (1 Bft) 92,45 %
04.05.2017 09:58 12,6 C 14,4 C 81 % 1013,0 hPa 0,0 l/m 2,3 km/h (1 Bft) N-NO 23 2 min 0,000 mm 2,2 UV-I 661 W/m 9,4 C 12,6 C 6,4 km/h (2 Bft) 100,00 %
04.05.2017 10:00 12,7 C 14,4 C 82 % 1012,9 hPa 0,0 l/m 0,2 km/h (0 Bft) N-NO 23 2 min 0,280 mm 2,2 UV-I 685 W/m 9,7 C 12,7 C 1,6 km/h (1 Bft) 97,87 %
04.05.2017 10:02 12,8 C 14,4 C 81 % 1012,9 hPa 0,0 l/m 4,5 km/h (1 Bft) NO 53 2 min 0,000 mm 2,3 UV-I 728 W/m 9,6 C 12,8 C 9,7 km/h (2 Bft) 100,00 %
04.05.2017 10:04 12,9 C 14,4 C 80 % 1012,9 hPa 0,0 l/m 4,3 km/h (1 Bft) O-NO 62 2 min 0,000 mm 2,1 UV-I 744 W/m 9,5 C 12,9 C 8,0 km/h (2 Bft) 96,00 %
04.05.2017 10:06 12,7 C 14,4 C 79 % 1012,9 hPa 0,0 l/m 1,4 km/h (1 Bft) O-NO 59 2 min 0,000 mm 2,3 UV-I 760 W/m 9,2 C 12,7 C 3,2 km/h (1 Bft) 100,00 %
04.05.2017 10:08 12,8 C 14,4 C 79 % 1012,9 hPa 0,0 l/m 0,9 km/h (0 Bft) O 86 2 min 0,000 mm 2,3 UV-I 779 W/m 9,2 C 12,8 C 4,8 km/h (1 Bft) 94,00 %
04.05.2017 10:10 12,8 C 14,4 C 79 % 1012,9 hPa 0,0 l/m 1,5 km/h (1 Bft) O-SO 121 2 min 0,000 mm 2,4 UV-I 788 W/m 9,2 C 12,8 C 4,8 km/h (1 Bft) 98,11 %
04.05.2017 10:12 12,8 C 14,4 C 80 % 1012,9 hPa 0,0 l/m 0,0 km/h (0 Bft) O-SO 121 2 min 0,000 mm 2,5 UV-I 774 W/m 9,4 C 12,8 C 0,0 km/h (0 Bft) 97,87 %
04.05.2017 10:14 12,8 C 14,4 C 80 % 1012,8 hPa 0,0 l/m 0,3 km/h (0 Bft) O-SO 121 2 min 0,000 mm 2,5 UV-I 739 W/m 9,4 C 12,8 C 1,6 km/h (1 Bft) 95,74 %
04.05.2017 10:16 12,9 C 14,4 C 81 % 1012,9 hPa 0,0 l/m 1,9 km/h (1 Bft) O-SO 121 2 min 0,000 mm 2,2 UV-I 568 W/m 9,7 C 12,9 C 4,8 km/h (1 Bft) 100,00 %
04.05.2017 10:18 13,1 C 14,4 C 80 % 1012,9 hPa 0,0 l/m 2,2 km/h (1 Bft) SW 236 0 min 0,000 mm 1,9 UV-I 301 W/m 9,7 C 13,1 C 3,2 km/h (1 Bft) 98,00 %
04.05.2017 10:20 13,2 C 14,4 C 80 % 1012,9 hPa 0,0 l/m 1,0 km/h (0 Bft) W-SW 255 0 min 0,000 mm 2,0 UV-I 299 W/m 9,8 C 13,2 C 3,2 km/h (1 Bft) 100,00 %
04.05.2017 10:22 13,2 C 14,4 C 80 % 1012,8 hPa 0,0 l/m 1,2 km/h (1 Bft) W 259 2 min 0,000 mm 2,4 UV-I 412 W/m 9,8 C 13,2 C 4,8 km/h (1 Bft) 97,62 %
04.05.2017 10:24 13,3 C 14,4 C 81 % 1012,8 hPa 0,0 l/m 1,0 km/h (0 Bft) W 264 2 min 0,000 mm 2,6 UV-I 587 W/m 10,1 C 13,3 C 3,2 km/h (1 Bft) 100,00 %
04.05.2017 10:26 13,5 C 14,4 C 82 % 1012,8 hPa 0,0 l/m 2,9 km/h (1 Bft) N-NW 342 2 min 0,000 mm 2,7 UV-I 752 W/m 10,5 C 13,5 C 4,8 km/h (1 Bft) 100,00 %
04.05.2017 10:28 13,7 C 14,4 C 81 % 1012,8 hPa 0,0 l/m 2,9 km/h (1 Bft) N-NO 33 2 min 0,000 mm 2,7 UV-I 767 W/m 10,5 C 13,7 C 9,7 km/h (2 Bft) 100,00 %
04.05.2017 10:30 13,7 C 14,4 C 79 % 1012,8 hPa 0,0 l/m 5,6 km/h (1 Bft) N-NO 20 2 min 0,000 mm 2,8 UV-I 771 W/m 10,1 C 13,7 C 9,7 km/h (2 Bft) 100,00 %
04.05.2017 10:32 13,5 C 14,4 C 75 % 1012,8 hPa 0,0 l/m 2,0 km/h (1 Bft) NW 319 2 min 0,000 mm 2,8 UV-I 760 W/m 9,2 C 13,5 C 3,2 km/h (1 Bft) 100,00 %
04.05.2017 10:34 13,4 C 14,4 C 76 % 1012,8 hPa 0,0 l/m 0,7 km/h (0 Bft) NW 320 2 min 0,000 mm 2,8 UV-I 765 W/m 9,3 C 13,4 C 3,2 km/h (1 Bft) 98,00 %
04.05.2017 10:36 13,4 C 14,4 C 77 % 1012,9 hPa 0,0 l/m 1,3 km/h (1 Bft) N-NO 28 2 min 0,000 mm 2,9 UV-I 771 W/m 9,5 C 13,4 C 3,2 km/h (1 Bft) 100,00 %
04.05.2017 10:38 13,8 C 14,4 C 79 % 1012,8 hPa 0,0 l/m 3,4 km/h (1 Bft) N-NO 28 2 min 0,000 mm 2,9 UV-I 781 W/m 10,2 C 13,8 C 6,4 km/h (2 Bft) 97,37 %
04.05.2017 10:40 13,9 C 14,4 C 78 % 1012,7 hPa 0,0 l/m 3,4 km/h (1 Bft) N-NO 27 2 min 0,000 mm 2,9 UV-I 801 W/m 10,1 C 13,9 C 6,4 km/h (2 Bft) 96,23 %
04.05.2017 10:42 14,1 C 14,4 C 77 % 1012,7 hPa 0,0 l/m 8,0 km/h (2 Bft) NO 39 2 min 0,000 mm 2,9 UV-I 810 W/m 10,1 C 13,2 C 11,3 km/h (2 Bft) 100,00 %
04.05.2017 10:44 14,3 C 14,4 C 78 % 1012,8 hPa 0,0 l/m 4,9 km/h (1 Bft) O-NO 72 2 min 0,000 mm 3,0 UV-I 813 W/m 10,5 C 14,3 C 6,4 km/h (2 Bft) 96,88 %
04.05.2017 10:46 14,2 C 14,4 C 73 % 1012,8 hPa 0,0 l/m 3,5 km/h (1 Bft) O-NO 63 2 min 0,000 mm 3,0 UV-I 820 W/m 9,4 C 14,2 C 8,0 km/h (2 Bft) 100,00 %
04.05.2017 10:48 14,1 C 14,4 C 73 % 1012,8 hPa 0,0 l/m 3,0 km/h (1 Bft) O-SO 102 2 min 0,000 mm 2,9 UV-I 793 W/m 9,3 C 14,1 C 6,4 km/h (2 Bft) 97,87 %
04.05.2017 10:50 13,8 C 14,4 C 72 % 1012,8 hPa 0,0 l/m 1,6 km/h (1 Bft) O-SO 102 2 min 0,000 mm 2,8 UV-I 725 W/m 8,8 C 13,8 C 3,2 km/h (1 Bft) 100,00 %
04.05.2017 10:53 13,8 C 14,4 C 74 % 1012,7 hPa 0,0 l/m 1,7 km/h (1 Bft) N-NO 18 3 min 0,000 mm 2,4 UV-I 548 W/m 9,2 C 13,8 C 6,4 km/h (2 Bft) 100,00 %
04.05.2017 10:54 13,9 C 14,4 C 77 % 1012,7 hPa 0,0 l/m 4,6 km/h (1 Bft) N-NO 18 1 min 0,000 mm 2,5 UV-I 550 W/m 9,9 C 13,9 C 8,0 km/h (2 Bft) 100,00 %
04.05.2017 10:56 14,1 C 14,4 C 75 % 1012,7 hPa 0,0 l/m 3,5 km/h (1 Bft) N-NO 16 2 min 0,000 mm 2,6 UV-I 592 W/m 9,7 C 14,1 C 6,4 km/h (2 Bft) 96,97 %
04.05.2017 10:58 14,1 C 14,4 C 74 % 1012,8 hPa 0,0 l/m 2,7 km/h (1 Bft) NO 40 2 min 0,000 mm 2,7 UV-I 648 W/m 9,5 C 14,1 C 6,4 km/h (2 Bft) 98,44 %
04.05.2017 11:00 14,0 C 14,4 C 75 % 1012,8 hPa 0,0 l/m 3,8 km/h (1 Bft) O-NO 61 2 min 0,355 mm 2,7 UV-I 658 W/m 9,6 C 14,0 C 6,4 km/h (2 Bft) 97,87 %
04.05.2017 11:03 14,2 C 14,4 C 77 % 1012,8 hPa 0,0 l/m 0,9 km/h (0 Bft) N-NO 19 3 min 0,000 mm 2,6 UV-I 649 W/m 10,2 C 14,2 C 3,2 km/h (1 Bft) 96,77 %
04.05.2017 11:04 14,2 C 14,4 C 76 % 1012,8 hPa 0,0 l/m 3,1 km/h (1 Bft) N-NW 342 1 min 0,000 mm 2,5 UV-I 568 W/m 10,0 C 14,2 C 4,8 km/h (1 Bft) 95,83 %
04.05.2017 11:06 14,2 C 14,4 C 74 % 1012,8 hPa 0,0 l/m 1,9 km/h (1 Bft) N-NW 332 2 min 0,000 mm 2,4 UV-I 432 W/m 9,6 C 14,2 C 4,8 km/h (1 Bft) 96,23 %
04.05.2017 11:08 14,2 C 14,4 C 75 % 1012,8 hPa 0,0 l/m 1,6 km/h (1 Bft) N 355 0 min 0,000 mm 2,4 UV-I 369 W/m 9,8 C 14,2 C 4,8 km/h (1 Bft) 95,74 %
04.05.2017 11:10 14,2 C 14,4 C 76 % 1012,8 hPa 0,0 l/m 1,5 km/h (1 Bft) W 280 2 min 0,000 mm 2,6 UV-I 516 W/m 10,0 C 14,2 C 4,8 km/h (1 Bft) 97,73 %
04.05.2017 11:12 14,2 C 14,4 C 74 % 1012,8 hPa 0,0 l/m 2,8 km/h (1 Bft) NW 320 2 min 0,000 mm 2,7 UV-I 600 W/m 9,6 C 14,2 C 6,4 km/h (2 Bft) 92,86 %
04.05.2017 11:14 14,1 C 14,4 C 71 % 1012,8 hPa 0,0 l/m 1,0 km/h (0 Bft) NW 325 2 min 0,000 mm 2,4 UV-I 472 W/m 8,9 C 14,1 C 3,2 km/h (1 Bft) 96,00 %
04.05.2017 11:16 13,9 C 14,4 C 72 % 1012,8 hPa 0,0 l/m 0,8 km/h (0 Bft) NW 325 2 min 0,000 mm 2,4 UV-I 500 W/m 8,9 C 13,9 C 3,2 km/h (1 Bft) 96,23 %
04.05.2017 11:18 13,8 C 14,4 C 71 % 1012,8 hPa 0,0 l/m 1,1 km/h (1 Bft) NW 325 2 min 0,000 mm 2,4 UV-I 513 W/m 8,6 C 13,8 C 3,2 km/h (1 Bft) 100,00 %
04.05.2017 11:20 13,8 C 14,4 C 73 % 1012,8 hPa 0,0 l/m 1,5 km/h (1 Bft) NW 324 2 min 0,000 mm 2,3 UV-I 464 W/m 9,0 C 13,8 C 3,2 km/h (1 Bft) 96,00 %
04.05.2017 11:23 13,8 C 14,4 C 71 % 1012,8 hPa 0,0 l/m 1,8 km/h (1 Bft) NW 315 3 min 0,000 mm 2,4 UV-I 501 W/m 8,6 C 13,8 C 4,8 km/h (1 Bft) 97,40 %
04.05.2017 11:24 13,8 C 14,4 C 74 % 1012,8 hPa 0,0 l/m 2,8 km/h (1 Bft) NW 310 1 min 0,000 mm 2,4 UV-I 494 W/m 9,2 C 13,8 C 4,8 km/h (1 Bft) 92,86 %
04.05.2017 11:26 13,8 C 14,4 C 74 % 1012,8 hPa 0,0 l/m 0,4 km/h (0 Bft) NW 309 2 min 0,000 mm 2,3 UV-I 474 W/m 9,2 C 13,8 C 1,6 km/h (1 Bft) 96,23 %
04.05.2017 11:28 14,0 C 14,4 C 74 % 1012,7 hPa 0,0 l/m 0,1 km/h (0 Bft) NW 310 2 min 0,000 mm 2,5 UV-I 506 W/m 9,4 C 14,0 C 1,6 km/h (1 Bft) 95,74 %
04.05.2017 11:30 14,1 C 14,4 C 72 % 1012,7 hPa 0,0 l/m 0,3 km/h (0 Bft) NW 310 2 min 0,000 mm 2,5 UV-I 506 W/m 9,1 C 14,1 C 1,6 km/h (1 Bft) 96,00 %
04.05.2017 11:32 14,1 C 14,4 C 71 % 1012,7 hPa 0,0 l/m 2,1 km/h (1 Bft) N 360 2 min 0,000 mm 2,5 UV-I 499 W/m 8,9 C 14,1 C 4,8 km/h (1 Bft) 95,74 %
04.05.2017 11:34 14,1 C 14,4 C 72 % 1012,7 hPa 0,0 l/m 2,3 km/h (1 Bft) N 11 2 min 0,000 mm 2,6 UV-I 555 W/m 9,1 C 14,1 C 4,8 km/h (1 Bft) 100,00 %
04.05.2017 11:36 14,2 C 14,4 C 73 % 1012,7 hPa 0,0 l/m 1,9 km/h (1 Bft) N 11 2 min 0,000 mm 2,8 UV-I 592 W/m 9,4 C 14,2 C 3,2 km/h (1 Bft) 97,44 %
04.05.2017 11:38 14,4 C 14,4 C 76 % 1012,6 hPa 0,0 l/m 3,4 km/h (1 Bft) N-NO 13 2 min 0,000 mm 2,9 UV-I 658 W/m 10,2 C 14,4 C 6,4 km/h (2 Bft) 98,11 %
04.05.2017 11:40 14,6 C 14,4 C 74 % 1012,7 hPa 0,0 l/m 3,2 km/h (1 Bft) N-NO 14 2 min 0,000 mm 2,9 UV-I 629 W/m 10,0 C 14,6 C 4,8 km/h (1 Bft) 100,00 %
04.05.2017 11:42 14,8 C 14,4 C 76 % 1012,6 hPa 0,0 l/m 2,2 km/h (1 Bft) N-NW 331 2 min 0,000 mm 3,1 UV-I 681 W/m 10,6 C 14,8 C 4,8 km/h (1 Bft) 97,37 %
04.05.2017 11:44 14,9 C 14,4 C 73 % 1012,6 hPa 0,0 l/m 3,0 km/h (1 Bft) N-NW 331 2 min 0,000 mm 3,3 UV-I 790 W/m 10,1 C 14,9 C 6,4 km/h (2 Bft) 100,00 %
04.05.2017 11:46 14,9 C 14,4 C 71 % 1012,7 hPa 0,0 l/m 0,7 km/h (0 Bft) N-NW 331 2 min 0,000 mm 3,1 UV-I 725 W/m 9,7 C 14,9 C 3,2 km/h (1 Bft) 100,00 %
04.05.2017 11:48 14,7 C 14,4 C 72 % 1012,7 hPa 0,0 l/m 0,8 km/h (0 Bft) N-NW 331 2 min 0,000 mm 2,8 UV-I 603 W/m 9,7 C 14,7 C 3,2 km/h (1 Bft) 100,00 %
04.05.2017 11:50 14,6 C 14,4 C 70 % 1012,6 hPa 0,0 l/m 0,5 km/h (0 Bft) N-NW 330 2 min 0,000 mm 2,7 UV-I 533 W/m 9,2 C 14,6 C 3,2 km/h (1 Bft) 100,00 %
04.05.2017 11:52 14,5 C 14,4 C 74 % 1012,6 hPa 0,0 l/m 1,3 km/h (1 Bft) N-NW 330 2 min 0,000 mm 2,4 UV-I 474 W/m 9,9 C 14,5 C 3,2 km/h (1 Bft) 98,11 %
04.05.2017 11:54 14,5 C 14,4 C 73 % 1012,5 hPa 0,0 l/m 0,3 km/h (0 Bft) N-NW 332 2 min 0,000 mm 2,3 UV-I 465 W/m 9,7 C 14,5 C 3,2 km/h (1 Bft) 97,56 %
04.05.2017 11:56 14,6 C 14,4 C 72 % 1012,5 hPa 0,0 l/m 2,2 km/h (1 Bft) NW 309 0 min 0,000 mm 2,2 UV-I 447 W/m 9,6 C 14,6 C 4,8 km/h (1 Bft) 100,00 %
04.05.2017 11:58 14,6 C 14,4 C 74 % 1012,5 hPa 0,0 l/m 3,1 km/h (1 Bft) NW 318 0 min 0,000 mm 2,3 UV-I 448 W/m 10,0 C 14,6 C 6,4 km/h (2 Bft) 98,11 %
04.05.2017 12:00 14,6 C 14,4 C 69 % 1012,6 hPa 0,0 l/m 1,7 km/h (1 Bft) NW 321 0 min 0,280 mm 2,3 UV-I 442 W/m 9,0 C 14,6 C 4,8 km/h (1 Bft) 98,00 %
04.05.2017 12:02 14,6 C 14,4 C 70 % 1012,5 hPa 0,0 l/m 0,7 km/h (0 Bft) NW 321 0 min 0,000 mm 2,2 UV-I 430 W/m 9,2 C 14,6 C 3,2 km/h (1 Bft) 97,87 %
04.05.2017 12:04 14,4 C 14,4 C 71 % 1012,5 hPa 0,0 l/m 0,8 km/h (0 Bft) NW 321 0 min 0,000 mm 2,3 UV-I 441 W/m 9,2 C 14,4 C 3,2 km/h (1 Bft) 100,00 %
04.05.2017 12:06 14,6 C 14,4 C 70 % 1012,5 hPa 0,0 l/m 0,3 km/h (0 Bft) NW 321 2 min 0,000 mm 2,4 UV-I 469 W/m 9,2 C 14,6 C 1,6 km/h (1 Bft) 100,00 %
04.05.2017 12:09 14,8 C 14,4 C 72 % 1012,5 hPa 0,0 l/m 1,0 km/h (0 Bft) N-NW 347 3 min 0,000 mm 2,8 UV-I 564 W/m 9,8 C 14,8 C 4,8 km/h (1 Bft) 98,46 %
04.05.2017 12:10 14,8 C 14,4 C 70 % 1012,5 hPa 0,0 l/m 0,3 km/h (0 Bft) N-NW 347 1 min 0,000 mm 3,2 UV-I 685 W/m 9,4 C 14,8 C 1,6 km/h (1 Bft) 93,10 %
04.05.2017 12:12 14,8 C 14,4 C 70 % 1012,4 hPa 0,0 l/m 3,2 km/h (1 Bft) NO 36 2 min 0,000 mm 3,3 UV-I 706 W/m 9,4 C 14,8 C 8,0 km/h (2 Bft) 93,62 %
04.05.2017 12:14 15,2 C 14,4 C 74 % 1012,4 hPa 0,0 l/m 2,6 km/h (1 Bft) NO 38 2 min 0,000 mm 3,4 UV-I 729 W/m 10,6 C 15,2 C 8,0 km/h (2 Bft) 96,00 %
04.05.2017 12:16 15,4 C 14,4 C 70 % 1012,4 hPa 0,0 l/m 4,0 km/h (1 Bft) N-NO 27 2 min 0,000 mm 3,4 UV-I 722 W/m 10,0 C 15,4 C 8,0 km/h (2 Bft) 100,00 %
04.05.2017 12:18 15,4 C 14,4 C 71 % 1012,3 hPa 0,0 l/m 2,3 km/h (1 Bft) N-NW 348 2 min 0,000 mm 3,8 UV-I 805 W/m 10,2 C 15,4 C 6,4 km/h (2 Bft) 100,00 %
04.05.2017 12:20 15,3 C 14,4 C 70 % 1012,4 hPa 0,0 l/m 2,1 km/h (1 Bft) N-NW 344 2 min 0,000 mm 3,2 UV-I 824 W/m 9,9 C 15,3 C 4,8 km/h (1 Bft) 89,36 %
04.05.2017 12:22 15,3 C 14,4 C 70 % 1012,4 hPa 0,0 l/m 0,5 km/h (0 Bft) N-NW 344 2 min 0,000 mm 2,7 UV-I 466 W/m 9,9 C 15,3 C 1,6 km/h (1 Bft) 98,00 %
04.05.2017 12:24 15,2 C 14,4 C 68 % 1012,4 hPa 0,0 l/m 2,8 km/h (1 Bft) W-NW 299 0 min 0,000 mm 2,5 UV-I 422 W/m 9,3 C 15,2 C 4,8 km/h (1 Bft) 97,37 %
04.05.2017 12:26 15,2 C 14,4 C 69 % 1012,3 hPa 0,0 l/m 1,7 km/h (1 Bft) W-NW 299 0 min 0,000 mm 2,5 UV-I 427 W/m 9,6 C 15,2 C 6,4 km/h (2 Bft) 97,87 %
04.05.2017 12:28 15,2 C 14,4 C 68 % 1012,3 hPa 0,0 l/m 1,3 km/h (1 Bft) W-NW 295 0 min 0,000 mm 2,6 UV-I 444 W/m 9,3 C 15,2 C 3,2 km/h (1 Bft) 98,00 %
04.05.2017 12:30 15,1 C 15,0 C 70 % 1012,3 hPa 0,0 l/m 2,9 km/h (1 Bft) NO 54 2 min 0,000 mm 2,7 UV-I 478 W/m 9,7 C 15,1 C 4,8 km/h (1 Bft) 97,87 %
04.05.2017 12:32 15,2 C 15,0 C 73 % 1012,2 hPa 0,0 l/m 2,8 km/h (1 Bft) N-NO 13 2 min 0,000 mm 3,1 UV-I 619 W/m 10,4 C 15,2 C 4,8 km/h (1 Bft) 92,11 %
04.05.2017 12:34 15,3 C 15,0 C 72 % 1012,2 hPa 0,0 l/m 1,7 km/h (1 Bft) N 5 2 min 0,000 mm 3,0 UV-I 631 W/m 10,3 C 15,3 C 3,2 km/h (1 Bft) 96,61 %
04.05.2017 12:36 15,4 C 15,0 C 69 % 1012,2 hPa 0,0 l/m 1,8 km/h (1 Bft) N 350 2 min 0,000 mm 3,1 UV-I 590 W/m 9,7 C 15,4 C 4,8 km/h (1 Bft) 95,74 %
04.05.2017 12:38 15,4 C 15,0 C 69 % 1012,2 hPa 0,0 l/m 2,9 km/h (1 Bft) NW 305 2 min 0,000 mm 3,0 UV-I 555 W/m 9,7 C 15,4 C 4,8 km/h (1 Bft) 98,00 %
04.05.2017 12:40 15,4 C 15,0 C 68 % 1012,1 hPa 0,0 l/m 1,9 km/h (1 Bft) NO 34 0 min 0,000 mm 2,6 UV-I 431 W/m 9,5 C 15,4 C 6,4 km/h (2 Bft) 100,00 %
04.05.2017 12:42 15,3 C 15,0 C 71 % 1012,2 hPa 0,0 l/m 1,3 km/h (1 Bft) N-NO 24 0 min 0,000 mm 2,7 UV-I 423 W/m 10,1 C 15,3 C 3,2 km/h (1 Bft) 92,00 %
04.05.2017 12:44 15,2 C 15,0 C 71 % 1012,1 hPa 0,0 l/m 0,5 km/h (0 Bft) N-NO 24 2 min 0,000 mm 3,0 UV-I 562 W/m 10,0 C 15,2 C 1,6 km/h (1 Bft) 95,74 %
04.05.2017 12:46 15,3 C 15,0 C 70 % 1012,1 hPa 0,0 l/m 0,3 km/h (0 Bft) N-NO 24 2 min 0,000 mm 3,4 UV-I 665 W/m 9,9 C 15,3 C 3,2 km/h (1 Bft) 92,68 %
04.05.2017 12:48 15,4 C 15,0 C 71 % 1012,0 hPa 0,0 l/m 5,8 km/h (2 Bft) NO 46 2 min 0,000 mm 3,5 UV-I 683 W/m 10,2 C 15,4 C 9,7 km/h (2 Bft) 100,00 %
04.05.2017 12:50 15,6 C 15,0 C 69 % 1012,0 hPa 0,0 l/m 5,8 km/h (2 Bft) NO 40 2 min 0,000 mm 3,6 UV-I 696 W/m 9,9 C 15,6 C 8,0 km/h (2 Bft) 98,00 %
04.05.2017 12:52 15,7 C 15,0 C 70 % 1012,0 hPa 0,0 l/m 5,0 km/h (1 Bft) O-NO 57 2 min 0,000 mm 3,6 UV-I 730 W/m 10,2 C 15,7 C 8,0 km/h (2 Bft) 95,24 %
04.05.2017 12:54 15,8 C 15,0 C 68 % 1012,0 hPa 0,0 l/m 4,2 km/h (1 Bft) NO 50 2 min 0,000 mm 3,5 UV-I 692 W/m 9,9 C 15,8 C 9,7 km/h (2 Bft) 100,00 %
04.05.2017 12:56 15,8 C 15,0 C 71 % 1012,0 hPa 0,0 l/m 0,9 km/h (0 Bft) NO 50 2 min 0,000 mm 3,3 UV-I 619 W/m 10,6 C 15,8 C 4,8 km/h (1 Bft) 100,00 %
04.05.2017 12:58 15,8 C 15,0 C 67 % 1012,0 hPa 0,0 l/m 2,6 km/h (1 Bft) N-NO 32 2 min 0,000 mm 3,3 UV-I 585 W/m 9,7 C 15,8 C 4,8 km/h (1 Bft) 97,22 %
04.05.2017 13:00 15,7 C 15,0 C 70 % 1012,0 hPa 0,0 l/m 2,7 km/h (1 Bft) NO 40 2 min 0,330 mm 3,6 UV-I 734 W/m 10,2 C 15,7 C 6,4 km/h (2 Bft) 96,00 %
04.05.2017 13:02 15,7 C 15,0 C 68 % 1012,0 hPa 0,0 l/m 0,6 km/h (0 Bft) NO 40 2 min 0,000 mm 3,7 UV-I 724 W/m 9,8 C 15,7 C 3,2 km/h (1 Bft) 96,00 %
04.05.2017 13:04 15,8 C 15,0 C 67 % 1011,9 hPa 0,0 l/m 5,3 km/h (1 Bft) O 98 2 min 0,000 mm 3,9 UV-I 793 W/m 9,7 C 15,8 C 11,3 km/h (2 Bft) 98,11 %
04.05.2017 13:06 15,7 C 15,0 C 66 % 1011,9 hPa 0,0 l/m 5,2 km/h (1 Bft) O 82 2 min 0,000 mm 3,9 UV-I 759 W/m 9,4 C 15,7 C 9,7 km/h (2 Bft) 92,11 %
04.05.2017 13:08 15,8 C 15,0 C 68 % 1011,9 hPa 0,0 l/m 4,9 km/h (1 Bft) NO 47 2 min 0,000 mm 3,9 UV-I 768 W/m 9,9 C 15,8 C 6,4 km/h (2 Bft) 96,23 %
04.05.2017 13:10 16,1 C 15,0 C 65 % 1011,9 hPa 0,0 l/m 6,1 km/h (2 Bft) O-NO 65 2 min 0,000 mm 3,4 UV-I 661 W/m 9,5 C 16,1 C 8,0 km/h (2 Bft) 94,74 %
04.05.2017 13:12 16,1 C 15,0 C 68 % 1011,9 hPa 0,0 l/m 4,6 km/h (1 Bft) N-NO 27 2 min 0,000 mm 4,0 UV-I 624 W/m 10,2 C 16,1 C 6,4 km/h (2 Bft) 96,23 %
04.05.2017 13:14 16,2 C 15,0 C 69 % 1011,9 hPa 0,0 l/m 2,0 km/h (1 Bft) N-NO 26 2 min 0,000 mm 4,3 UV-I 886 W/m 10,5 C 16,2 C 6,4 km/h (2 Bft) 94,00 %
04.05.2017 13:16 16,4 C 15,0 C 68 % 1011,8 hPa 0,0 l/m 0,9 km/h (0 Bft) N-NO 25 2 min 0,000 mm 4,2 UV-I 934 W/m 10,5 C 16,4 C 4,8 km/h (1 Bft) 93,62 %
04.05.2017 13:18 16,3 C 15,0 C 62 % 1011,8 hPa 0,0 l/m 3,7 km/h (1 Bft) N-NO 24 2 min 0,000 mm 4,5 UV-I 928 W/m 9,0 C 16,3 C 4,8 km/h (1 Bft) 92,11 %
04.05.2017 13:20 16,3 C 15,0 C 65 % 1011,8 hPa 0,0 l/m 3,8 km/h (1 Bft) N-NO 31 2 min 0,000 mm 4,4 UV-I 964 W/m 9,7 C 16,3 C 4,8 km/h (1 Bft) 95,74 %
04.05.2017 13:22 16,3 C 15,0 C 63 % 1011,8 hPa 0,0 l/m 2,5 km/h (1 Bft) O 90 2 min 0,000 mm 4,6 UV-I 1031 W/m 9,2 C 16,3 C 4,8 km/h (1 Bft) 88,00 %
04.05.2017 13:24 16,3 C 15,0 C 61 % 1011,7 hPa 0,0 l/m 2,1 km/h (1 Bft) O-SO 115 2 min 0,000 mm 4,7 UV-I 1015 W/m 8,8 C 16,3 C 6,4 km/h (2 Bft) 95,74 %
04.05.2017 13:26 16,3 C 15,0 C 64 % 1011,7 hPa 0,0 l/m 1,0 km/h (0 Bft) O-NO 78 2 min 0,000 mm 4,2 UV-I 967 W/m 9,5 C 16,3 C 3,2 km/h (1 Bft) 92,00 %
04.05.2017 13:28 16,4 C 15,0 C 67 % 1011,6 hPa 0,0 l/m 1,7 km/h (1 Bft) N 9 2 min 0,000 mm 4,3 UV-I 919 W/m 10,3 C 16,4 C 3,2 km/h (1 Bft) 93,02 %
04.05.2017 13:30 16,4 C 15,0 C 66 % 1011,6 hPa 0,0 l/m 2,0 km/h (1 Bft) N 9 2 min 0,000 mm 4,2 UV-I 854 W/m 10,0 C 16,4 C 3,2 km/h (1 Bft) 95,74 %
04.05.2017 13:32 16,4 C 15,0 C 66 % 1011,6 hPa 0,0 l/m 0,9 km/h (0 Bft) N 360 2 min 0,000 mm 3,5 UV-I 723 W/m 10,0 C 16,4 C 1,6 km/h (1 Bft) 95,24 %
04.05.2017 13:34 16,4 C 15,0 C 66 % 1011,6 hPa 0,0 l/m 1,3 km/h (1 Bft) N 351 2 min 0,000 mm 3,4 UV-I 643 W/m 10,0 C 16,4 C 3,2 km/h (1 Bft) 96,43 %
04.05.2017 13:36 16,4 C 15,0 C 63 % 1011,7 hPa 0,0 l/m 3,2 km/h (1 Bft) NO 37 2 min 0,000 mm 3,4 UV-I 722 W/m 9,3 C 16,4 C 8,0 km/h (2 Bft) 92,68 %
04.05.2017 13:38 16,3 C 15,0 C 64 % 1011,6 hPa 0,0 l/m 4,2 km/h (1 Bft) NO 37 2 min 0,000 mm 2,9 UV-I 513 W/m 9,5 C 16,3 C 6,4 km/h (2 Bft) 98,00 %
04.05.2017 13:40 16,3 C 15,0 C 65 % 1011,6 hPa 0,0 l/m 6,4 km/h (2 Bft) N-NO 33 0 min 0,000 mm 2,6 UV-I 439 W/m 9,7 C 16,3 C 9,7 km/h (2 Bft) 96,00 %
04.05.2017 13:42 16,1 C 15,0 C 63 % 1011,5 hPa 0,0 l/m 0,8 km/h (0 Bft) N-NO 33 0 min 0,000 mm 2,6 UV-I 423 W/m 9,1 C 16,1 C 1,6 km/h (1 Bft) 97,56 %
04.05.2017 13:44 15,9 C 15,0 C 63 % 1011,5 hPa 0,0 l/m 0,9 km/h (0 Bft) N-NO 32 0 min 0,000 mm 2,6 UV-I 425 W/m 8,9 C 15,9 C 1,6 km/h (1 Bft) 95,74 %
04.05.2017 13:46 15,9 C 15,0 C 63 % 1011,5 hPa 0,0 l/m 0,6 km/h (0 Bft) N-NO 33 0 min 0,000 mm 2,4 UV-I 408 W/m 8,9 C 15,9 C 3,2 km/h (1 Bft) 94,34 %
04.05.2017 13:48 16,1 C 15,0 C 64 % 1011,5 hPa 0,0 l/m 0,8 km/h (0 Bft) N-NO 32 0 min 0,000 mm 2,5 UV-I 405 W/m 9,3 C 16,1 C 3,2 km/h (1 Bft) 98,00 %
04.05.2017 13:50 16,1 C 15,0 C 63 % 1011,5 hPa 0,0 l/m 2,2 km/h (1 Bft) NO 55 0 min 0,000 mm 2,4 UV-I 402 W/m 9,1 C 16,1 C 4,8 km/h (1 Bft) 95,12 %
04.05.2017 13:52 16,2 C 15,0 C 63 % 1011,5 hPa 0,0 l/m 0,7 km/h (0 Bft) O-SO 111 0 min 0,000 mm 2,4 UV-I 404 W/m 9,1 C 16,2 C 3,2 km/h (1 Bft) 96,00 %
04.05.2017 13:54 16,2 C 15,0 C 62 % 1011,5 hPa 0,0 l/m 2,3 km/h (1 Bft) SO 138 0 min 0,000 mm 2,3 UV-I 400 W/m 8,9 C 16,2 C 4,8 km/h (1 Bft) 97,37 %
04.05.2017 13:56 16,2 C 15,0 C 66 % 1011,4 hPa 0,0 l/m 3,5 km/h (1 Bft) O-SO 114 0 min 0,000 mm 2,4 UV-I 429 W/m 9,8 C 16,2 C 9,7 km/h (2 Bft) 97,87 %
04.05.2017 13:58 16,3 C 15,0 C 66 % 1011,4 hPa 0,0 l/m 1,8 km/h (1 Bft) O-SO 114 2 min 0,000 mm 2,5 UV-I 455 W/m 9,9 C 16,3 C 3,2 km/h (1 Bft) 95,74 %
04.05.2017 14:00 16,3 C 15,0 C 65 % 1011,4 hPa 0,0 l/m 3,1 km/h (1 Bft) NO 45 2 min 0,356 mm 2,6 UV-I 502 W/m 9,7 C 16,3 C 8,0 km/h (2 Bft) 96,23 %
04.05.2017 14:02 16,6 C 15,0 C 68 % 1011,3 hPa 0,0 l/m 3,1 km/h (1 Bft) NO 44 2 min 0,000 mm 2,7 UV-I 489 W/m 10,7 C 16,6 C 6,4 km/h (2 Bft) 97,87 %
04.05.2017 14:04 16,7 C 15,0 C 64 % 1011,3 hPa 0,0 l/m 1,8 km/h (1 Bft) NO 44 0 min 0,000 mm 2,5 UV-I 442 W/m 9,9 C 16,7 C 4,8 km/h (1 Bft) 95,74 %
04.05.2017 14:06 16,6 C 15,0 C 64 % 1011,3 hPa 0,0 l/m 4,2 km/h (1 Bft) O-NO 67 0 min 0,000 mm 2,4 UV-I 424 W/m 9,8 C 16,6 C 6,4 km/h (2 Bft) 96,30 %
04.05.2017 14:08 16,5 C 15,0 C 63 % 1011,3 hPa 0,0 l/m 2,1 km/h (1 Bft) NO 47 0 min 0,000 mm 2,4 UV-I 421 W/m 9,4 C 16,5 C 6,4 km/h (2 Bft) 96,77 %
04.05.2017 14:10 16,5 C 15,0 C 65 % 1011,3 hPa 0,0 l/m 3,5 km/h (1 Bft) NO 46 0 min 0,000 mm 2,5 UV-I 424 W/m 9,9 C 16,5 C 4,8 km/h (1 Bft) 96,15 %
04.05.2017 14:12 16,5 C 15,0 C 66 % 1011,3 hPa 0,0 l/m 3,0 km/h (1 Bft) O-NO 66 0 min 0,000 mm 2,3 UV-I 390 W/m 10,1 C 16,5 C 8,0 km/h (2 Bft) 95,74 %
04.05.2017 14:14 16,4 C 15,0 C 62 % 1011,2 hPa 0,0 l/m 4,7 km/h (1 Bft) O-NO 61 0 min 0,000 mm 2,3 UV-I 380 W/m 9,1 C 16,4 C 11,3 km/h (2 Bft) 94,87 %
04.05.2017 14:16 16,4 C 15,0 C 66 % 1011,2 hPa 0,0 l/m 8,4 km/h (2 Bft) O-SO 107 0 min 0,000 mm 2,3 UV-I 374 W/m 10,0 C 15,4 C 11,3 km/h (2 Bft) 96,43 %
04.05.2017 14:18 16,4 C 15,0 C 64 % 1011,2 hPa 0,0 l/m 4,5 km/h (1 Bft) NO 55 0 min 0,000 mm 2,2 UV-I 366 W/m 9,6 C 16,4 C 11,3 km/h (2 Bft) 97,73 %
04.05.2017 14:20 16,3 C 15,0 C 65 % 1011,2 hPa 0,0 l/m 6,4 km/h (2 Bft) O 86 0 min 0,000 mm 2,2 UV-I 359 W/m 9,7 C 16,3 C 9,7 km/h (2 Bft) 96,00 %
04.05.2017 14:22 16,3 C 15,0 C 63 % 1011,1 hPa 0,0 l/m 6,3 km/h (2 Bft) O 89 0 min 0,000 mm 2,1 UV-I 358 W/m 9,2 C 16,3 C 9,7 km/h (2 Bft) 97,37 %
04.05.2017 14:24 16,2 C 15,0 C 64 % 1011,1 hPa 0,0 l/m 5,1 km/h (1 Bft) O 97 0 min 0,000 mm 2,1 UV-I 369 W/m 9,4 C 16,2 C 9,7 km/h (2 Bft) 98,11 %
04.05.2017 14:26 16,2 C 15,0 C 65 % 1011,1 hPa 0,0 l/m 4,7 km/h (1 Bft) O-NO 74 0 min 0,000 mm 2,2 UV-I 396 W/m 9,6 C 16,2 C 11,3 km/h (2 Bft) 95,74 %
04.05.2017 14:28 16,2 C 15,0 C 65 % 1011,0 hPa 0,0 l/m 4,9 km/h (1 Bft) O-NO 69 2 min 0,000 mm 2,4 UV-I 473 W/m 9,6 C 16,2 C 11,3 km/h (2 Bft) 94,00 %
04.05.2017 14:30 16,2 C 15,0 C 64 % 1011,0 hPa 0,0 l/m 0,2 km/h (0 Bft) O-NO 69 2 min 0,000 mm 2,4 UV-I 472 W/m 9,4 C 16,2 C 1,6 km/h (1 Bft) 93,62 %
04.05.2017 14:32 16,4 C 15,0 C 69 % 1011,0 hPa 0,0 l/m 2,9 km/h (1 Bft) O-NO 62 2 min 0,000 mm 2,7 UV-I 566 W/m 10,7 C 16,4 C 6,4 km/h (2 Bft) 95,74 %
04.05.2017 14:34 16,7 C 15,6 C 66 % 1011,0 hPa 0,0 l/m 3,5 km/h (1 Bft) O-NO 62 2 min 0,000 mm 2,9 UV-I 632 W/m 10,3 C 16,7 C 6,4 km/h (2 Bft) 97,37 %
04.05.2017 14:36 16,8 C 15,6 C 64 % 1011,0 hPa 0,0 l/m 3,5 km/h (1 Bft) O 101 2 min 0,000 mm 2,8 UV-I 566 W/m 10,0 C 16,8 C 6,4 km/h (2 Bft) 98,00 %
04.05.2017 14:38 16,7 C 15,6 C 66 % 1011,0 hPa 0,0 l/m 6,7 km/h (2 Bft) O 90 2 min 0,000 mm 2,8 UV-I 569 W/m 10,3 C 16,6 C 11,3 km/h (2 Bft) 91,49 %
04.05.2017 14:40 16,7 C 15,6 C 67 % 1011,0 hPa 0,0 l/m 7,4 km/h (2 Bft) O-NO 61 2 min 0,000 mm 3,0 UV-I 633 W/m 10,5 C 16,2 C 11,3 km/h (2 Bft) 97,37 %
04.05.2017 14:42 16,7 C 15,6 C 63 % 1011,0 hPa 0,0 l/m 6,7 km/h (2 Bft) O 84 2 min 0,000 mm 3,2 UV-I 766 W/m 9,6 C 16,6 C 12,9 km/h (3 Bft) 96,61 %
04.05.2017 14:44 16,7 C 15,6 C 66 % 1010,9 hPa 0,0 l/m 3,2 km/h (1 Bft) O 82 2 min 0,000 mm 2,8 UV-I 569 W/m 10,3 C 16,7 C 8,0 km/h (2 Bft) 94,74 %
04.05.2017 14:46 16,8 C 15,6 C 65 % 1010,8 hPa 0,0 l/m 5,9 km/h (2 Bft) NO 46 2 min 0,000 mm 3,2 UV-I 468 W/m 10,2 C 16,8 C 11,3 km/h (2 Bft) 93,33 %
04.05.2017 14:48 17,1 C 15,6 C 67 % 1010,8 hPa 0,0 l/m 4,4 km/h (1 Bft) SO 135 2 min 0,000 mm 3,9 UV-I 794 W/m 10,9 C 17,1 C 11,3 km/h (2 Bft) 96,36 %
04.05.2017 14:50 17,4 C 15,6 C 63 % 1010,8 hPa 0,0 l/m 2,5 km/h (1 Bft) O 98 2 min 0,000 mm 3,9 UV-I 938 W/m 10,3 C 17,4 C 6,4 km/h (2 Bft) 97,78 %
04.05.2017 14:52 17,7 C 15,6 C 65 % 1010,7 hPa 0,0 l/m 5,3 km/h (1 Bft) N-NO 31 2 min 0,000 mm 3,9 UV-I 922 W/m 11,0 C 17,7 C 16,1 km/h (3 Bft) 97,87 %
04.05.2017 14:54 17,8 C 15,6 C 61 % 1010,7 hPa 0,0 l/m 7,7 km/h (2 Bft) O-NO 63 2 min 0,000 mm 3,7 UV-I 879 W/m 10,2 C 17,2 C 11,3 km/h (2 Bft) 91,49 %
04.05.2017 14:56 17,9 C 15,6 C 63 % 1010,7 hPa 0,0 l/m 11,2 km/h (2 Bft) NO 55 2 min 0,000 mm 3,7 UV-I 881 W/m 10,8 C 15,9 C 16,1 km/h (3 Bft) 98,11 %
04.05.2017 14:58 17,8 C 15,6 C 59 % 1010,7 hPa 0,0 l/m 6,9 km/h (2 Bft) NO 55 2 min 0,000 mm 3,6 UV-I 862 W/m 9,7 C 17,6 C 11,3 km/h (2 Bft) 97,56 %
04.05.2017 15:00 17,7 C 15,6 C 63 % 1010,6 hPa 0,0 l/m 10,0 km/h (2 Bft) N-NO 27 2 min 0,330 mm 2,8 UV-I 692 W/m 10,6 C 16,1 C 16,1 km/h (3 Bft) 100,00 %
04.05.2017 15:02 17,5 C 15,6 C 62 % 1010,5 hPa 0,0 l/m 5,3 km/h (1 Bft) NO 39 0 min 0,000 mm 2,6 UV-I 405 W/m 10,1 C 17,5 C 12,9 km/h (3 Bft) 97,87 %
04.05.2017 15:04 17,4 C 15,6 C 64 % 1010,5 hPa 0,0 l/m 7,3 km/h (2 Bft) N-NO 26 2 min 0,000 mm 2,5 UV-I 488 W/m 10,5 C 17,0 C 14,5 km/h (3 Bft) 97,56 %
04.05.2017 15:06 17,2 C 15,6 C 61 % 1010,5 hPa 0,0 l/m 5,7 km/h (1 Bft) NO 38 0 min 0,000 mm 2,5 UV-I 401 W/m 9,6 C 17,2 C 8,0 km/h (2 Bft) 94,00 %
04.05.2017 15:08 17,1 C 15,6 C 63 % 1010,5 hPa 0,0 l/m 5,4 km/h (1 Bft) NO 44 2 min 0,000 mm 2,6 UV-I 470 W/m 10,0 C 17,1 C 8,0 km/h (2 Bft) 95,74 %
04.05.2017 15:10 17,2 C 15,6 C 64 % 1010,5 hPa 0,0 l/m 7,4 km/h (2 Bft) N-NO 32 2 min 0,000 mm 2,7 UV-I 542 W/m 10,3 C 16,7 C 12,9 km/h (3 Bft) 98,00 %
04.05.2017 15:12 17,1 C 15,6 C 63 % 1010,4 hPa 0,0 l/m 5,1 km/h (1 Bft) N-NO 33 2 min 0,000 mm 2,9 UV-I 654 W/m 10,0 C 17,1 C 11,3 km/h (2 Bft) 97,87 %
04.05.2017 15:14 17,2 C 15,6 C 66 % 1010,4 hPa 0,0 l/m 2,1 km/h (1 Bft) N-NO 13 2 min 0,000 mm 3,0 UV-I 678 W/m 10,8 C 17,2 C 6,4 km/h (2 Bft) 96,15 %
04.05.2017 15:16 17,3 C 15,6 C 67 % 1010,3 hPa 0,0 l/m 2,8 km/h (1 Bft) O-NO 57 2 min 0,000 mm 2,9 UV-I 625 W/m 11,1 C 17,3 C 6,4 km/h (2 Bft) 98,46 %
04.05.2017 15:18 17,6 C 15,6 C 65 % 1010,3 hPa 0,0 l/m 5,1 km/h (1 Bft) NO 40 2 min 0,000 mm 2,8 UV-I 595 W/m 10,9 C 17,6 C 6,4 km/h (2 Bft) 97,56 %
04.05.2017 15:20 17,7 C 15,6 C 69 % 1010,3 hPa 0,0 l/m 3,8 km/h (1 Bft) NO 45 2 min 0,000 mm 2,8 UV-I 606 W/m 11,9 C 17,7 C 6,4 km/h (2 Bft) 94,00 %
04.05.2017 15:22 17,8 C 15,6 C 64 % 1010,2 hPa 0,0 l/m 3,8 km/h (1 Bft) NO 48 2 min 0,000 mm 2,8 UV-I 596 W/m 10,9 C 17,8 C 6,4 km/h (2 Bft) 96,00 %
04.05.2017 15:24 17,7 C 15,6 C 60 % 1010,2 hPa 0,0 l/m 6,3 km/h (2 Bft) O-NO 60 2 min 0,000 mm 2,7 UV-I 648 W/m 9,8 C 17,7 C 9,7 km/h (2 Bft) 95,12 %
04.05.2017 15:26 17,6 C 15,6 C 58 % 1010,2 hPa 0,0 l/m 5,4 km/h (1 Bft) O 97 2 min 0,000 mm 2,9 UV-I 641 W/m 9,2 C 17,6 C 11,3 km/h (2 Bft) 97,62 %
04.05.2017 15:28 17,5 C 15,6 C 58 % 1010,2 hPa 0,0 l/m 7,8 km/h (2 Bft) O-NO 74 2 min 0,000 mm 2,6 UV-I 559 W/m 9,1 C 16,8 C 16,1 km/h (3 Bft) 98,18 %
04.05.2017 15:30 17,6 C 15,6 C 60 % 1010,2 hPa 0,0 l/m 7,9 km/h (2 Bft) O-NO 76 2 min 0,000 mm 2,7 UV-I 515 W/m 9,7 C 16,9 C 14,5 km/h (3 Bft) 95,24 %
04.05.2017 15:32 17,7 C 15,6 C 59 % 1010,2 hPa 0,0 l/m 13,2 km/h (3 Bft) O-NO 74 2 min 0,000 mm 2,7 UV-I 598 W/m 9,6 C 15,0 C 20,9 km/h (4 Bft) 97,56 %
04.05.2017 15:34 17,7 C 15,6 C 57 % 1010,2 hPa 0,0 l/m 8,2 km/h (2 Bft) O-NO 57 2 min 0,000 mm 3,0 UV-I 774 W/m 9,1 C 16,8 C 16,1 km/h (3 Bft) 96,23 %
04.05.2017 15:36 17,9 C 15,6 C 62 % 1010,2 hPa 0,0 l/m 8,0 km/h (2 Bft) O-NO 76 2 min 0,000 mm 2,9 UV-I 759 W/m 10,5 C 17,1 C 14,5 km/h (3 Bft) 100,00 %
04.05.2017 15:38 18,1 C 15,6 C 55 % 1010,2 hPa 0,0 l/m 7,8 km/h (2 Bft) O-NO 78 2 min 0,000 mm 2,4 UV-I 718 W/m 8,9 C 17,4 C 20,9 km/h (4 Bft) 100,00 %
04.05.2017 15:40 18,0 C 15,6 C 54 % 1010,2 hPa 0,0 l/m 8,5 km/h (2 Bft) SO 132 2 min 0,000 mm 2,5 UV-I 715 W/m 8,6 C 17,0 C 17,7 km/h (3 Bft) 100,00 %
04.05.2017 15:42 17,9 C 15,6 C 55 % 1010,1 hPa 0,0 l/m 7,6 km/h (2 Bft) SO 146 2 min 0,000 mm 2,5 UV-I 715 W/m 8,7 C 17,3 C 14,5 km/h (3 Bft) 100,00 %
04.05.2017 15:44 17,9 C 15,6 C 59 % 1010,1 hPa 0,0 l/m 5,1 km/h (1 Bft) SO 125 2 min 0,000 mm 2,7 UV-I 722 W/m 9,8 C 17,9 C 9,7 km/h (2 Bft) 96,23 %
04.05.2017 15:46 18,2 C 15,6 C 58 % 1010,0 hPa 0,0 l/m 5,5 km/h (1 Bft) O-NO 78 2 min 0,000 mm 2,7 UV-I 721 W/m 9,8 C 18,2 C 9,7 km/h (2 Bft) 100,00 %
04.05.2017 15:48 18,1 C 15,6 C 57 % 1010,0 hPa 0,0 l/m 3,1 km/h (1 Bft) O-NO 76 2 min 0,000 mm 2,7 UV-I 716 W/m 9,4 C 18,1 C 4,8 km/h (1 Bft) 100,00 %
04.05.2017 15:50 18,0 C 15,6 C 60 % 1010,0 hPa 0,0 l/m 4,7 km/h (1 Bft) O-NO 65 2 min 0,000 mm 2,7 UV-I 704 W/m 10,1 C 18,0 C 9,7 km/h (2 Bft) 100,00 %
04.05.2017 15:52 18,2 C 15,6 C 60 % 1010,0 hPa 0,0 l/m 10,6 km/h (2 Bft) O-NO 72 2 min 0,000 mm 2,6 UV-I 670 W/m 10,3 C 16,4 C 17,7 km/h (3 Bft) 100,00 %
04.05.2017 15:54 18,2 C 15,6 C 58 % 1010,0 hPa 0,0 l/m 8,1 km/h (2 Bft) O-NO 61 2 min 0,000 mm 2,6 UV-I 705 W/m 9,8 C 17,4 C 16,1 km/h (3 Bft) 92,68 %
04.05.2017 15:56 18,2 C 15,6 C 57 % 1010,0 hPa 0,0 l/m 10,0 km/h (2 Bft) O-NO 65 2 min 0,000 mm 2,1 UV-I 559 W/m 9,5 C 16,7 C 16,1 km/h (3 Bft) 96,23 %
04.05.2017 15:58 18,1 C 15,6 C 58 % 1010,0 hPa 0,0 l/m 7,3 km/h (2 Bft) O-NO 60 2 min 0,000 mm 2,1 UV-I 386 W/m 9,7 C 17,7 C 12,9 km/h (3 Bft) 100,00 %
04.05.2017 16:00 18,0 C 15,6 C 58 % 1010,0 hPa 0,0 l/m 10,7 km/h (2 Bft) NO 49 2 min 0,355 mm 2,2 UV-I 431 W/m 9,6 C 16,2 C 17,7 km/h (3 Bft) 100,00 %
04.05.2017 16:02 18,0 C 15,6 C 60 % 1010,0 hPa 0,0 l/m 10,7 km/h (2 Bft) NO 47 2 min 0,000 mm 2,1 UV-I 564 W/m 10,1 C 16,2 C 16,1 km/h (3 Bft) 100,00 %
04.05.2017 16:04 18,1 C 15,6 C 59 % 1010,0 hPa 0,0 l/m 12,8 km/h (3 Bft) O-NO 65 2 min 0,000 mm 2,2 UV-I 585 W/m 10,0 C 15,6 C 16,1 km/h (3 Bft) 100,00 %
04.05.2017 16:06 18,1 C 15,6 C 59 % 1010,0 hPa 0,0 l/m 8,7 km/h (2 Bft) O 80 2 min 0,000 mm 2,0 UV-I 571 W/m 10,0 C 17,1 C 12,9 km/h (3 Bft) 100,00 %
04.05.2017 16:08 18,1 C 15,6 C 57 % 1009,9 hPa 0,0 l/m 9,3 km/h (2 Bft) O 81 2 min 0,000 mm 2,0 UV-I 542 W/m 9,4 C 16,8 C 14,5 km/h (3 Bft) 100,00 %
04.05.2017 16:10 18,3 C 15,6 C 60 % 1009,9 hPa 0,0 l/m 5,6 km/h (1 Bft) O-NO 66 2 min 0,000 mm 2,0 UV-I 598 W/m 10,4 C 18,3 C 8,0 km/h (2 Bft) 98,11 %
04.05.2017 16:12 18,4 C 15,6 C 59 % 1009,9 hPa 0,0 l/m 5,4 km/h (1 Bft) O-NO 66 2 min 0,000 mm 2,0 UV-I 604 W/m 10,2 C 18,4 C 8,0 km/h (2 Bft) 100,00 %
04.05.2017 16:14 18,3 C 15,6 C 58 % 1009,9 hPa 0,0 l/m 3,5 km/h (1 Bft) O 90 2 min 0,000 mm 2,0 UV-I 652 W/m 9,9 C 18,3 C 6,4 km/h (2 Bft) 100,00 %
04.05.2017 16:16 18,3 C 15,6 C 62 % 1009,8 hPa 0,0 l/m 3,4 km/h (1 Bft) W 279 2 min 0,000 mm 2,0 UV-I 637 W/m 10,9 C 18,3 C 6,4 km/h (2 Bft) 98,11 %
04.05.2017 16:18 18,3 C 15,6 C 59 % 1009,8 hPa 0,0 l/m 8,4 km/h (2 Bft) O-SO 113 2 min 0,000 mm 1,9 UV-I 638 W/m 10,1 C 17,4 C 12,9 km/h (3 Bft) 97,37 %
04.05.2017 16:20 18,3 C 15,6 C 57 % 1009,8 hPa 0,0 l/m 15,3 km/h (3 Bft) O 99 2 min 0,000 mm 1,9 UV-I 649 W/m 9,6 C 15,1 C 19,3 km/h (3 Bft) 100,00 %
04.05.2017 16:22 18,4 C 15,6 C 57 % 1009,8 hPa 0,0 l/m 10,9 km/h (2 Bft) O-NO 69 2 min 0,000 mm 1,9 UV-I 705 W/m 9,7 C 16,6 C 17,7 km/h (3 Bft) 100,00 %
04.05.2017 16:24 18,6 C 15,6 C 56 % 1009,7 hPa 0,0 l/m 11,2 km/h (2 Bft) O-NO 65 2 min 0,000 mm 1,9 UV-I 661 W/m 9,6 C 16,7 C 16,1 km/h (3 Bft) 95,45 %
04.05.2017 16:26 18,6 C 15,6 C 56 % 1009,7 hPa 0,0 l/m 9,6 km/h (2 Bft) NO 42 2 min 0,000 mm 1,8 UV-I 628 W/m 9,6 C 17,2 C 16,1 km/h (3 Bft) 100,00 %
04.05.2017 16:28 18,6 C 15,6 C 59 % 1009,7 hPa 0,0 l/m 8,0 km/h (2 Bft) NO 44 2 min 0,000 mm 1,8 UV-I 480 W/m 10,4 C 17,9 C 12,9 km/h (3 Bft) 100,00 %
04.05.2017 16:30 18,4 C 15,6 C 58 % 1009,7 hPa 0,0 l/m 6,3 km/h (2 Bft) O 101 0 min 0,000 mm 1,4 UV-I 179 W/m 10,0 C 18,4 C 9,7 km/h (2 Bft) 98,00 %
04.05.2017 16:32 18,2 C 15,6 C 58 % 1009,7 hPa 0,0 l/m 4,5 km/h (1 Bft) O 80 0 min 0,000 mm 1,6 UV-I 203 W/m 9,8 C 18,2 C 9,7 km/h (2 Bft) 97,37 %
04.05.2017 16:34 18,3 C 15,6 C 61 % 1009,5 hPa 0,0 l/m 8,4 km/h (2 Bft) N-NO 13 2 min 0,000 mm 1,7 UV-I 461 W/m 10,6 C 17,4 C 14,5 km/h (3 Bft) 100,00 %
04.05.2017 16:36 18,2 C 15,6 C 59 % 1009,5 hPa 0,0 l/m 8,3 km/h (2 Bft) NO 46 2 min 0,000 mm 1,3 UV-I 401 W/m 10,1 C 17,3 C 16,1 km/h (3 Bft) 97,37 %
04.05.2017 16:38 17,9 C 15,6 C 57 % 1009,5 hPa 0,0 l/m 4,7 km/h (1 Bft) O 85 0 min 0,000 mm 1,2 UV-I 166 W/m 9,3 C 17,9 C 8,0 km/h (2 Bft) 100,00 %
04.05.2017 16:40 17,8 C 15,6 C 59 % 1009,5 hPa 0,0 l/m 5,7 km/h (1 Bft) O-SO 119 0 min 0,000 mm 1,2 UV-I 198 W/m 9,7 C 17,8 C 14,5 km/h (3 Bft) 98,11 %
04.05.2017 16:42 17,7 C 15,6 C 56 % 1009,5 hPa 0,0 l/m 13,2 km/h (3 Bft) O-NO 57 0 min 0,000 mm 1,2 UV-I 235 W/m 8,8 C 15,0 C 17,7 km/h (3 Bft) 97,56 %
04.05.2017 16:44 17,7 C 15,6 C 56 % 1009,5 hPa 0,0 l/m 9,0 km/h (2 Bft) O 81 0 min 0,000 mm 1,1 UV-I 234 W/m 8,8 C 16,5 C 14,5 km/h (3 Bft) 100,00 %
04.05.2017 16:46 17,7 C 15,6 C 58 % 1009,4 hPa 0,0 l/m 6,1 km/h (2 Bft) O 89 0 min 0,000 mm 1,1 UV-I 204 W/m 9,3 C 17,7 C 11,3 km/h (2 Bft) 100,00 %
04.05.2017 16:48 17,6 C 15,6 C 58 % 1009,4 hPa 0,0 l/m 5,9 km/h (2 Bft) O 92 0 min 0,000 mm 1,0 UV-I 201 W/m 9,2 C 17,6 C 11,3 km/h (2 Bft) 100,00 %
04.05.2017 16:50 17,6 C 15,6 C 59 % 1009,4 hPa 0,0 l/m 6,8 km/h (2 Bft) NO 47 0 min 0,000 mm 1,0 UV-I 211 W/m 9,5 C 17,4 C 11,3 km/h (2 Bft) 100,00 %
04.05.2017 16:52 17,6 C 15,6 C 58 % 1009,4 hPa 0,0 l/m 11,4 km/h (2 Bft) N-NO 32 0 min 0,000 mm 1,0 UV-I 220 W/m 9,2 C 15,5 C 16,1 km/h (3 Bft) 97,87 %
04.05.2017 16:54 17,6 C 15,6 C 60 % 1009,5 hPa 0,0 l/m 9,4 km/h (2 Bft) O-NO 67 0 min 0,000 mm 0,9 UV-I 225 W/m 9,7 C 16,2 C 14,5 km/h (3 Bft) 100,00 %
04.05.2017 16:56 17,6 C 15,6 C 61 % 1009,5 hPa 0,0 l/m 8,5 km/h (2 Bft) NO 51 0 min 0,000 mm 0,8 UV-I 206 W/m 10,0 C 16,6 C 16,1 km/h (3 Bft) 100,00 %
04.05.2017 16:58 17,5 C 15,6 C 58 % 1009,5 hPa 0,0 l/m 12,1 km/h (2 Bft) O-NO 68 0 min 0,000 mm 0,7 UV-I 194 W/m 9,1 C 15,1 C 19,3 km/h (3 Bft) 96,23 %
04.05.2017 17:00 17,5 C 15,6 C 58 % 1009,5 hPa 0,0 l/m 13,8 km/h (3 Bft) O-SO 114 0 min 0,000 mm 0,6 UV-I 172 W/m 9,1 C 14,6 C 19,3 km/h (3 Bft) 97,56 %
04.05.2017 17:03 17,3 C 15,6 C 60 % 1009,5 hPa 0,0 l/m 7,7 km/h (2 Bft) O 99 0 min 0,280 mm 0,4 UV-I 136 W/m 9,5 C 16,7 C 14,5 km/h (3 Bft) 96,05 %
04.05.2017 17:04 17,3 C 15,6 C 60 % 1009,5 hPa 0,0 l/m 10,4 km/h (2 Bft) O-NO 76 0 min 0,000 mm 0,0 UV-I 118 W/m 9,5 C 15,5 C 12,9 km/h (3 Bft) 100,00 %
04.05.2017 17:06 17,2 C 15,6 C 60 % 1009,5 hPa 0,0 l/m 12,2 km/h (2 Bft) SO 140 0 min 0,000 mm 0,0 UV-I 113 W/m 9,4 C 14,7 C 16,1 km/h (3 Bft) 96,36 %
04.05.2017 17:08 17,1 C 15,6 C 61 % 1009,4 hPa 0,0 l/m 15,6 km/h (3 Bft) O 90 0 min 0,000 mm 0,0 UV-I 113 W/m 9,5 C 13,6 C 22,5 km/h (4 Bft) 95,74 %
04.05.2017 17:10 16,9 C 15,6 C 63 % 1009,4 hPa 0,0 l/m 15,2 km/h (3 Bft) O-NO 78 0 min 0,000 mm 0,0 UV-I 113 W/m 9,8 C 13,4 C 20,9 km/h (4 Bft) 97,37 %
04.05.2017 17:12 16,8 C 15,6 C 65 % 1009,5 hPa 0,0 l/m 14,7 km/h (3 Bft) O-SO 120 0 min 0,000 mm 0,0 UV-I 112 W/m 10,2 C 13,5 C 22,5 km/h (4 Bft) 98,11 %
04.05.2017 17:14 16,7 C 15,6 C 65 % 1009,5 hPa 0,0 l/m 11,0 km/h (2 Bft) O-NO 65 0 min 0,000 mm 0,0 UV-I 108 W/m 10,1 C 14,6 C 17,7 km/h (3 Bft) 97,56 %
04.05.2017 17:16 16,7 C 15,6 C 67 % 1009,5 hPa 0,0 l/m 12,1 km/h (2 Bft) O 96 0 min 0,000 mm 0,0 UV-I 100 W/m 10,5 C 14,2 C 17,7 km/h (3 Bft) 98,11 %
04.05.2017 17:18 16,6 C 15,6 C 66 % 1009,5 hPa 0,0 l/m 10,9 km/h (2 Bft) NO 47 0 min 0,000 mm 0,0 UV-I 95 W/m 10,2 C 14,5 C 14,5 km/h (3 Bft) 98,00 %
04.05.2017 17:20 16,5 C 15,6 C 66 % 1009,6 hPa 0,0 l/m 12,1 km/h (2 Bft) O 92 0 min 0,000 mm 0,0 UV-I 92 W/m 10,1 C 14,0 C 17,7 km/h (3 Bft) 94,59 %
04.05.2017 17:23 16,4 C 15,6 C 65 % 1009,6 hPa 0,0 l/m 13,7 km/h (3 Bft) O-SO 121 0 min 0,000 mm 0,0 UV-I 85 W/m 9,8 C 13,3 C 24,1 km/h (4 Bft) 96,10 %
04.05.2017 17:24 16,3 C 15,6 C 65 % 1009,6 hPa 0,0 l/m 14,8 km/h (3 Bft) O 98 0 min 0,000 mm 0,0 UV-I 67 W/m 9,7 C 12,8 C 17,7 km/h (3 Bft) 96,15 %
04.05.2017 17:26 16,3 C 15,6 C 66 % 1009,7 hPa 0,0 l/m 13,4 km/h (3 Bft) O 82 0 min 0,000 mm 0,0 UV-I 60 W/m 9,9 C 13,3 C 17,7 km/h (3 Bft) 97,62 %
04.05.2017 17:28 16,3 C 15,6 C 66 % 1009,6 hPa 0,0 l/m 11,8 km/h (2 Bft) O 96 0 min 0,000 mm 0,0 UV-I 54 W/m 9,9 C 13,8 C 14,5 km/h (3 Bft) 93,18 %
04.05.2017 17:30 16,2 C 15,6 C 66 % 1009,6 hPa 0,0 l/m 15,8 km/h (3 Bft) O-NO 69 0 min 0,000 mm 0,0 UV-I 49 W/m 9,8 C 12,4 C 22,5 km/h (4 Bft) 95,12 %
04.05.2017 17:32 16,1 C 15,6 C 66 % 1009,6 hPa 0,0 l/m 16,9 km/h (3 Bft) O 88 0 min 0,000 mm 0,0 UV-I 46 W/m 9,7 C 12,0 C 24,1 km/h (4 Bft) 98,39 %
04.05.2017 17:34 16,1 C 15,6 C 67 % 1009,5 hPa 0,0 l/m 14,9 km/h (3 Bft) O-SO 115 0 min 0,000 mm 0,0 UV-I 46 W/m 10,0 C 12,6 C 20,9 km/h (4 Bft) 97,87 %
04.05.2017 17:36 15,9 C 15,6 C 68 % 1009,5 hPa 0,0 l/m 14,9 km/h (3 Bft) O-SO 104 0 min 0,000 mm 0,0 UV-I 46 W/m 10,0 C 12,3 C 25,7 km/h (4 Bft) 100,00 %
04.05.2017 17:38 15,8 C 15,6 C 69 % 1009,4 hPa 0,0 l/m 10,0 km/h (2 Bft) O-SO 106 0 min 0,000 mm 0,0 UV-I 46 W/m 10,1 C 14,0 C 14,5 km/h (3 Bft) 100,00 %
04.05.2017 17:40 15,7 C 15,6 C 71 % 1009,3 hPa 0,0 l/m 10,6 km/h (2 Bft) O-NO 70 0 min 0,000 mm 0,0 UV-I 47 W/m 10,5 C 13,6 C 16,1 km/h (3 Bft) 100,00 %
04.05.2017 17:42 15,5 C 15,6 C 71 % 1009,3 hPa 0,0 l/m 10,6 km/h (2 Bft) O 82 0 min 0,000 mm 0,0 UV-I 49 W/m 10,3 C 13,4 C 16,1 km/h (3 Bft) 100,00 %
04.05.2017 17:44 15,3 C 15,6 C 72 % 1009,3 hPa 0,0 l/m 14,6 km/h (3 Bft) O 96 0 min 0,000 mm 0,0 UV-I 50 W/m 10,3 C 11,7 C 19,3 km/h (3 Bft) 95,12 %
04.05.2017 17:46 15,2 C 15,6 C 72 % 1009,3 hPa 0,0 l/m 14,7 km/h (3 Bft) O 86 0 min 0,000 mm 0,0 UV-I 49 W/m 10,2 C 11,5 C 25,7 km/h (4 Bft) 100,00 %
04.05.2017 17:48 15,0 C 15,6 C 72 % 1009,3 hPa 0,0 l/m 18,8 km/h (3 Bft) O-SO 112 0 min 0,000 mm 0,0 UV-I 47 W/m 10,0 C 10,1 C 29,0 km/h (5 Bft) 97,37 %
04.05.2017 17:50 14,8 C 15,6 C 73 % 1009,3 hPa 0,0 l/m 15,0 km/h (3 Bft) O-NO 65 0 min 0,000 mm 0,0 UV-I 47 W/m 10,0 C 10,9 C 22,5 km/h (4 Bft) 100,00 %
04.05.2017 17:52 14,8 C 15,6 C 73 % 1009,3 hPa 0,0 l/m 13,8 km/h (3 Bft) O-SO 107 0 min 0,000 mm 0,0 UV-I 48 W/m 10,0 C 11,4 C 19,3 km/h (3 Bft) 100,00 %
04.05.2017 17:54 14,7 C 15,6 C 72 % 1009,1 hPa 0,0 l/m 14,5 km/h (3 Bft) O-SO 117 0 min 0,000 mm 0,0 UV-I 50 W/m 9,7 C 11,0 C 25,7 km/h (4 Bft) 97,37 %
04.05.2017 17:56 14,7 C 15,6 C 72 % 1009,1 hPa 0,0 l/m 14,2 km/h (3 Bft) O-SO 102 0 min 0,000 mm 0,0 UV-I 55 W/m 9,7 C 11,1 C 24,1 km/h (4 Bft) 100,00 %
04.05.2017 17:58 14,6 C 15,6 C 74 % 1009,0 hPa 0,0 l/m 13,9 km/h (3 Bft) O 91 0 min 0,000 mm 0,0 UV-I 60 W/m 10,0 C 11,1 C 20,9 km/h (4 Bft) 100,00 %
04.05.2017 18:00 14,6 C 15,6 C 74 % 1009,0 hPa 0,0 l/m 17,1 km/h (3 Bft) O 82 0 min 0,000 mm 0,0 UV-I 62 W/m 10,0 C 10,0 C 27,4 km/h (4 Bft) 98,21 %
04.05.2017 18:02 14,6 C 15,6 C 74 % 1009,1 hPa 0,0 l/m 14,5 km/h (3 Bft) O-NO 66 0 min 0,101 mm 0,0 UV-I 57 W/m 10,0 C 10,9 C 20,9 km/h (4 Bft) 100,00 %
04.05.2017 18:04 14,6 C 15,6 C 74 % 1009,0 hPa 0,0 l/m 12,6 km/h (3 Bft) O-SO 120 0 min 0,000 mm 0,0 UV-I 50 W/m 10,0 C 11,6 C 17,7 km/h (3 Bft) 100,00 %
04.05.2017 18:06 14,6 C 15,6 C 74 % 1009,1 hPa 0,0 l/m 14,2 km/h (3 Bft) O-SO 106 0 min 0,000 mm 0,0 UV-I 42 W/m 10,0 C 11,0 C 24,1 km/h (4 Bft) 96,36 %
04.05.2017 18:08 14,6 C 15,6 C 74 % 1009,2 hPa 0,0 l/m 11,1 km/h (2 Bft) NO 52 0 min 0,000 mm 0,0 UV-I 38 W/m 10,0 C 12,2 C 17,7 km/h (3 Bft) 92,86 %
04.05.2017 18:10 14,4 C 15,6 C 76 % 1009,2 hPa 0,0 l/m 12,2 km/h (2 Bft) O 101 0 min 0,000 mm 0,0 UV-I 37 W/m 10,2 C 11,5 C 17,7 km/h (3 Bft) 94,34 %
04.05.2017 18:12 14,4 C 15,6 C 77 % 1009,2 hPa 0,0 l/m 10,5 km/h (2 Bft) O 92 0 min 0,000 mm 0,0 UV-I 37 W/m 10,4 C 12,2 C 17,7 km/h (3 Bft) 100,00 %
04.05.2017 18:14 14,3 C 15,6 C 77 % 1009,2 hPa 0,0 l/m 9,6 km/h (2 Bft) O-NO 69 0 min 0,000 mm 0,0 UV-I 37 W/m 10,3 C 12,5 C 14,5 km/h (3 Bft) 98,11 %
04.05.2017 18:16 14,3 C 15,6 C 78 % 1009,2 hPa 0,0 l/m 10,9 km/h (2 Bft) O-NO 72 0 min 0,000 mm 0,0 UV-I 35 W/m 10,5 C 11,9 C 17,7 km/h (3 Bft) 95,74 %
04.05.2017 18:18 14,3 C 15,6 C 78 % 1009,2 hPa 0,0 l/m 9,5 km/h (2 Bft) O 92 0 min 0,000 mm 0,0 UV-I 35 W/m 10,5 C 12,6 C 11,3 km/h (2 Bft) 100,00 %
04.05.2017 18:20 14,2 C 15,6 C 79 % 1009,3 hPa 0,0 l/m 10,0 km/h (2 Bft) S-SO 150 0 min 0,000 mm 0,0 UV-I 35 W/m 10,6 C 12,2 C 12,9 km/h (3 Bft) 100,00 %
04.05.2017 18:22 14,2 C 15,6 C 78 % 1009,3 hPa 0,0 l/m 7,1 km/h (2 Bft) SO 136 0 min 0,000 mm 0,0 UV-I 37 W/m 10,4 C 13,8 C 11,3 km/h (2 Bft) 98,00 %
04.05.2017 18:24 14,3 C 15,6 C 79 % 1009,3 hPa 0,0 l/m 7,4 km/h (2 Bft) O-SO 107 0 min 0,000 mm 0,0 UV-I 38 W/m 10,7 C 13,7 C 11,3 km/h (2 Bft) 100,00 %
04.05.2017 18:26 14,3 C 15,6 C 79 % 1009,4 hPa 0,0 l/m 10,2 km/h (2 Bft) O 96 0 min 0,000 mm 0,0 UV-I 39 W/m 10,7 C 12,3 C 16,1 km/h (3 Bft) 92,11 %
04.05.2017 18:28 14,3 C 15,6 C 79 % 1009,4 hPa 0,0 l/m 10,4 km/h (2 Bft) S-SO 150 0 min 0,000 mm 0,0 UV-I 40 W/m 10,7 C 12,2 C 14,5 km/h (3 Bft) 100,00 %
04.05.2017 18:30 14,3 C 15,6 C 79 % 1009,3 hPa 0,0 l/m 7,7 km/h (2 Bft) SO 126 0 min 0,000 mm 0,0 UV-I 40 W/m 10,7 C 13,5 C 14,5 km/h (3 Bft) 98,11 %
04.05.2017 18:32 14,4 C 15,6 C 79 % 1009,3 hPa 0,0 l/m 6,9 km/h (2 Bft) S-SO 158 0 min 0,000 mm 0,0 UV-I 40 W/m 10,8 C 14,1 C 12,9 km/h (3 Bft) 97,37 %
04.05.2017 18:34 14,4 C 15,6 C 78 % 1009,4 hPa 0,0 l/m 9,0 km/h (2 Bft) O-SO 123 0 min 0,000 mm 0,0 UV-I 40 W/m 10,6 C 12,9 C 14,5 km/h (3 Bft) 100,00 %
04.05.2017 18:36 14,5 C 15,6 C 78 % 1009,3 hPa 0,0 l/m 6,8 km/h (2 Bft) O-SO 113 0 min 0,000 mm 0,0 UV-I 40 W/m 10,7 C 14,3 C 11,3 km/h (2 Bft) 100,00 %
04.05.2017 18:38 14,4 C 15,6 C 79 % 1009,3 hPa 0,0 l/m 5,1 km/h (1 Bft) O 92 0 min 0,000 mm 0,0 UV-I 40 W/m 10,8 C 14,4 C 9,7 km/h (2 Bft) 100,00 %
04.05.2017 18:40 14,4 C 15,6 C 79 % 1009,3 hPa 0,0 l/m 2,8 km/h (1 Bft) S-SO 150 0 min 0,000 mm 0,0 UV-I 40 W/m 10,8 C 14,4 C 6,4 km/h (2 Bft) 94,00 %
04.05.2017 18:42 14,4 C 15,6 C 79 % 1009,4 hPa 0,0 l/m 2,6 km/h (1 Bft) O-SO 119 0 min 0,000 mm 0,0 UV-I 40 W/m 10,8 C 14,4 C 4,8 km/h (1 Bft) 97,62 %
04.05.2017 18:44 14,4 C 15,6 C 80 % 1009,4 hPa 0,0 l/m 6,3 km/h (2 Bft) O 101 0 min 0,000 mm 0,0 UV-I 42 W/m 11,0 C 14,4 C 14,5 km/h (3 Bft) 97,87 %
04.05.2017 18:46 14,3 C 15,6 C 79 % 1009,4 hPa 0,0 l/m 8,5 km/h (2 Bft) O 84 0 min 0,000 mm 0,0 UV-I 42 W/m 10,7 C 13,1 C 12,9 km/h (3 Bft) 93,62 %
04.05.2017 18:48 14,3 C 15,6 C 79 % 1009,4 hPa 0,0 l/m 7,3 km/h (2 Bft) SO 131 0 min 0,000 mm 0,0 UV-I 42 W/m 10,7 C 13,8 C 11,3 km/h (2 Bft) 97,37 %
04.05.2017 18:50 14,3 C 15,6 C 79 % 1009,5 hPa 0,0 l/m 10,4 km/h (2 Bft) O-SO 106 0 min 0,000 mm 0,0 UV-I 42 W/m 10,7 C 12,2 C 16,1 km/h (3 Bft) 96,23 %
04.05.2017 18:52 14,3 C 15,6 C 79 % 1009,5 hPa 0,0 l/m 8,5 km/h (2 Bft) O 82 0 min 0,000 mm 0,0 UV-I 40 W/m 10,7 C 13,1 C 12,9 km/h (3 Bft) 94,34 %
04.05.2017 18:54 14,3 C 15,6 C 79 % 1009,6 hPa 0,0 l/m 4,7 km/h (1 Bft) O-SO 119 0 min 0,000 mm 0,0 UV-I 40 W/m 10,7 C 14,3 C 6,4 km/h (2 Bft) 92,11 %
04.05.2017 18:56 14,3 C 15,6 C 80 % 1009,6 hPa 0,0 l/m 4,0 km/h (1 Bft) O 98 0 min 0,000 mm 0,0 UV-I 42 W/m 10,9 C 14,3 C 9,7 km/h (2 Bft) 96,43 %
04.05.2017 18:58 14,3 C 15,6 C 79 % 1009,6 hPa 0,0 l/m 4,5 km/h (1 Bft) O-SO 116 0 min 0,000 mm 0,0 UV-I 44 W/m 10,7 C 14,3 C 8,0 km/h (2 Bft) 95,74 %
04.05.2017 19:00 14,3 C 15,6 C 79 % 1009,7 hPa 0,0 l/m 3,0 km/h (1 Bft) SO 127 0 min 0,000 mm 0,0 UV-I 42 W/m 10,7 C 14,3 C 6,4 km/h (2 Bft) 96,00 %
04.05.2017 19:02 14,4 C 15,6 C 79 % 1009,7 hPa 0,0 l/m 4,4 km/h (1 Bft) SO 135 0 min 0,051 mm 0,0 UV-I 39 W/m 10,8 C 14,4 C 6,4 km/h (2 Bft) 95,74 %
04.05.2017 19:04 14,4 C 15,6 C 78 % 1009,7 hPa 0,0 l/m 6,4 km/h (2 Bft) O-SO 107 0 min 0,000 mm 0,0 UV-I 37 W/m 10,6 C 14,4 C 12,9 km/h (3 Bft) 90,91 %
04.05.2017 19:06 14,4 C 15,6 C 78 % 1009,8 hPa 0,0 l/m 5,7 km/h (1 Bft) O-SO 109 0 min 0,000 mm 0,0 UV-I 36 W/m 10,6 C 14,4 C 11,3 km/h (2 Bft) 97,37 %
04.05.2017 19:08 14,4 C 15,6 C 78 % 1009,8 hPa 0,0 l/m 5,7 km/h (1 Bft) O-NO 61 0 min 0,000 mm 0,0 UV-I 34 W/m 10,6 C 14,4 C 8,0 km/h (2 Bft) 94,34 %
04.05.2017 19:10 14,4 C 15,6 C 77 % 1009,8 hPa 0,0 l/m 5,6 km/h (1 Bft) O 88 0 min 0,000 mm 0,0 UV-I 33 W/m 10,4 C 14,4 C 8,0 km/h (2 Bft) 93,18 %
04.05.2017 19:12 14,4 C 15,6 C 77 % 1009,9 hPa 0,0 l/m 5,3 km/h (1 Bft) O-NO 64 0 min 0,000 mm 0,0 UV-I 33 W/m 10,4 C 14,4 C 8,0 km/h (2 Bft) 95,12 %
04.05.2017 19:14 14,3 C 15,6 C 78 % 1009,9 hPa 0,0 l/m 5,1 km/h (1 Bft) O-NO 58 0 min 0,000 mm 0,0 UV-I 33 W/m 10,5 C 14,3 C 6,4 km/h (2 Bft) 92,00 %
04.05.2017 19:16 14,3 C 15,6 C 79 % 1010,0 hPa 0,0 l/m 3,4 km/h (1 Bft) O-NO 60 0 min 0,000 mm 0,0 UV-I 32 W/m 10,7 C 14,3 C 6,4 km/h (2 Bft) 94,00 %
04.05.2017 19:18 14,2 C 15,6 C 80 % 1010,1 hPa 0,0 l/m 3,1 km/h (1 Bft) NO 55 0 min 0,000 mm 0,0 UV-I 28 W/m 10,8 C 14,2 C 4,8 km/h (1 Bft) 94,00 %
04.05.2017 19:20 14,1 C 15,6 C 81 % 1010,1 hPa 0,0 l/m 1,6 km/h (1 Bft) NO 51 0 min 0,000 mm 0,0 UV-I 26 W/m 10,9 C 14,1 C 4,8 km/h (1 Bft) 96,00 %
04.05.2017 19:22 13,9 C 15,6 C 82 % 1010,1 hPa 0,0 l/m 0,6 km/h (0 Bft) NO 46 0 min 0,000 mm 0,0 UV-I 25 W/m 10,9 C 13,9 C 3,2 km/h (1 Bft) 92,31 %
04.05.2017 19:24 13,8 C 15,6 C 82 % 1010,2 hPa 0,0 l/m 0,2 km/h (0 Bft) NO 35 0 min 0,000 mm 0,0 UV-I 22 W/m 10,8 C 13,8 C 1,6 km/h (1 Bft) 94,55 %
04.05.2017 19:26 13,8 C 15,6 C 81 % 1010,2 hPa 0,0 l/m 0,2 km/h (0 Bft) NO 35 0 min 0,000 mm 0,0 UV-I 21 W/m 10,6 C 13,8 C 1,6 km/h (1 Bft) 93,62 %
04.05.2017 19:28 13,8 C 15,6 C 82 % 1010,2 hPa 0,0 l/m 0,0 km/h (0 Bft) NO 35 0 min 0,000 mm 0,0 UV-I 20 W/m 10,8 C 13,8 C 0,0 km/h (0 Bft) 94,44 %
04.05.2017 19:30 13,8 C 15,6 C 81 % 1010,2 hPa 0,0 l/m 2,3 km/h (1 Bft) NO 35 0 min 0,000 mm 0,0 UV-I 19 W/m 10,6 C 13,8 C 4,8 km/h (1 Bft) 96,23 %
04.05.2017 19:32 13,8 C 15,6 C 81 % 1010,2 hPa 0,0 l/m 4,5 km/h (1 Bft) NO 43 0 min 0,000 mm 0,0 UV-I 17 W/m 10,6 C 13,8 C 8,0 km/h (2 Bft) 95,74 %
04.05.2017 19:34 13,9 C 15,6 C 80 % 1010,2 hPa 0,0 l/m 6,3 km/h (2 Bft) NO 43 0 min 0,000 mm 0,0 UV-I 15 W/m 10,5 C 13,9 C 9,7 km/h (2 Bft) 93,62 %
04.05.2017 19:36 13,9 C 15,6 C 80 % 1010,3 hPa 0,0 l/m 8,9 km/h (2 Bft) O-NO 59 0 min 0,000 mm 0,0 UV-I 13 W/m 10,5 C 12,5 C 16,1 km/h (3 Bft) 97,73 %
04.05.2017 19:38 13,9 C 15,6 C 80 % 1010,3 hPa 0,0 l/m 7,9 km/h (2 Bft) O 85 0 min 0,000 mm 0,0 UV-I 12 W/m 10,5 C 13,0 C 12,9 km/h (3 Bft) 98,00 %
04.05.2017 19:40 13,9 C 15,6 C 80 % 1010,3 hPa 0,0 l/m 12,2 km/h (2 Bft) O-NO 63 0 min 0,000 mm 0,0 UV-I 12 W/m 10,5 C 10,9 C 17,7 km/h (3 Bft) 97,56 %
04.05.2017 19:43 13,9 C 15,6 C 78 % 1010,4 hPa 0,0 l/m 11,9 km/h (2 Bft) O-NO 63 0 min 0,000 mm 0,0 UV-I 12 W/m 10,1 C 11,0 C 22,5 km/h (4 Bft) 98,68 %
04.05.2017 19:44 13,8 C 15,6 C 77 % 1010,3 hPa 0,0 l/m 18,9 km/h (3 Bft) O-NO 68 0 min 0,000 mm 0,0 UV-I 11 W/m 9,8 C 8,5 C 29,0 km/h (5 Bft) 96,30 %
04.05.2017 19:46 13,8 C 15,6 C 76 % 1010,3 hPa 0,0 l/m 18,1 km/h (3 Bft) NO 55 0 min 0,000 mm 0,0 UV-I 11 W/m 9,6 C 8,7 C 24,1 km/h (4 Bft) 97,56 %
04.05.2017 19:48 13,8 C 15,6 C 76 % 1010,3 hPa 0,0 l/m 17,1 km/h (3 Bft) NO 47 0 min 0,000 mm 0,0 UV-I 10 W/m 9,6 C 9,0 C 22,5 km/h (4 Bft) 97,87 %
04.05.2017 19:50 13,7 C 15,6 C 77 % 1010,3 hPa 0,0 l/m 13,7 km/h (3 Bft) O-NO 63 0 min 0,000 mm 0,0 UV-I 9 W/m 9,7 C 10,1 C 17,7 km/h (3 Bft) 97,56 %
04.05.2017 19:52 13,6 C 15,6 C 77 % 1010,3 hPa 0,0 l/m 13,7 km/h (3 Bft) O-NO 61 0 min 0,000 mm 0,0 UV-I 9 W/m 9,6 C 10,0 C 20,9 km/h (4 Bft) 100,00 %
04.05.2017 19:54 13,4 C 15,6 C 78 % 1010,3 hPa 0,0 l/m 9,4 km/h (2 Bft) NO 53 0 min 0,000 mm 0,0 UV-I 9 W/m 9,6 C 11,7 C 14,5 km/h (3 Bft) 100,00 %
04.05.2017 19:56 13,3 C 15,6 C 79 % 1010,4 hPa 0,0 l/m 8,9 km/h (2 Bft) NO 38 0 min 0,000 mm 0,0 UV-I 9 W/m 9,7 C 11,8 C 17,7 km/h (3 Bft) 98,11 %
04.05.2017 19:58 13,1 C 15,6 C 79 % 1010,4 hPa 0,0 l/m 8,5 km/h (2 Bft) N-NO 17 0 min 0,000 mm 0,0 UV-I 7 W/m 9,5 C 11,8 C 12,9 km/h (3 Bft) 100,00 %
04.05.2017 20:00 12,9 C 15,6 C 80 % 1010,4 hPa 0,0 l/m 5,7 km/h (1 Bft) NO 36 0 min 0,026 mm 0,0 UV-I 7 W/m 9,5 C 12,9 C 11,3 km/h (2 Bft) 100,00 %
04.05.2017 20:02 12,8 C 15,6 C 81 % 1010,5 hPa 0,2 l/m 1,9 km/h (1 Bft) N 11 0 min 0,000 mm 0,0 UV-I 7 W/m 9,6 C 12,8 C 4,8 km/h (1 Bft) 100,00 %
04.05.2017 20:04 12,7 C 15,6 C 82 % 1010,5 hPa 0,0 l/m 2,5 km/h (1 Bft) N 349 0 min 0,000 mm 0,0 UV-I 7 W/m 9,7 C 12,7 C 4,8 km/h (1 Bft) 98,00 %
04.05.2017 20:06 12,7 C 15,6 C 82 % 1010,5 hPa 0,0 l/m 2,6 km/h (1 Bft) NW 315 0 min 0,000 mm 0,0 UV-I 7 W/m 9,7 C 12,7 C 4,8 km/h (1 Bft) 100,00 %
04.05.2017 20:08 12,7 C 15,6 C 82 % 1010,6 hPa 0,0 l/m 3,1 km/h (1 Bft) N-NW 338 0 min 0,000 mm 0,0 UV-I 5 W/m 9,7 C 12,7 C 4,8 km/h (1 Bft) 100,00 %
04.05.2017 20:10 12,7 C 15,6 C 81 % 1010,6 hPa 0,0 l/m 2,8 km/h (1 Bft) N 11 0 min 0,000 mm 0,0 UV-I 5 W/m 9,5 C 12,7 C 4,8 km/h (1 Bft) 100,00 %
04.05.2017 20:12 12,7 C 15,6 C 81 % 1010,7 hPa 0,0 l/m 0,9 km/h (0 Bft) N 5 0 min 0,000 mm 0,0 UV-I 5 W/m 9,5 C 12,7 C 4,8 km/h (1 Bft) 100,00 %
04.05.2017 20:14 12,6 C 15,6 C 81 % 1010,7 hPa 0,0 l/m 1,2 km/h (1 Bft) N 351 0 min 0,000 mm 0,0 UV-I 5 W/m 9,4 C 12,6 C 3,2 km/h (1 Bft) 100,00 %
04.05.2017 20:16 12,7 C 15,6 C 82 % 1010,7 hPa 0,0 l/m 0,1 km/h (0 Bft) N 351 0 min 0,000 mm 0,0 UV-I 5 W/m 9,7 C 12,7 C 1,6 km/h (1 Bft) 100,00 %
04.05.2017 20:18 12,7 C 15,6 C 81 % 1010,7 hPa 0,0 l/m 1,2 km/h (1 Bft) N 360 0 min 0,000 mm 0,0 UV-I 5 W/m 9,5 C 12,7 C 6,4 km/h (2 Bft) 100,00 %
04.05.2017 20:20 12,7 C 15,6 C 81 % 1010,7 hPa 0,0 l/m 2,6 km/h (1 Bft) N 355 0 min 0,000 mm 0,0 UV-I 5 W/m 9,5 C 12,7 C 4,8 km/h (1 Bft) 98,00 %
04.05.2017 20:22 12,6 C 15,6 C 81 % 1010,8 hPa 0,0 l/m 1,2 km/h (1 Bft) N 355 0 min 0,000 mm 0,0 UV-I 5 W/m 9,4 C 12,6 C 3,2 km/h (1 Bft) 100,00 %
04.05.2017 20:24 12,6 C 15,6 C 81 % 1010,8 hPa 0,0 l/m 1,3 km/h (1 Bft) N-NW 336 0 min 0,000 mm 0,0 UV-I 5 W/m 9,4 C 12,6 C 3,2 km/h (1 Bft) 100,00 %
04.05.2017 20:26 12,6 C 15,6 C 80 % 1010,9 hPa 0,0 l/m 2,9 km/h (1 Bft) N-NW 338 0 min 0,000 mm 0,0 UV-I 1 W/m 9,2 C 12,6 C 4,8 km/h (1 Bft) 96,30 %
04.05.2017 20:30 12,8 C 15,6 C 80 % 1010,9 hPa 0,0 l/m 1,6 km/h (1 Bft) N 5 0 min 0,000 mm 0,0 UV-I 0 W/m 9,4 C 12,8 C 3,2 km/h (1 Bft) 100,00 %
04.05.2017 20:32 12,7 C 15,6 C 81 % 1010,9 hPa 0,0 l/m 2,6 km/h (1 Bft) N 11 0 min 0,000 mm 0,0 UV-I 0 W/m 9,5 C 12,7 C 4,8 km/h (1 Bft) 97,37 %
04.05.2017 20:34 12,5 C 15,6 C 81 % 1010,9 hPa 0,0 l/m 1,5 km/h (1 Bft) N 10 0 min 0,000 mm 0,0 UV-I 0 W/m 9,3 C 12,5 C 3,2 km/h (1 Bft) 100,00 %
04.05.2017 20:36 12,3 C 15,6 C 82 % 1010,9 hPa 0,0 l/m 1,9 km/h (1 Bft) N-NO 29 0 min 0,000 mm 0,0 UV-I 0 W/m 9,3 C 12,3 C 4,8 km/h (1 Bft) 98,11 %
04.05.2017 20:38 12,3 C 15,6 C 82 % 1011,0 hPa 0,0 l/m 4,5 km/h (1 Bft) N-NO 33 0 min 0,000 mm 0,0 UV-I 0 W/m 9,3 C 12,3 C 8,0 km/h (2 Bft) 100,00 %
04.05.2017 20:40 12,4 C 15,6 C 81 % 1011,0 hPa 0,0 l/m 4,6 km/h (1 Bft) N 355 0 min 0,000 mm 0,0 UV-I 0 W/m 9,2 C 12,4 C 8,0 km/h (2 Bft) 100,00 %
04.05.2017 20:42 12,4 C 15,6 C 81 % 1011,1 hPa 0,0 l/m 0,5 km/h (0 Bft) N 355 0 min 0,000 mm 0,0 UV-I 0 W/m 9,2 C 12,4 C 3,2 km/h (1 Bft) 100,00 %
04.05.2017 20:44 12,4 C 15,6 C 82 % 1011,2 hPa 0,0 l/m 0,3 km/h (0 Bft) N 355 0 min 0,000 mm 0,0 UV-I 0 W/m 9,4 C 12,4 C 1,6 km/h (1 Bft) 97,87 %
04.05.2017 20:46 12,4 C 15,6 C 82 % 1011,3 hPa 0,0 l/m 2,3 km/h (1 Bft) NW 308 0 min 0,000 mm 0,0 UV-I 0 W/m 9,4 C 12,4 C 4,8 km/h (1 Bft) 100,00 %
04.05.2017 20:48 12,5 C 15,6 C 82 % 1011,4 hPa 0,0 l/m 1,4 km/h (1 Bft) W-NW 288 0 min 0,000 mm 0,0 UV-I 0 W/m 9,5 C 12,5 C 3,2 km/h (1 Bft) 97,56 %
04.05.2017 20:50 12,5 C 15,6 C 82 % 1011,6 hPa 0,0 l/m 1,2 km/h (1 Bft) W-SW 251 0 min 0,000 mm 0,0 UV-I 0 W/m 9,5 C 12,5 C 3,2 km/h (1 Bft) 100,00 %
04.05.2017 20:52 12,4 C 15,6 C 83 % 1011,7 hPa 0,0 l/m 4,2 km/h (1 Bft) W-SW 238 0 min 0,000 mm 0,0 UV-I 0 W/m 9,6 C 12,4 C 6,4 km/h (2 Bft) 94,34 %
04.05.2017 20:54 12,4 C 15,6 C 83 % 1011,8 hPa 0,0 l/m 12,8 km/h (3 Bft) W-SW 254 0 min 0,000 mm 0,0 UV-I 0 W/m 9,6 C 8,9 C 19,3 km/h (3 Bft) 100,00 %
04.05.2017 20:56 12,6 C 15,6 C 83 % 1011,9 hPa 0,0 l/m 8,7 km/h (2 Bft) W 262 0 min 0,000 mm 0,0 UV-I 0 W/m 9,8 C 11,2 C 12,9 km/h (3 Bft) 97,87 %
04.05.2017 20:58 12,7 C 15,6 C 83 % 1011,9 hPa 0,0 l/m 11,5 km/h (2 Bft) S-SW 194 0 min 0,000 mm 0,0 UV-I 0 W/m 9,9 C 9,8 C 16,1 km/h (3 Bft) 98,00 %
04.05.2017 21:00 12,7 C 15,6 C 82 % 1011,9 hPa 0,0 l/m 13,4 km/h (3 Bft) W 263 0 min 0,000 mm 0,0 UV-I 0 W/m 9,7 C 9,0 C 22,5 km/h (4 Bft) 97,87 %
04.05.2017 21:02 12,7 C 15,6 C 82 % 1012,0 hPa 0,0 l/m 5,2 km/h (1 Bft) W 277 0 min 0,000 mm 0,0 UV-I 0 W/m 9,7 C 12,7 C 11,3 km/h (2 Bft) 98,11 %
04.05.2017 21:04 12,6 C 15,6 C 81 % 1011,9 hPa 0,0 l/m 12,1 km/h (2 Bft) SW 224 0 min 0,000 mm 0,0 UV-I 0 W/m 9,4 C 9,5 C 17,7 km/h (3 Bft) 97,56 %
04.05.2017 21:06 12,5 C 15,6 C 80 % 1012,0 hPa 0,0 l/m 13,6 km/h (3 Bft) W-SW 254 0 min 0,000 mm 0,0 UV-I 0 W/m 9,1 C 8,7 C 20,9 km/h (4 Bft) 96,23 %
04.05.2017 21:08 12,4 C 15,6 C 79 % 1012,1 hPa 0,0 l/m 14,4 km/h (3 Bft) W 267 0 min 0,000 mm 0,0 UV-I 0 W/m 8,9 C 8,3 C 22,5 km/h (4 Bft) 97,56 %
04.05.2017 21:10 12,3 C 15,6 C 77 % 1012,1 hPa 0,0 l/m 16,0 km/h (3 Bft) W-SW 248 0 min 0,000 mm 0,0 UV-I 0 W/m 8,4 C 7,6 C 22,5 km/h (4 Bft) 92,45 %
04.05.2017 21:12 12,2 C 15,6 C 78 % 1012,2 hPa 0,0 l/m 13,6 km/h (3 Bft) W-SW 257 0 min 0,000 mm 0,0 UV-I 0 W/m 8,5 C 8,4 C 22,5 km/h (4 Bft) 97,87 %
04.05.2017 21:14 12,1 C 15,6 C 78 % 1012,3 hPa 0,0 l/m 17,5 km/h (3 Bft) W-SW 247 0 min 0,000 mm 0,0 UV-I 0 W/m 8,4 C 6,8 C 24,1 km/h (4 Bft) 97,56 %
04.05.2017 21:16 12,0 C 15,6 C 78 % 1012,4 hPa 0,0 l/m 13,3 km/h (3 Bft) W-SW 241 0 min 0,000 mm 0,0 UV-I 0 W/m 8,3 C 8,2 C 19,3 km/h (3 Bft) 92,00 %
04.05.2017 21:18 11,9 C 15,6 C 78 % 1012,5 hPa 0,0 l/m 9,9 km/h (2 Bft) W-SW 242 0 min 0,000 mm 0,0 UV-I 0 W/m 8,2 C 9,7 C 14,5 km/h (3 Bft) 97,56 %
04.05.2017 21:20 11,8 C 15,6 C 79 % 1012,6 hPa 0,0 l/m 12,7 km/h (3 Bft) S-SW 213 0 min 0,000 mm 0,0 UV-I 0 W/m 8,3 C 8,3 C 19,3 km/h (3 Bft) 92,86 %
04.05.2017 21:22 11,7 C 15,6 C 81 % 1012,7 hPa 0,0 l/m 13,4 km/h (3 Bft) S-SW 213 0 min 0,000 mm 0,0 UV-I 0 W/m 8,5 C 7,8 C 17,7 km/h (3 Bft) 96,43 %
04.05.2017 21:24 11,3 C 15,6 C 82 % 1012,7 hPa 0,0 l/m 14,5 km/h (3 Bft) SW 231 0 min 0,000 mm 0,0 UV-I 0 W/m 8,3 C 6,9 C 20,9 km/h (4 Bft) 95,74 %
04.05.2017 21:26 11,1 C 15,6 C 83 % 1012,8 hPa 0,2 l/m 13,3 km/h (3 Bft) S-SW 203 0 min 0,000 mm 0,0 UV-I 0 W/m 8,3 C 7,2 C 22,5 km/h (4 Bft) 96,00 %
04.05.2017 21:28 10,8 C 15,6 C 84 % 1012,9 hPa 0,0 l/m 15,2 km/h (3 Bft) S-SW 198 0 min 0,000 mm 0,0 UV-I 0 W/m 8,2 C 6,0 C 24,1 km/h (4 Bft) 97,14 %
04.05.2017 21:30 10,6 C 15,6 C 85 % 1012,9 hPa 0,0 l/m 10,2 km/h (2 Bft) S 180 0 min 0,000 mm 0,0 UV-I 0 W/m 8,2 C 8,1 C 19,3 km/h (3 Bft) 98,21 %
04.05.2017 21:32 10,4 C 15,6 C 86 % 1012,9 hPa 0,0 l/m 7,2 km/h (2 Bft) SW 225 0 min 0,000 mm 0,0 UV-I 0 W/m 8,2 C 9,8 C 11,3 km/h (2 Bft) 94,74 %
04.05.2017 21:34 10,4 C 15,6 C 87 % 1012,9 hPa 0,2 l/m 11,5 km/h (2 Bft) SW 224 0 min 0,000 mm 0,0 UV-I 0 W/m 8,3 C 7,2 C 16,1 km/h (3 Bft) 92,45 %
04.05.2017 21:36 10,3 C 15,6 C 88 % 1012,9 hPa 0,2 l/m 10,2 km/h (2 Bft) SW 235 0 min 0,000 mm 0,0 UV-I 0 W/m 8,4 C 7,8 C 16,1 km/h (3 Bft) 100,00 %
04.05.2017 21:38 10,2 C 15,6 C 88 % 1013,0 hPa 0,0 l/m 12,0 km/h (2 Bft) SW 233 0 min 0,000 mm 0,0 UV-I 0 W/m 8,3 C 6,7 C 17,7 km/h (3 Bft) 100,00 %
04.05.2017 21:40 10,2 C 15,6 C 89 % 1013,0 hPa 0,2 l/m 13,9 km/h (3 Bft) W-SW 243 0 min 0,000 mm 0,0 UV-I 0 W/m 8,5 C 5,8 C 19,3 km/h (3 Bft) 100,00 %
04.05.2017 21:42 10,2 C 15,6 C 90 % 1013,0 hPa 0,2 l/m 10,2 km/h (2 Bft) S 186 0 min 0,000 mm 0,0 UV-I 0 W/m 8,6 C 7,7 C 16,1 km/h (3 Bft) 96,23 %
04.05.2017 21:44 10,1 C 15,6 C 90 % 1013,0 hPa 0,2 l/m 12,3 km/h (3 Bft) S-SW 193 0 min 0,000 mm 0,0 UV-I 0 W/m 8,5 C 6,5 C 19,3 km/h (3 Bft) 95,12 %
04.05.2017 21:46 10,0 C 15,6 C 90 % 1013,1 hPa 0,2 l/m 10,1 km/h (2 Bft) W-SW 246 0 min 0,000 mm 0,0 UV-I 0 W/m 8,4 C 7,5 C 16,1 km/h (3 Bft) 94,34 %
04.05.2017 21:48 9,9 C 15,6 C 90 % 1013,1 hPa 0,0 l/m 13,8 km/h (3 Bft) W-SW 237 0 min 0,000 mm 0,0 UV-I 0 W/m 8,3 C 5,5 C 22,5 km/h (4 Bft) 100,00 %
04.05.2017 21:50 9,9 C 15,6 C 91 % 1013,1 hPa 0,2 l/m 6,8 km/h (2 Bft) W 277 0 min 0,000 mm 0,0 UV-I 0 W/m 8,5 C 9,6 C 11,3 km/h (2 Bft) 100,00 %
04.05.2017 21:52 9,9 C 15,6 C 91 % 1013,1 hPa 0,2 l/m 8,6 km/h (2 Bft) W-SW 257 0 min 0,000 mm 0,0 UV-I 0 W/m 8,5 C 8,3 C 14,5 km/h (3 Bft) 100,00 %
04.05.2017 21:54 9,9 C 15,6 C 91 % 1013,2 hPa 0,0 l/m 9,0 km/h (2 Bft) W-SW 252 0 min 0,000 mm 0,0 UV-I 0 W/m 8,5 C 8,1 C 12,9 km/h (3 Bft) 98,00 %
04.05.2017 21:56 9,8 C 15,6 C 92 % 1013,2 hPa 0,0 l/m 6,8 km/h (2 Bft) W-SW 250 0 min 0,000 mm 0,0 UV-I 0 W/m 8,6 C 9,5 C 11,3 km/h (2 Bft) 100,00 %
04.05.2017 21:58 9,8 C 15,6 C 92 % 1013,2 hPa 0,2 l/m 7,8 km/h (2 Bft) W 279 0 min 0,000 mm 0,0 UV-I 0 W/m 8,6 C 8,8 C 11,3 km/h (2 Bft) 100,00 %
04.05.2017 22:00 9,8 C 15,6 C 92 % 1013,2 hPa 0,2 l/m 7,0 km/h (2 Bft) W-SW 252 0 min 0,000 mm 0,0 UV-I 0 W/m 8,6 C 9,4 C 11,3 km/h (2 Bft) 100,00 %
04.05.2017 22:02 9,8 C 15,6 C 92 % 1013,2 hPa 0,0 l/m 9,3 km/h (2 Bft) W-SW 258 0 min 0,025 mm 0,0 UV-I 0 W/m 8,6 C 7,8 C 14,5 km/h (3 Bft) 100,00 %
04.05.2017 22:04 9,8 C 15,6 C 92 % 1013,3 hPa 0,2 l/m 9,9 km/h (2 Bft) W-SW 252 0 min 0,000 mm 0,0 UV-I 0 W/m 8,6 C 7,4 C 12,9 km/h (3 Bft) 100,00 %
04.05.2017 22:06 9,8 C 15,6 C 92 % 1013,3 hPa 0,2 l/m 6,9 km/h (2 Bft) SW 236 0 min 0,000 mm 0,0 UV-I 0 W/m 8,6 C 9,4 C 12,9 km/h (3 Bft) 96,55 %
04.05.2017 22:08 9,7 C 15,6 C 93 % 1013,3 hPa 0,0 l/m 7,4 km/h (2 Bft) W-SW 254 0 min 0,000 mm 0,0 UV-I 0 W/m 8,6 C 9,0 C 11,3 km/h (2 Bft) 97,56 %
04.05.2017 22:10 9,7 C 15,6 C 93 % 1013,3 hPa 0,2 l/m 13,6 km/h (3 Bft) W-SW 243 0 min 0,000 mm 0,0 UV-I 0 W/m 8,6 C 5,4 C 17,7 km/h (3 Bft) 100,00 %
04.05.2017 22:12 9,7 C 15,6 C 93 % 1013,3 hPa 0,2 l/m 10,1 km/h (2 Bft) W-SW 250 0 min 0,000 mm 0,0 UV-I 0 W/m 8,6 C 7,2 C 14,5 km/h (3 Bft) 97,44 %
04.05.2017 22:14 9,7 C 15,6 C 93 % 1013,3 hPa 0,0 l/m 7,7 km/h (2 Bft) W 263 0 min 0,000 mm 0,0 UV-I 0 W/m 8,6 C 8,7 C 11,3 km/h (2 Bft) 98,00 %
04.05.2017 22:16 9,7 C 15,6 C 93 % 1013,3 hPa 0,2 l/m 9,6 km/h (2 Bft) SW 234 0 min 0,000 mm 0,0 UV-I 0 W/m 8,6 C 7,5 C 12,9 km/h (3 Bft) 96,23 %
04.05.2017 22:18 9,7 C 15,6 C 93 % 1013,4 hPa 0,2 l/m 9,8 km/h (2 Bft) W-SW 257 0 min 0,000 mm 0,0 UV-I 0 W/m 8,6 C 7,4 C 12,9 km/h (3 Bft) 97,37 %
04.05.2017 22:20 9,6 C 15,6 C 93 % 1013,4 hPa 0,2 l/m 10,1 km/h (2 Bft) W 276 0 min 0,000 mm 0,0 UV-I 0 W/m 8,5 C 7,1 C 16,1 km/h (3 Bft) 100,00 %
04.05.2017 22:22 9,6 C 15,6 C 93 % 1013,4 hPa 0,2 l/m 9,6 km/h (2 Bft) SW 221 0 min 0,000 mm 0,0 UV-I 0 W/m 8,5 C 7,4 C 12,9 km/h (3 Bft) 97,56 %
04.05.2017 22:24 9,6 C 15,6 C 93 % 1013,5 hPa 0,0 l/m 9,7 km/h (2 Bft) W-SW 237 0 min 0,000 mm 0,0 UV-I 0 W/m 8,5 C 7,3 C 16,1 km/h (3 Bft) 95,74 %
04.05.2017 22:26 9,6 C 15,6 C 94 % 1013,5 hPa 0,4 l/m 9,7 km/h (2 Bft) W-SW 239 0 min 0,000 mm 0,0 UV-I 0 W/m 8,7 C 7,3 C 12,9 km/h (3 Bft) 100,00 %
04.05.2017 22:28 9,6 C 15,6 C 94 % 1013,5 hPa 0,2 l/m 9,7 km/h (2 Bft) W-SW 248 0 min 0,000 mm 0,0 UV-I 0 W/m 8,7 C 7,3 C 12,9 km/h (3 Bft) 97,37 %
04.05.2017 22:30 9,5 C 15,6 C 94 % 1013,5 hPa 0,4 l/m 11,7 km/h (2 Bft) W-SW 258 0 min 0,000 mm 0,0 UV-I 0 W/m 8,6 C 6,1 C 16,1 km/h (3 Bft) 98,21 %
04.05.2017 22:32 9,5 C 15,6 C 94 % 1013,4 hPa 0,2 l/m 10,1 km/h (2 Bft) W 265 0 min 0,000 mm 0,0 UV-I 0 W/m 8,6 C 7,0 C 14,5 km/h (3 Bft) 97,56 %
04.05.2017 22:34 9,4 C 15,6 C 94 % 1013,5 hPa 0,2 l/m 9,7 km/h (2 Bft) W 264 0 min 0,000 mm 0,0 UV-I 0 W/m 8,5 C 7,1 C 16,1 km/h (3 Bft) 97,87 %
04.05.2017 22:36 9,4 C 15,6 C 94 % 1013,5 hPa 0,2 l/m 9,7 km/h (2 Bft) W 259 0 min 0,000 mm 0,0 UV-I 0 W/m 8,5 C 7,1 C 16,1 km/h (3 Bft) 96,23 %
04.05.2017 22:38 9,4 C 15,6 C 94 % 1013,5 hPa 0,4 l/m 11,5 km/h (2 Bft) W 267 0 min 0,000 mm 0,0 UV-I 0 W/m 8,5 C 6,1 C 17,7 km/h (3 Bft) 95,74 %
04.05.2017 22:40 9,4 C 15,6 C 94 % 1013,5 hPa 0,0 l/m 11,8 km/h (2 Bft) SW 227 0 min 0,000 mm 0,0 UV-I 0 W/m 8,5 C 5,9 C 20,9 km/h (4 Bft) 97,73 %
04.05.2017 22:42 9,4 C 15,6 C 94 % 1013,6 hPa 0,4 l/m 13,9 km/h (3 Bft) W-SW 248 0 min 0,000 mm 0,0 UV-I 0 W/m 8,5 C 4,9 C 20,9 km/h (4 Bft) 95,12 %
04.05.2017 22:44 9,4 C 15,6 C 94 % 1013,6 hPa 0,2 l/m 14,9 km/h (3 Bft) SW 235 0 min 0,000 mm 0,0 UV-I 0 W/m 8,5 C 4,5 C 24,1 km/h (4 Bft) 98,11 %
04.05.2017 22:46 9,4 C 15,6 C 94 % 1013,6 hPa 0,0 l/m 10,6 km/h (2 Bft) SW 225 0 min 0,000 mm 0,0 UV-I 0 W/m 8,5 C 6,6 C 16,1 km/h (3 Bft) 91,49 %
04.05.2017 22:48 9,3 C 15,6 C 94 % 1013,7 hPa 0,2 l/m 9,6 km/h (2 Bft) S-SW 207 0 min 0,000 mm 0,0 UV-I 0 W/m 8,4 C 7,1 C 16,1 km/h (3 Bft) 95,24 %
04.05.2017 22:50 9,4 C 15,6 C 95 % 1013,7 hPa 0,0 l/m 10,5 km/h (2 Bft) W-SW 248 0 min 0,000 mm 0,0 UV-I 0 W/m 8,6 C 6,6 C 14,5 km/h (3 Bft) 97,87 %
04.05.2017 22:52 9,3 C 15,6 C 95 % 1013,7 hPa 0,2 l/m 8,5 km/h (2 Bft) W-SW 248 0 min 0,000 mm 0,0 UV-I 0 W/m 8,5 C 7,8 C 12,9 km/h (3 Bft) 95,12 %
04.05.2017 22:54 9,3 C 15,6 C 95 % 1013,8 hPa 0,0 l/m 8,0 km/h (2 Bft) W-SW 250 0 min 0,000 mm 0,0 UV-I 0 W/m 8,5 C 8,1 C 14,5 km/h (3 Bft) 98,31 %
04.05.2017 22:56 9,3 C 15,6 C 95 % 1013,8 hPa 0,2 l/m 6,3 km/h (2 Bft) SW 231 0 min 0,000 mm 0,0 UV-I 0 W/m 8,5 C 9,3 C 8,0 km/h (2 Bft) 97,37 %
04.05.2017 22:58 9,3 C 15,6 C 95 % 1013,8 hPa 0,0 l/m 5,7 km/h (1 Bft) W-SW 241 0 min 0,000 mm 0,0 UV-I 0 W/m 8,5 C 9,3 C 9,7 km/h (2 Bft) 98,11 %
04.05.2017 23:00 9,3 C 15,6 C 95 % 1013,9 hPa 0,0 l/m 6,8 km/h (2 Bft) SW 216 0 min 0,000 mm 0,0 UV-I 0 W/m 8,5 C 9,0 C 11,3 km/h (2 Bft) 94,00 %
04.05.2017 23:02 9,3 C 15,6 C 95 % 1013,9 hPa 0,0 l/m 6,1 km/h (2 Bft) W-SW 243 0 min 0,000 mm 0,0 UV-I 0 W/m 8,5 C 9,3 C 11,3 km/h (2 Bft) 95,12 %
04.05.2017 23:04 9,4 C 15,6 C 95 % 1013,9 hPa 0,0 l/m 7,3 km/h (2 Bft) SW 215 0 min 0,000 mm 0,0 UV-I 0 W/m 8,6 C 8,7 C 11,3 km/h (2 Bft) 96,23 %
04.05.2017 23:06 9,4 C 15,6 C 95 % 1014,0 hPa 0,0 l/m 7,7 km/h (2 Bft) SW 231 0 min 0,000 mm 0,0 UV-I 0 W/m 8,6 C 8,4 C 14,5 km/h (3 Bft) 91,30 %
04.05.2017 23:08 9,4 C 15,6 C 95 % 1014,0 hPa 0,0 l/m 5,3 km/h (1 Bft) SW 215 0 min 0,000 mm 0,0 UV-I 0 W/m 8,6 C 9,4 C 6,4 km/h (2 Bft) 94,37 %
04.05.2017 23:10 9,4 C 15,6 C 95 % 1014,0 hPa 0,0 l/m 6,7 km/h (2 Bft) SW 232 0 min 0,000 mm 0,0 UV-I 0 W/m 8,6 C 9,2 C 11,3 km/h (2 Bft) 92,68 %
04.05.2017 23:12 9,4 C 15,6 C 95 % 1014,0 hPa 0,0 l/m 6,0 km/h (2 Bft) SW 232 0 min 0,000 mm 0,0 UV-I 0 W/m 8,6 C 9,4 C 8,0 km/h (2 Bft) 95,45 %
04.05.2017 23:14 9,4 C 15,6 C 95 % 1014,0 hPa 0,0 l/m 7,1 km/h (2 Bft) SW 235 0 min 0,000 mm 0,0 UV-I 0 W/m 8,6 C 8,9 C 12,9 km/h (3 Bft) 94,64 %
04.05.2017 23:16 9,4 C 15,6 C 95 % 1014,0 hPa 0,2 l/m 7,0 km/h (2 Bft) W-SW 244 0 min 0,000 mm 0,0 UV-I 0 W/m 8,6 C 9,0 C 9,7 km/h (2 Bft) 94,74 %
04.05.2017 23:18 9,4 C 15,6 C 95 % 1014,1 hPa 0,0 l/m 4,5 km/h (1 Bft) W-SW 249 0 min 0,000 mm 0,0 UV-I 0 W/m 8,6 C 9,4 C 6,4 km/h (2 Bft) 93,18 %
04.05.2017 23:20 9,4 C 15,6 C 95 % 1014,0 hPa 0,0 l/m 5,9 km/h (2 Bft) S-SW 213 0 min 0,000 mm 0,0 UV-I 0 W/m 8,6 C 9,4 C 9,7 km/h (2 Bft) 93,33 %
04.05.2017 23:22 9,4 C 15,6 C 95 % 1014,0 hPa 0,0 l/m 5,1 km/h (1 Bft) S-SW 212 0 min 0,000 mm 0,0 UV-I 0 W/m 8,6 C 9,4 C 6,4 km/h (2 Bft) 94,23 %
04.05.2017 23:24 9,4 C 15,6 C 94 % 1014,1 hPa 0,0 l/m 6,3 km/h (2 Bft) SW 223 0 min 0,000 mm 0,0 UV-I 0 W/m 8,5 C 9,4 C 11,3 km/h (2 Bft) 94,34 %
04.05.2017 23:26 9,4 C 15,6 C 94 % 1014,0 hPa 0,0 l/m 5,1 km/h (1 Bft) W-SW 242 0 min 0,000 mm 0,0 UV-I 0 W/m 8,5 C 9,4 C 9,7 km/h (2 Bft) 94,00 %
04.05.2017 23:28 9,4 C 15,6 C 94 % 1014,1 hPa 0,2 l/m 6,8 km/h (2 Bft) SW 217 0 min 0,000 mm 0,0 UV-I 0 W/m 8,5 C 9,1 C 11,3 km/h (2 Bft) 91,67 %
04.05.2017 23:30 9,4 C 15,0 C 94 % 1014,1 hPa 0,0 l/m 5,7 km/h (1 Bft) SW 219 0 min 0,000 mm 0,0 UV-I 0 W/m 8,5 C 9,4 C 8,0 km/h (2 Bft) 96,00 %
04.05.2017 23:32 9,4 C 15,6 C 94 % 1014,1 hPa 0,0 l/m 7,2 km/h (2 Bft) S-SW 207 0 min 0,000 mm 0,0 UV-I 0 W/m 8,5 C 8,8 C 14,5 km/h (3 Bft) 94,00 %
04.05.2017 23:34 9,4 C 15,0 C 94 % 1014,1 hPa 0,0 l/m 8,0 km/h (2 Bft) S-SW 203 0 min 0,000 mm 0,0 UV-I 0 W/m 8,5 C 8,2 C 11,3 km/h (2 Bft) 97,87 %
04.05.2017 23:36 9,4 C 15,6 C 94 % 1014,1 hPa 0,0 l/m 7,0 km/h (2 Bft) S-SW 208 0 min 0,000 mm 0,0 UV-I 0 W/m 8,5 C 9,0 C 12,9 km/h (3 Bft) 95,45 %
04.05.2017 23:38 9,4 C 15,6 C 94 % 1014,1 hPa 0,0 l/m 6,6 km/h (2 Bft) S-SW 201 0 min 0,000 mm 0,0 UV-I 0 W/m 8,5 C 9,3 C 9,7 km/h (2 Bft) 100,00 %
04.05.2017 23:40 9,4 C 15,6 C 94 % 1014,1 hPa 0,0 l/m 8,5 km/h (2 Bft) SW 221 0 min 0,000 mm 0,0 UV-I 0 W/m 8,5 C 7,9 C 12,9 km/h (3 Bft) 94,74 %
04.05.2017 23:43 9,4 C 15,6 C 94 % 1014,1 hPa 0,0 l/m 7,0 km/h (2 Bft) S-SW 196 0 min 0,000 mm 0,0 UV-I 0 W/m 8,5 C 9,0 C 11,3 km/h (2 Bft) 98,51 %
04.05.2017 23:44 9,4 C 15,0 C 94 % 1014,1 hPa 0,0 l/m 10,1 km/h (2 Bft) S-SW 208 0 min 0,000 mm 0,0 UV-I 0 W/m 8,5 C 6,9 C 12,9 km/h (3 Bft) 96,43 %
04.05.2017 23:46 9,5 C 15,0 C 94 % 1014,1 hPa 0,0 l/m 9,5 km/h (2 Bft) S-SW 202 0 min 0,000 mm 0,0 UV-I 0 W/m 8,6 C 7,3 C 14,5 km/h (3 Bft) 98,00 %
04.05.2017 23:48 9,5 C 15,0 C 94 % 1014,1 hPa 0,0 l/m 7,4 km/h (2 Bft) SW 231 0 min 0,000 mm 0,0 UV-I 0 W/m 8,6 C 8,8 C 9,7 km/h (2 Bft) 100,00 %
04.05.2017 23:50 9,5 C 15,6 C 94 % 1014,1 hPa 0,0 l/m 8,9 km/h (2 Bft) SW 229 0 min 0,000 mm 0,0 UV-I 0 W/m 8,6 C 7,7 C 12,9 km/h (3 Bft) 94,00 %
04.05.2017 23:52 9,5 C 15,0 C 94 % 1014,1 hPa 0,0 l/m 10,1 km/h (2 Bft) S-SW 199 0 min 0,000 mm 0,0 UV-I 0 W/m 8,6 C 7,0 C 14,5 km/h (3 Bft) 100,00 %
04.05.2017 23:54 9,5 C 15,0 C 94 % 1014,1 hPa 0,0 l/m 9,1 km/h (2 Bft) S-SW 209 0 min 0,000 mm 0,0 UV-I 0 W/m 8,6 C 7,6 C 12,9 km/h (3 Bft) 100,00 %
04.05.2017 23:56 9,5 C 15,0 C 94 % 1014,1 hPa 0,0 l/m 9,7 km/h (2 Bft) S-SW 203 0 min 0,000 mm 0,0 UV-I 0 W/m 8,6 C 7,2 C 14,5 km/h (3 Bft) 97,56 %
04.05.2017 23:58 9,5 C 15,0 C 94 % 1014,2 hPa 0,0 l/m 7,9 km/h (2 Bft) S-SW 211 0 min 0,000 mm 0,0 UV-I 0 W/m 8,6 C 8,4 C 14,5 km/h (3 Bft) 100,00 %
_ Min-Zeit 04:32 03:12 15:40 17:58 - 02:20 - - - - - - 04:32 22:44 02:20 09:04
Minimum _ 6,3 C 13,9 C 54 % 1009,0 hPa - 0,0 km/h (0 Bft) - - - - - - 5,6 C 4,5 C 0,0 km/h (0 Bft) 88,00 %
_ Max-Zeit 16:24 14:34 07:24 00:12 22:26 19:44 - - 10:53 14:00 13:24 13:22 15:20 16:12 17:48 00:02
Maximum _ 18,6 C 15,6 C 97 % 1014,4 hPa 0,4 l/m 18,9 km/h
O-NO (3 Bft)
- - 3 min 0,356 mm 4,7 UV-I 1031 W/m 11,9 C 18,4 C 29,0 km/h
O (5 Bft)
100,00 %
Durchschnitt _ 11,9 C 14,8 C 82 % 1012,5 hPa #7,6 l/m 4,7 km/h (1 Bft) O-NO - #8:30 h #3,048 mm 2,3 UV-I 364 W/m 8,7 C 11,3 C 7,9 km/h (2 Bft) 97,24 %